GFSGL_500_rhum_000.txt.gz
RH
20 24 25 27 30 37 39 45 45 44 47 46 42 40 41 48 55 52 53 54 55 57 67 67 72 81 92 98 100 100 98 100 97 70 74 99 83 99 99 99 98 99 100
44 48 48 49 48 47 48 48 47 48 49 49 50 48 48 50 53 54 49 48 47 47 51 51 73 96 90 92 98 100 100 100 99 74 76 90 90 96 95 99 99 99 100
51 53 55 58 61 62 63 61 58 54 52 49 48 46 45 46 48 52 58 57 53 49 42 42 44 56 63 72 74 88 91 95 82 98 75 89 95 99 98 97 100 98 99
25 34 38 41 42 43 46 58 66 64 62 59 56 53 50 48 47 49 49 49 46 45 48 55 61 64 68 73 76 65 69 88 76 87 76 66 89 98 99 99 100 98 99
14 19 22 29 33 34 41 43 48 48 44 48 49 52 52 50 50 50 46 42 40 41 45 46 48 47 51 55 55 43 61 78 94 96 98 76 70 93 99 99 99 99 99
12 12 15 21 27 31 36 37 39 45 50 51 50 52 52 50 49 48 46 42 40 36 35 34 34 34 37 38 52 74 70 64 67 97 97 80 68 86 99 99 99 99 98
13 17 24 26 26 29 41 45 44 48 49 51 55 56 56 58 59 54 49 46 42 39 35 32 29 30 34 36 42 53 73 46 54 93 100 92 77 85 99 97 100 98 98
16 22 30 52 60 65 64 60 62 70 64 55 51 58 69 70 64 56 49 44 40 37 33 31 29 27 29 37 36 33 35 41 93 88 84 79 82 98 98 98 99 98 96
26 50 67 79 88 86 80 79 77 75 80 79 75 74 75 72 62 49 36 29 26 23 20 19 19 21 25 25 26 30 51 76 92 98 98 90 99 97 99 98 99 99 98
78 89 88 95 88 72 77 88 90 94 89 83 75 70 57 44 36 32 25 19 15 14 16 16 18 22 23 27 20 33 83 96 92 93 100 99 99 99 99 99 100 99 99
96 100 100 96 90 90 89 90 87 81 77 71 65 57 50 40 29 20 15 13 12 12 13 14 14 16 23 23 28 67 100 100 74 80 99 100 100 99 98 98 100 99 100
97 99 100 100 96 88 78 70 61 53 46 41 34 26 20 15 11 9 10 10 11 12 15 17 17 25 38 43 61 77 100 100 97 95 98 99 100 98 98 99 99 99 100
93 92 81 66 50 43 38 32 27 23 19 16 13 11 10 8 8 7 10 7 8 11 29 57 51 59 54 50 58 71 100 100 97 100 100 99 99 99 100 98 100 98 100
70 52 48 47 48 40 30 24 20 16 13 10 9 8 7 6 5 5 8 7 6 14 34 78 82 73 58 54 56 57 99 100 99 100 99 99 100 99 100 99 98 98 100
52 54 54 44 33 28 23 20 16 10 8 6 5 5 4 4 4 5 6 6 6 16 29 81 94 84 63 55 60 83 100 100 100 100 100 99 97 100 100 100 100 99 100
55 45 34 29 27 26 23 15 9 8 8 9 8 6 5 5 5 5 5 5 6 16 38 83 91 74 68 63 77 90 98 100 100 98 100 98 100 100 100 100 100 100 100
44 38 35 33 30 25 15 9 7 10 13 11 10 8 6 5 6 6 5 5 7 17 50 89 81 68 84 78 79 76 96 100 99 100 100 100 97 100 100 100 100 95 97
44 40 34 29 22 13 11 12 13 12 10 11 13 12 10 8 5 5 7 7 8 19 53 81 74 84 100 100 68 82 100 100 100 100 97 97 98 100 100 100 100 100 100
35 29 23 16 14 16 17 17 14 10 10 10 13 14 12 10 8 4 5 7 10 22 56 77 68 100 100 100 98 100 100 100 100 100 100 98 100 100 100 100 100 100 100
20 16 16 19 22 24 20 14 10 10 10 13 15 13 10 8 8 6 4 7 10 24 56 74 72 100 100 100 100 100 100 100 100 100 100 99 100 100 100 100 100 100 98
15 20 30 29 30 21 15 13 14 15 14 13 12 8 6 6 6 7 4 4 11 24 56 70 75 100 100 100 100 100 100 100 100 100 100 100 100 100 100 99 100 98 94
34 35 35 32 20 17 21 22 18 15 13 11 10 10 11 11 8 7 5 4 11 25 54 77 87 99 100 100 100 100 100 100 100 100 100 100 100 100 100 100 96 96 63
35 39 30 18 20 26 22 21 27 31 32 34 28 23 22 19 16 10 6 3 9 27 53 84 98 99 100 100 100 100 100 100 100 100 96 95 100 100 100 96 99 60 10
37 23 15 20 27 23 21 27 44 52 50 46 33 32 40 34 22 15 6 3 8 31 51 94 100 100 100 100 100 100 100 100 100 100 100 100 100 99 99 100 59 9 5
15 14 19 22 22 20 20 31 49 50 50 50 44 40 43 42 29 19 7 3 8 33 58 96 100 100 100 100 100 100 100 100 100 100 100 100 100 97 100 56 10 5 6
17 20 20 19 20 28 35 39 44 44 40 34 47 49 47 46 34 22 8 3 11 28 72 98 100 100 100 100 100 100 100 100 100 100 100 100 95 100 53 11 5 5 14

GFSGL_500_rhum_003.txt.gz
RH
28 20 16 17 18 16 17 22 30 37 44 50 56 61 66 68 67 64 63 61 59 54 51 49 50 54 55 60 72 66 84 89 91 76 89 81 78 84 88 75 81 86 77
7 7 7 7 7 8 8 9 11 13 21 27 33 37 39 48 60 68 68 68 66 64 62 61 59 57 53 52 53 60 69 82 94 84 77 86 86 82 85 67 82 70 83
10 9 9 9 10 10 10 10 11 13 16 23 34 41 46 61 73 73 73 67 68 69 66 62 59 55 51 48 46 45 41 38 44 58 68 78 86 74 81 69 83 82 86
11 12 12 13 14 14 14 14 14 16 17 28 39 44 51 55 58 65 67 68 67 70 70 68 62 57 52 47 44 40 39 41 48 43 48 57 65 64 68 80 91 100 100
12 13 13 13 13 13 13 14 15 18 23 37 47 48 61 83 90 95 91 79 70 65 66 65 61 61 56 52 48 44 39 43 57 55 47 46 45 55 64 98 97 97 79
16 17 16 14 13 12 12 12 13 22 51 69 91 97 93 88 82 81 78 76 86 80 75 77 77 73 66 59 52 44 38 36 43 57 48 40 33 58 98 98 96 99 98
16 16 15 14 12 10 11 17 33 50 66 68 66 68 82 80 73 79 79 79 88 96 94 90 87 76 61 49 43 34 31 28 24 23 26 31 29 39 89 100 100 93 84
14 12 10 11 14 21 36 54 66 78 86 92 96 96 86 76 86 98 98 98 98 95 88 76 64 55 44 36 32 27 23 22 22 24 28 24 32 47 59 94 84 98 99
10 11 17 30 46 59 66 72 74 73 73 73 77 77 81 78 77 76 74 71 69 67 69 62 56 51 44 30 25 22 17 15 18 19 20 26 53 71 98 96 99 100 98
12 22 42 64 73 74 74 72 74 75 70 67 64 60 55 50 48 41 41 42 41 38 35 30 25 20 17 15 15 14 13 14 14 13 15 25 82 100 100 99 100 100 100
42 68 76 77 72 71 67 64 55 45 37 30 24 22 20 18 16 16 15 14 13 12 12 12 12 11 12 14 16 15 14 13 11 10 13 88 100 91 94 100 100 99 100
77 71 70 68 66 62 50 41 39 38 31 26 23 21 18 16 14 12 11 9 8 7 7 8 8 7 10 10 12 11 29 41 23 26 28 97 100 88 86 96 98 99 100
70 74 74 66 52 42 42 46 44 40 36 31 24 18 14 11 7 6 6 5 5 5 4 5 5 7 7 9 12 32 70 81 65 52 57 98 100 100 99 100 100 100 99
71 71 60 51 50 51 46 44 40 37 31 24 16 11 8 6 7 6 6 6 5 5 4 5 5 6 7 15 26 65 71 62 52 47 85 96 100 100 100 100 99 100 100
70 66 64 60 50 44 42 38 32 25 18 11 9 8 7 8 9 8 7 6 5 5 5 6 6 6 13 41 57 72 56 61 54 47 88 100 100 100 100 100 100 100 99
63 59 55 47 38 30 25 19 14 10 10 12 17 15 12 10 9 9 8 6 5 6 6 5 4 12 36 48 67 67 78 71 58 84 97 100 100 100 100 100 100 100 99
54 45 34 26 20 16 12 11 10 12 22 25 22 16 11 10 13 14 11 9 6 5 7 5 10 28 48 62 61 88 100 93 91 100 100 100 100 100 100 100 100 97 92
30 22 18 15 13 13 17 20 22 21 19 21 18 14 14 16 18 15 11 8 8 4 7 7 19 36 58 62 89 100 100 96 100 100 100 100 100 100 100 100 95 93 92
19 15 12 13 15 16 22 30 35 31 20 16 19 24 21 20 17 12 8 7 7 4 6 10 29 52 63 71 100 100 100 97 100 100 100 100 100 100 100 99 100 90 100
11 14 15 15 23 31 38 36 23 19 20 22 20 17 15 12 11 8 7 6 6 5 6 12 36 62 63 99 100 100 100 100 100 100 100 100 100 100 98 97 100 100 100
15 16 27 30 31 30 23 16 18 22 21 19 25 36 36 31 21 9 10 10 7 5 7 20 58 65 76 100 100 100 100 100 100 100 100 100 100 95 97 86 97 100 94
19 29 28 23 18 14 14 15 18 19 16 16 30 48 52 55 31 19 13 12 8 6 8 30 66 71 90 100 100 100 100 100 100 100 100 100 100 90 85 94 100 92 76
29 29 21 13 13 14 16 18 18 17 15 14 28 46 53 55 37 32 23 14 9 6 10 45 65 74 99 100 100 100 100 100 100 100 100 96 91 87 98 98 86 50 11
21 16 12 13 16 17 17 17 17 17 17 17 22 38 47 48 38 32 29 15 9 5 14 55 72 83 100 100 100 100 100 100 100 100 100 99 95 100 95 81 20 9 8
11 13 15 16 16 17 19 24 31 37 39 37 34 40 38 41 41 32 29 16 9 5 23 67 85 95 100 100 100 100 100 100 100 100 100 95 99 92 62 12 8 9 7
14 15 15 16 18 25 38 46 45 42 40 41 37 41 35 34 36 35 29 15 7 7 44 78 97 100 100 100 100 100 100 100 100 100 100 98 92 39 10 9 9 12 36

GFSGL_500_rhum_006.txt.gz
RH
9 9 10 11 11 10 9 9 10 11 11 11 11 11 11 12 13 15 16 19 24 35 47 60 69 83 82 81 77 74 71 69 68 56 57 55 53 57 78 79 96 97 96
13 13 13 13 12 11 11 12 12 12 13 14 15 14 13 13 13 17 23 31 46 57 67 74 83 88 81 78 74 72 69 69 69 63 58 64 60 53 53 54 82 88 96
16 16 15 14 14 14 14 14 13 14 15 15 15 15 14 14 14 22 40 63 72 89 98 94 88 86 87 89 86 83 84 82 81 74 65 59 54 47 41 41 48 61 68
17 17 17 16 15 14 12 12 13 14 15 15 12 12 13 18 33 53 63 79 88 89 87 88 95 99 97 95 97 98 100 100 93 85 79 70 58 47 40 35 33 48 53
20 18 15 13 12 11 11 11 12 10 8 8 9 12 18 30 57 86 94 92 100 100 100 100 100 100 100 100 99 94 100 100 100 90 76 63 54 45 38 34 34 32 30
18 15 12 9 9 9 9 8 7 7 8 8 13 28 48 63 71 80 86 83 89 88 87 96 100 100 100 100 100 99 98 93 86 66 58 45 38 31 24 26 28 35 36
12 10 8 8 8 7 8 8 8 10 16 36 51 54 58 61 64 64 60 57 54 53 54 54 56 61 68 73 79 80 76 67 59 58 54 50 40 27 20 16 22 26 48
9 8 8 8 8 10 12 19 32 41 46 45 45 44 41 40 36 31 28 24 20 18 16 16 17 20 22 26 36 46 48 44 36 31 29 29 22 18 17 17 18 24 28
10 10 9 10 17 30 42 51 48 46 44 40 34 31 30 28 26 26 24 20 19 16 14 12 11 11 11 12 13 15 18 19 18 18 15 13 12 12 15 17 25 32 24
11 12 20 40 54 59 59 58 49 38 33 36 38 43 39 30 28 26 25 23 18 14 11 10 10 9 9 9 9 9 10 10 11 11 11 13 13 14 21 21 28 32 59
18 37 54 63 70 74 71 63 55 55 50 49 45 35 30 26 23 22 19 16 12 9 7 6 5 5 6 6 6 6 7 8 9 9 11 12 17 22 26 19 29 71 92
39 56 69 78 85 78 71 66 54 44 37 34 29 24 21 19 17 15 13 9 7 7 6 6 5 5 5 5 5 5 6 7 8 9 11 35 33 32 22 45 100 100 99
60 74 81 81 76 70 55 45 38 31 24 20 18 16 14 12 10 10 9 9 11 11 9 8 6 5 5 5 6 7 7 8 9 19 74 69 63 41 59 100 100 100 100
67 75 81 78 64 52 39 27 21 19 17 13 10 9 9 9 12 15 15 16 13 10 9 9 6 5 5 6 8 9 14 17 23 76 68 59 56 58 98 100 100 100 99
80 81 68 55 38 25 20 19 16 11 10 9 11 12 15 18 23 22 17 12 9 9 9 10 6 6 6 8 9 22 28 31 68 59 58 60 87 91 100 100 100 100 100
74 62 39 24 20 19 16 11 10 13 18 23 32 34 32 26 19 15 11 9 14 11 11 9 5 7 8 9 23 32 34 69 68 64 94 100 85 100 100 100 100 100 100
39 22 21 20 15 10 10 11 13 19 24 25 23 19 20 19 20 19 12 11 15 12 9 8 5 7 10 25 32 36 76 96 100 100 100 64 95 100 100 100 100 100 100
22 21 17 11 10 12 14 22 24 15 13 12 14 20 20 20 19 14 10 10 10 7 6 7 5 9 19 40 36 71 100 100 100 100 100 100 100 100 100 100 100 100 100
22 16 10 12 15 21 24 24 18 13 11 11 12 20 19 19 33 33 29 16 6 5 8 7 6 12 36 34 65 97 100 100 100 100 100 100 99 100 100 100 100 100 100
19 11 15 17 21 24 18 16 14 11 11 13 14 14 15 19 42 48 47 32 15 7 9 6 8 23 31 62 90 100 100 100 100 100 100 100 100 100 100 100 100 100 100
13 13 17 16 15 12 10 11 11 12 13 13 14 14 12 12 27 41 45 32 19 11 9 6 11 25 53 82 100 100 100 100 100 100 100 100 100 100 100 100 100 99 99
12 14 9 7 8 10 11 12 13 14 14 14 15 17 17 16 22 37 41 32 23 12 8 7 16 42 71 100 100 100 100 100 100 100 100 100 100 100 100 100 100 92 48
13 12 9 10 11 12 13 14 15 15 15 21 34 37 36 27 26 36 37 30 23 12 7 10 30 68 100 100 100 100 100 100 100 100 100 100 100 100 100 97 52 12 7
16 13 10 11 12 13 13 14 14 15 20 37 38 36 37 34 36 32 36 31 20 9 7 14 56 92 100 100 100 100 100 100 100 100 100 100 100 100 59 14 8 7 26
19 12 10 12 12 14 19 22 25 27 33 37 38 41 34 28 32 29 33 32 15 6 12 35 77 100 100 100 100 100 100 100 100 100 100 100 80 14 9 9 27 42 47
19 12 12 13 14 22 40 45 44 38 33 36 38 39 38 38 35 28 28 26 9 7 24 61 100 100 100 100 100 100 100 100 100 100 100 34 10 9 18 31 40 37 28

GFSGL_500_rhum_009.txt.gz
RH
12 14 15 16 19 20 19 18 18 18 15 13 11 8 7 6 7 8 8 8 8 8 10 14 17 25 34 59 90 100 100 100 100 85 92 93 91 84 82 77 67 62 66
18 19 20 22 22 21 21 20 18 15 12 9 8 7 7 7 7 6 6 7 7 9 12 19 30 32 46 72 90 98 99 100 100 97 87 84 87 89 82 85 79 72 65
22 23 24 23 23 22 20 17 13 9 9 9 8 8 7 7 7 7 9 10 15 33 44 52 61 74 81 94 99 99 100 100 100 100 93 87 87 93 91 77 89 82 79
25 24 24 23 21 18 14 10 10 10 9 8 7 7 7 8 11 14 24 33 42 54 61 73 81 87 90 89 92 93 94 94 93 94 97 91 97 100 100 100 99 96 80
26 25 22 19 15 11 12 12 10 8 8 7 8 9 13 21 37 39 37 37 39 42 42 38 35 33 34 31 28 26 27 32 46 69 86 92 93 99 100 98 89 73 71
23 20 16 13 13 14 12 10 9 9 8 9 15 27 39 46 45 43 39 31 30 31 31 31 27 26 24 23 22 22 20 17 16 16 26 47 69 90 89 81 68 64 57
22 17 16 16 15 12 11 11 10 10 14 29 49 59 60 58 50 38 35 31 27 24 23 21 21 20 19 18 17 16 14 13 12 12 14 15 22 38 51 55 56 49 47
19 18 18 15 13 13 12 11 12 21 41 60 71 75 73 66 52 39 30 26 24 22 21 19 17 16 16 14 13 11 9 8 9 10 11 11 12 15 17 21 25 25 22
21 19 16 15 14 13 12 17 36 50 60 70 72 66 58 49 40 35 30 24 18 15 13 12 11 10 10 9 8 6 5 5 5 6 8 10 10 11 12 13 13 13 13
22 20 18 16 13 12 23 43 61 67 67 66 60 50 41 34 26 19 15 12 8 7 6 6 7 8 8 7 6 5 4 4 5 6 7 7 8 9 11 12 12 10 11
23 20 17 12 15 34 52 63 62 56 47 34 25 20 18 15 12 9 8 9 10 9 8 9 11 12 11 10 9 6 5 4 4 5 6 7 9 10 13 20 18 12 12
21 16 13 17 38 52 56 48 31 22 20 19 17 14 10 8 11 12 11 14 18 22 20 20 18 14 12 11 8 6 5 5 5 6 6 8 10 14 19 26 34 18 15
16 13 20 43 53 47 29 22 20 19 18 13 9 8 9 16 14 11 12 14 17 18 19 17 16 18 16 11 7 5 6 6 7 8 9 12 33 60 76 82 67 34 53
12 18 38 48 39 25 23 21 19 16 10 9 11 15 16 11 9 8 9 11 14 18 20 22 22 18 13 9 6 7 9 10 11 10 14 59 90 85 77 66 64 94 100
19 36 48 42 28 26 23 20 16 10 12 13 18 15 11 9 8 8 8 10 13 12 14 17 15 11 10 6 7 11 13 15 19 46 79 75 75 69 64 93 100 100 100
29 48 48 33 29 28 23 18 10 12 14 17 15 12 11 10 9 9 10 13 28 18 11 9 7 8 7 6 11 14 30 32 72 96 100 98 68 73 100 100 100 100 100
52 56 39 32 33 28 21 14 8 10 8 8 9 11 10 11 11 12 12 18 39 38 26 8 5 7 6 11 16 36 44 84 100 100 100 100 100 100 100 100 100 100 100
62 48 37 37 34 26 20 10 10 8 7 8 9 10 11 12 12 12 12 13 34 50 30 8 7 6 8 18 39 57 87 100 100 100 100 100 100 100 100 100 100 100 100
61 43 40 39 32 24 15 10 12 9 9 9 10 11 13 13 13 14 12 12 33 46 30 10 7 7 13 38 63 93 100 100 100 100 100 100 100 100 100 100 100 100 100
56 44 44 40 28 22 10 12 13 10 9 9 10 11 12 14 22 20 14 15 33 39 23 8 7 8 26 48 90 100 100 100 100 100 100 100 100 100 100 100 100 100 100
54 49 48 36 27 16 10 16 14 10 10 10 11 12 14 30 38 34 18 23 37 30 13 8 6 12 31 91 100 100 100 100 100 100 100 100 100 100 100 100 100 100 100
57 53 45 31 23 10 12 17 12 11 10 20 22 19 33 40 38 33 30 36 33 21 9 6 7 20 75 100 100 100 100 100 100 100 100 100 100 100 100 100 100 99 66
60 53 40 30 15 10 16 14 12 11 14 31 33 28 36 38 36 26 32 32 29 11 7 6 13 59 98 100 100 100 100 100 100 100 100 100 100 100 100 95 32 16 34
58 49 36 24 9 12 16 13 11 14 30 36 35 29 33 38 35 25 28 28 20 8 5 10 56 96 100 100 100 100 100 100 100 100 100 100 100 80 18 33 54 60 63
56 41 32 15 8 16 16 13 13 30 35 31 35 31 31 35 32 33 27 24 11 6 8 41 95 100 100 100 100 100 100 100 100 100 98 49 25 44 49 54 43 25 16
44 36 22 8 12 21 17 14 25 38 36 33 32 33 32 31 29 32 26 20 7 6 23 92 100 100 100 100 100 100 100 100 98 46 38 44 30 21 20 28 42 48 45

GFSGL_500_rhum_015.txt.gz
RH
20 24 24 22 20 18 18 18 18 19 21 22 23 24 24 23 21 18 16 13 12 9 8 6 5 4 8 15 30 53 72 81 78 57 52 33 28 28 29 29 30 36 52
25 23 20 18 19 22 22 23 23 24 25 26 26 25 24 21 18 15 14 11 9 8 6 4 6 14 24 38 48 59 66 67 70 70 63 48 40 33 27 27 31 26 22
21 20 22 24 25 25 26 26 27 29 30 29 26 24 22 19 17 14 11 10 8 6 6 12 16 15 15 16 16 18 24 32 40 44 50 48 43 38 33 29 27 24 22
26 27 28 28 29 31 32 33 34 32 30 28 26 23 21 17 13 11 10 8 8 13 16 13 12 11 9 8 7 7 8 10 12 14 16 22 32 36 35 36 33 25 22
32 33 35 36 36 38 39 38 36 33 31 28 26 23 16 13 11 9 8 12 19 19 14 12 8 5 5 6 7 7 7 7 7 7 7 7 7 9 12 14 20 21 16
40 41 43 42 44 45 45 41 37 35 32 29 21 16 12 10 9 12 22 26 23 18 12 7 6 8 9 8 6 5 6 7 8 9 9 8 7 8 7 6 6 7 7
47 46 46 48 52 51 47 41 38 35 29 22 16 13 10 9 19 29 32 28 20 14 7 6 9 9 8 6 5 5 6 8 10 12 16 18 15 15 11 8 6 4 4
50 50 52 57 56 51 45 42 38 30 22 17 14 10 10 23 30 35 32 22 15 8 6 8 9 8 8 8 6 6 7 9 12 14 18 19 19 18 14 10 6 4 5
54 57 59 59 54 48 45 39 29 21 16 13 10 11 19 31 39 36 25 17 10 7 8 8 8 9 9 8 7 8 7 11 15 17 17 17 16 14 11 8 7 6 5
61 64 63 56 51 46 38 26 16 12 12 10 11 17 34 41 40 29 20 11 7 9 9 8 8 9 8 8 23 20 7 9 9 10 12 10 8 8 7 6 7 7 7
65 65 58 54 46 35 24 16 14 13 11 12 17 25 42 42 34 23 14 7 11 11 9 9 9 10 9 15 30 30 13 6 7 7 7 10 11 11 13 14 31 52 27
67 60 54 47 34 23 19 17 15 12 13 23 28 38 45 39 28 20 8 11 14 10 9 9 10 11 10 13 26 32 10 6 7 7 11 16 23 64 50 72 75 39 13
59 55 46 34 25 22 19 15 12 14 27 38 44 44 39 33 24 15 8 15 13 9 9 9 11 11 11 12 35 20 6 6 8 15 25 90 91 82 79 76 90 94 38
54 45 34 28 25 20 16 13 14 30 46 53 49 43 36 29 22 9 10 12 8 12 11 10 16 14 11 26 30 8 7 10 22 64 100 100 100 100 100 100 92 52 66
43 35 30 26 21 17 15 13 23 55 59 54 51 42 34 26 17 8 11 9 13 17 10 24 25 13 22 33 11 7 12 58 99 100 100 100 100 100 100 72 66 68 93
34 30 26 22 18 16 14 19 53 62 61 63 52 42 33 24 9 10 10 12 24 18 28 31 18 23 30 9 8 19 82 100 96 100 99 100 99 70 55 61 87 100 100
28 26 24 20 17 14 19 40 52 60 60 56 46 40 30 17 7 12 11 25 25 30 33 26 25 30 10 7 31 92 100 100 100 100 100 100 100 77 94 100 100 100 100
21 22 21 19 16 22 42 59 60 55 51 46 43 34 24 7 11 14 23 24 28 36 28 30 30 13 7 30 91 96 99 100 100 100 100 100 95 100 100 100 100 100 100
22 23 20 18 23 43 60 63 60 58 51 43 37 30 12 6 15 20 29 27 30 25 28 28 14 7 29 88 95 100 100 100 100 100 100 100 100 100 100 100 100 100 100
24 21 19 24 43 63 65 60 59 55 47 42 34 18 5 12 16 28 28 28 31 26 25 14 7 31 88 95 100 100 100 100 100 100 100 100 100 100 100 100 100 100 100
21 20 26 52 66 64 58 58 55 52 45 35 19 5 10 18 19 28 24 28 30 27 14 6 33 91 93 100 100 100 100 100 100 100 100 100 100 100 100 100 100 100 100
19 30 54 64 62 58 57 56 54 46 38 16 5 12 21 19 26 26 21 29 28 18 6 34 96 94 100 100 100 100 100 100 99 100 100 100 99 96 95 95 92 88 86
39 56 63 62 60 58 58 55 47 35 11 6 12 21 20 28 27 20 26 25 23 7 33 96 96 100 100 100 100 100 99 97 96 78 66 60 58 56 56 56 55 54 51
60 63 62 58 56 55 51 44 27 9 7 15 23 22 31 28 23 28 27 26 8 33 95 99 100 100 100 100 95 65 71 62 38 31 26 23 21 21 19 20 21 24 38
63 60 53 52 52 48 39 16 10 13 22 25 23 33 27 24 25 29 29 13 22 98 100 100 100 100 96 50 46 41 23 22 18 16 16 18 20 20 19 18 16 16 18
56 52 51 48 45 28 10 13 22 28 26 25 35 27 24 23 31 31 21 11 91 100 100 100 100 70 46 37 22 16 15 13 16 18 19 23 27 32 34 38 34 28 33

GFSGL_500_rhum_018.txt.gz
RH
27 24 27 26 23 21 25 27 28 28 29 31 31 31 31 33 33 30 28 25 22 19 15 12 9 8 7 6 7 11 11 11 10 8 7 6 7 10 14 19 34 51 66
26 26 24 24 27 28 29 30 32 33 32 32 34 37 38 36 33 30 26 23 18 14 10 9 8 7 6 8 12 12 10 8 5 4 3 4 5 6 6 8 15 23 46
24 24 27 30 31 31 33 35 36 35 36 40 43 43 39 36 33 28 21 16 11 8 8 7 8 7 10 15 13 10 5 5 7 8 7 6 5 5 5 6 7 7 12
27 31 33 35 36 38 40 40 40 42 45 51 49 43 40 32 23 16 13 10 8 8 8 8 8 15 19 13 9 5 6 7 8 8 7 7 5 5 6 6 6 6 6
34 37 38 40 42 43 44 45 47 51 57 54 46 40 28 18 14 12 11 9 8 8 8 9 22 22 14 7 6 7 7 8 8 8 7 6 6 8 9 9 12 13 11
42 42 44 46 47 49 48 50 59 65 57 48 38 26 17 16 15 12 10 9 9 8 12 24 24 17 7 6 9 9 7 8 8 7 8 9 8 11 12 12 14 18 15
45 47 48 50 52 51 56 63 67 57 48 37 25 20 18 14 12 11 10 10 10 17 25 25 19 10 7 9 10 9 8 8 9 16 22 14 8 8 9 10 13 15 16
48 49 55 54 55 62 68 67 57 47 36 26 22 16 14 12 12 12 13 13 20 28 27 21 14 7 11 10 8 8 9 9 8 14 30 23 7 8 8 7 8 10 11
51 59 55 57 65 70 63 55 44 35 28 22 18 15 14 13 13 16 18 23 29 28 24 18 8 10 10 9 8 8 9 9 9 23 35 11 7 7 7 7 9 9 9
64 59 60 66 62 56 50 38 32 27 22 19 17 16 15 14 18 24 29 31 29 26 22 9 9 9 12 13 9 8 9 10 12 30 11 10 7 8 13 14 14 21 61
61 64 64 58 51 39 32 26 15 13 13 15 17 17 14 17 25 32 36 34 30 25 15 7 10 15 20 12 15 16 13 12 25 9 8 10 15 27 44 81 59 39 70
66 60 52 40 33 26 17 14 15 17 17 19 18 16 19 26 36 40 40 34 29 20 7 10 19 20 19 30 26 14 17 24 9 14 23 33 56 81 73 87 84 81 94
52 41 33 26 17 17 18 18 19 20 21 20 18 18 28 36 43 43 36 32 26 8 9 19 23 30 32 27 16 27 17 10 43 80 98 100 99 93 100 99 100 100 100
33 31 20 19 21 20 20 19 22 23 21 18 19 30 39 45 44 38 34 29 15 6 15 23 27 30 24 25 30 12 17 73 88 96 100 100 100 100 100 97 93 74 80
28 23 22 21 20 19 19 21 23 21 18 23 37 45 45 43 38 37 32 21 6 11 23 26 28 28 31 30 10 24 82 95 99 97 97 100 85 78 62 68 82 96 100
24 22 20 19 19 18 20 22 20 18 27 47 52 50 45 41 40 34 24 7 9 21 27 26 26 30 20 8 34 92 99 100 100 100 100 97 99 98 98 100 100 100 100
20 20 20 20 19 20 20 18 16 26 45 48 49 45 43 40 36 24 7 5 16 27 29 28 28 17 8 39 94 100 100 100 100 100 100 100 100 100 100 100 100 100 100
24 24 22 20 20 20 18 17 26 37 43 46 45 43 39 34 19 6 5 16 24 27 31 28 15 8 38 96 100 100 100 100 100 100 100 100 100 100 100 100 100 100 100
26 24 22 19 17 17 17 27 39 44 45 40 38 39 30 12 5 10 19 19 24 25 30 17 8 39 96 100 100 100 100 100 100 100 100 100 100 100 100 100 100 100 100
27 24 20 17 16 17 28 40 47 44 40 40 39 24 9 6 14 20 21 25 22 29 22 8 47 100 100 100 100 100 100 100 100 100 100 100 100 100 100 100 100 100 100
28 23 18 15 18 31 42 46 44 41 40 36 17 9 10 18 20 25 25 20 28 27 8 54 100 100 100 100 100 100 100 100 100 100 100 100 100 100 100 100 100 100 100
24 18 15 18 30 42 45 44 43 41 30 12 10 18 23 21 28 24 21 29 27 8 41 100 100 100 100 100 100 100 100 100 100 100 94 90 85 79 79 81 85 89 93
19 16 22 33 46 47 46 45 39 21 9 14 23 25 21 28 23 24 31 30 10 31 100 100 100 100 100 100 95 100 100 78 38 30 27 24 21 20 22 28 33 30 28
17 27 40 50 48 46 46 34 12 10 19 25 26 21 28 23 22 30 31 13 28 100 100 100 100 100 82 99 94 43 28 22 23 24 25 28 26 19 16 16 18 23 34
32 42 51 50 47 47 27 10 13 16 22 24 19 28 23 20 27 31 16 24 100 100 100 100 98 76 90 43 22 20 19 22 27 33 37 36 37 39 25 18 20 23 28
47 54 51 50 50 22 12 15 14 12 19 17 25 25 19 20 30 23 20 100 100 100 100 78 68 46 24 17 18 19 22 26 32 34 38 42 49 48 32 31 31 40 58

GFSGL_500_rhum_021.txt.gz
RH
47 44 30 27 27 25 26 28 31 34 35 36 37 38 38 38 38 43 47 45 40 33 26 21 18 15 12 10 8 7 7 7 8 5 7 6 7 5 4 5 6 7 6
41 27 25 28 32 28 31 34 36 38 40 42 42 41 40 46 49 51 47 40 31 24 20 16 13 11 9 8 8 8 8 12 16 12 9 6 4 5 7 7 8 8 8
27 35 45 40 29 34 37 38 41 45 46 46 43 44 52 54 53 46 36 27 22 17 13 10 8 8 9 10 10 12 18 17 14 9 4 6 8 9 7 8 6 5 6
64 48 30 31 37 39 41 44 48 49 49 43 49 53 54 52 40 29 21 14 10 8 8 9 10 12 13 12 18 22 18 15 9 5 9 9 9 8 8 6 6 12 7
42 31 34 40 41 43 47 50 52 51 45 51 54 54 46 30 19 12 12 12 11 10 11 13 14 14 14 29 24 19 17 9 6 9 9 8 9 9 8 8 13 15 7
33 38 41 43 44 48 50 55 56 52 56 56 50 36 22 14 14 14 11 10 11 13 14 14 15 23 35 25 21 20 8 7 8 11 9 8 9 10 8 12 19 6 6
39 44 44 46 49 50 57 57 56 58 51 40 27 16 14 16 14 12 12 13 16 16 15 17 29 37 27 23 21 8 7 10 17 13 10 10 10 10 16 17 6 6 7
45 48 47 49 51 60 58 60 52 42 30 19 15 17 16 13 13 13 14 16 16 16 24 38 39 30 27 22 8 8 12 14 14 18 21 14 13 21 18 6 7 9 13
50 49 49 50 62 62 55 43 32 24 16 18 18 15 14 13 14 16 15 15 18 28 41 41 33 29 23 7 9 17 17 19 28 22 16 22 25 13 9 10 19 34 37
51 49 56 62 61 44 32 27 22 20 18 16 15 14 15 14 14 14 15 19 27 38 40 34 33 25 8 10 22 22 25 27 18 22 27 16 10 17 23 34 38 60 75
50 62 63 48 33 26 24 22 19 17 17 16 15 15 15 13 13 17 30 40 42 37 33 30 25 8 8 24 26 26 23 22 25 14 13 38 59 80 97 98 87 80 83
63 58 39 31 25 19 17 18 17 14 15 17 17 15 12 10 18 33 43 41 41 36 31 25 9 6 24 26 26 27 28 20 10 46 88 99 100 100 100 97 99 100 96
47 35 30 21 18 18 18 17 17 18 18 18 16 12 10 18 37 43 39 38 36 33 24 9 5 22 27 24 27 24 9 18 74 100 100 100 100 100 100 97 94 75 84
34 29 20 20 20 20 20 22 20 18 18 17 13 9 20 36 42 38 36 34 29 18 6 5 19 27 26 24 17 8 36 90 99 97 95 98 94 96 85 76 84 89 95
29 22 23 22 20 21 24 22 21 20 18 13 14 24 33 36 37 37 34 26 11 4 6 17 25 29 27 16 9 45 92 95 100 100 100 100 100 100 98 97 99 100 100
24 25 21 20 21 21 21 22 21 20 14 11 24 35 36 38 37 34 22 8 6 14 18 23 26 29 13 10 65 100 99 100 100 100 100 100 100 100 100 100 100 100 100
24 20 20 21 22 24 25 23 23 16 10 23 34 37 38 36 32 14 9 10 20 19 23 23 31 14 10 80 100 100 100 100 100 100 100 100 100 100 100 100 100 100 100
20 20 22 25 26 29 26 24 17 9 14 29 38 39 36 26 10 11 15 19 20 25 22 30 18 14 90 100 100 100 100 100 100 100 100 100 100 100 100 100 100 100 100
22 25 27 29 34 31 27 19 11 18 30 36 37 34 16 9 16 20 20 21 21 20 29 19 19 95 100 100 100 100 100 100 100 100 100 100 100 100 100 100 100 100 100
29 30 33 39 37 29 21 11 17 31 37 40 29 11 11 21 22 22 24 21 21 30 19 22 99 100 100 100 100 100 100 100 100 100 100 100 100 100 100 100 100 100 100
31 37 43 43 32 23 12 16 31 38 41 29 12 14 23 23 22 25 22 26 32 21 31 100 100 100 100 100 100 100 100 100 100 99 97 96 98 99 100 100 100 100 100
40 47 48 36 26 13 15 29 39 41 34 13 14 15 24 20 25 21 27 33 18 22 100 100 100 100 100 100 100 93 62 38 28 26 23 22 24 30 37 40 55 81 95
53 52 40 28 15 17 28 40 42 38 14 14 13 18 19 23 20 23 31 18 25 99 100 100 100 99 98 87 38 25 26 29 36 42 42 39 24 18 18 21 34 40 30
57 44 29 16 17 27 38 43 39 14 13 11 11 16 20 22 18 27 20 27 100 100 100 100 89 90 31 22 22 28 35 40 44 43 43 48 31 25 20 21 28 39 39
46 30 17 16 27 39 44 40 14 13 11 9 13 16 23 17 21 24 25 100 100 100 92 77 45 21 20 22 24 29 36 39 42 47 57 56 36 37 43 52 64 69 75
30 16 17 27 40 46 39 14 13 12 18 11 14 23 18 16 25 22 99 100 100 74 64 27 18 18 21 25 28 32 36 42 50 59 65 69 66 67 53 41 46 59 60

GFSGL_500_rhum_024.txt.gz
RH
32 54 59 48 41 28 28 40 38 32 36 38 41 45 48 50 48 44 42 43 43 39 30 21 16 14 11 8 7 7 8 10 10 7 8 7 6 7 10 12 9 5 6
59 61 50 41 35 48 50 31 34 38 40 43 48 51 53 50 48 47 44 38 26 18 14 12 8 7 8 8 8 9 10 12 12 11 8 9 12 14 12 6 5 7 8
62 58 52 69 71 46 30 36 41 42 46 52 54 54 50 51 46 36 23 17 14 10 8 8 8 9 8 9 9 10 12 14 19 21 16 16 15 8 4 6 8 9 8
62 66 73 70 46 35 38 42 43 48 52 57 54 52 48 35 23 18 16 12 8 8 9 9 10 10 9 10 12 14 16 19 23 22 18 12 5 8 11 11 9 8 8
66 76 74 63 41 38 44 44 49 52 58 54 53 35 24 20 17 13 9 9 9 9 10 11 10 9 11 14 20 23 27 27 23 18 8 5 15 13 12 11 9 9 9
86 81 68 40 39 44 46 49 53 59 57 43 25 21 17 13 10 10 10 10 10 11 10 10 7 8 14 24 28 31 28 24 16 6 9 19 24 24 20 14 13 12 14
89 86 52 41 45 48 49 56 59 56 33 23 16 13 12 12 11 12 12 12 12 12 9 6 8 19 28 30 28 26 23 15 8 21 24 29 25 24 17 18 13 11 10
79 41 43 46 49 49 60 60 50 30 21 15 14 15 13 13 14 14 13 13 13 8 6 12 23 28 31 29 24 21 14 6 23 26 27 25 25 21 13 16 32 29 58
41 46 47 48 50 64 60 41 31 21 16 17 15 12 13 12 14 14 13 12 8 6 14 26 32 30 26 24 19 11 5 22 27 29 32 29 18 19 54 65 66 81 98
46 46 48 53 66 56 37 31 22 18 19 13 12 14 14 15 16 15 12 7 6 13 26 31 29 27 22 13 6 5 21 25 26 23 15 19 57 86 92 84 79 80 95
47 49 66 65 49 35 32 25 22 19 12 13 18 19 17 16 16 12 6 10 22 28 28 25 23 13 6 5 11 26 28 22 10 21 69 94 95 94 98 100 99 88 84
57 72 58 41 33 30 26 24 18 14 16 22 23 19 17 19 13 6 14 26 31 30 26 16 8 7 9 19 28 30 20 14 61 97 100 100 99 99 99 100 85 79 79
70 51 35 32 29 27 23 17 16 19 24 26 22 20 21 16 6 14 25 29 29 20 10 9 14 19 23 28 31 14 25 81 92 100 100 100 100 100 91 86 88 100 96
45 36 33 30 26 20 17 17 22 28 28 26 26 24 21 8 12 25 27 18 8 8 10 17 19 24 26 28 12 50 92 97 99 100 100 100 100 100 100 100 100 100 100
37 34 31 24 20 19 19 24 27 33 32 32 30 24 10 11 24 25 11 9 12 14 18 20 23 25 27 13 72 100 100 100 100 100 100 100 100 100 100 100 100 100 100
36 31 24 21 20 20 22 26 36 40 41 36 22 11 12 26 28 11 14 20 19 20 22 21 24 21 17 91 100 100 100 100 100 100 100 100 100 100 100 100 100 100 100
31 25 22 20 20 22 28 30 30 41 41 28 11 13 26 30 13 13 20 22 22 22 20 25 20 24 100 100 100 100 100 99 99 100 100 100 100 100 100 100 100 100 100
26 24 20 22 26 30 35 38 43 45 36 14 11 25 29 14 14 17 20 22 24 23 26 19 36 100 100 100 100 100 99 100 100 100 100 100 100 100 100 100 100 100 100
24 22 26 29 34 38 42 50 49 35 15 9 23 30 15 12 13 20 21 22 25 28 19 51 99 100 100 100 100 99 99 99 100 100 100 100 100 99 98 99 100 98 98
25 26 28 31 37 46 54 50 38 15 9 22 30 15 10 10 16 19 21 24 30 18 66 98 99 100 100 100 100 100 100 88 55 37 33 38 60 93 100 100 100 100 99
29 30 33 40 50 54 51 40 16 9 23 30 17 11 8 12 16 20 19 28 17 58 97 96 99 100 100 100 88 46 29 30 39 41 35 24 19 19 33 41 82 100 100
32 35 42 49 52 51 41 16 9 24 31 19 10 9 8 15 19 18 23 18 66 95 96 100 100 100 82 35 26 28 37 47 45 39 42 28 22 16 18 25 42 35 34
34 43 49 51 51 41 16 9 23 31 22 10 10 8 12 16 19 18 21 66 95 99 100 92 86 32 21 21 28 39 43 42 40 46 55 30 31 32 23 29 37 36 24
43 47 45 48 38 15 8 20 32 24 11 11 13 12 14 20 16 23 56 94 100 96 80 45 21 20 25 29 36 45 50 49 54 60 62 50 38 35 51 59 50 49 46
44 43 44 33 13 7 18 33 26 11 12 16 21 13 20 14 22 47 94 100 84 66 22 18 20 24 31 36 36 44 45 35 31 70 77 69 55 37 43 61 71 64 58
40 37 27 11 6 18 34 27 11 12 16 26 20 17 15 20 36 95 100 75 41 18 17 19 26 39 52 77 88 76 51 34 26 44 81 75 64 40 48 57 73 80 74

GFSGL_500_rhum_027.txt.gz
RH
17 16 18 33 68 62 56 41 57 64 40 35 38 42 44 52 53 48 45 42 30 20 12 11 11 10 9 7 7 7 7 8 7 5 5 3 2 2 4 9 13 16 15
14 21 38 62 62 63 57 66 67 43 45 40 43 46 54 56 49 46 36 24 13 12 13 12 10 7 7 7 7 7 7 7 5 4 3 3 6 10 15 16 15 9 6
21 24 41 71 66 76 83 74 62 47 42 44 50 57 59 52 43 29 19 14 14 14 12 9 8 7 8 8 7 6 5 4 5 9 7 11 15 17 15 10 5 9 18
22 41 78 70 80 86 85 81 57 44 46 50 61 59 51 36 27 17 16 17 15 11 9 9 9 10 9 8 6 4 5 8 14 18 20 18 17 14 6 9 15 20 21
49 81 73 93 98 94 91 50 45 51 50 64 59 47 33 25 18 19 18 13 11 10 11 13 12 11 8 4 5 8 16 20 23 23 21 18 11 5 18 21 20 18 20
71 69 92 95 98 88 45 55 50 54 68 58 42 31 25 22 21 15 12 10 10 13 15 13 13 9 4 6 14 21 26 28 25 21 13 5 7 24 23 22 15 15 23
74 87 95 97 79 50 58 47 63 68 54 36 31 26 23 17 13 11 11 14 17 18 16 17 9 4 8 16 20 24 23 17 7 5 5 20 24 19 11 13 47 75 90
86 94 93 70 49 50 49 71 65 47 33 29 26 21 17 13 12 14 15 19 18 19 21 9 5 10 17 20 18 12 6 6 7 21 31 25 12 26 46 61 65 69 85
84 87 53 49 49 56 76 60 41 32 29 26 20 18 15 14 15 17 20 19 22 23 9 7 15 15 11 8 7 6 10 23 32 34 21 15 56 85 82 78 84 86 91
62 46 51 47 71 77 56 38 33 30 25 22 18 15 15 16 20 25 24 28 24 10 9 14 9 7 8 9 14 18 25 29 22 19 48 100 100 100 99 98 93 76 78
45 46 49 78 74 52 38 34 31 26 21 18 16 16 20 24 29 29 33 25 10 12 13 8 10 12 15 19 20 25 24 18 62 100 100 97 96 100 100 100 98 93 96
48 54 81 70 48 39 36 31 27 21 18 17 18 21 25 32 35 34 26 11 19 14 10 16 15 18 19 21 23 18 36 99 100 99 99 100 100 100 100 100 99 98 94
71 80 64 47 41 37 32 28 23 19 19 19 20 23 28 31 34 25 10 18 14 9 16 18 19 19 20 23 15 70 97 97 100 100 100 100 100 100 100 100 100 100 98
72 64 49 43 39 35 29 24 20 21 21 22 25 27 29 32 25 9 14 13 8 13 18 19 18 20 19 19 86 96 100 98 99 100 100 100 100 100 100 100 100 100 100
62 50 47 41 36 30 25 22 24 26 27 29 32 34 33 24 10 13 12 7 12 17 18 19 22 19 26 98 100 99 100 100 100 100 100 100 100 100 100 100 100 100 100
54 51 44 38 33 26 25 28 31 32 36 41 42 38 23 8 16 13 7 10 17 18 20 24 18 54 98 100 100 100 100 100 100 100 100 100 100 100 100 100 100 100 100
52 46 41 36 28 29 26 25 25 33 40 41 37 22 7 16 14 8 7 15 19 22 26 19 78 100 100 100 100 100 100 100 99 97 95 100 100 100 100 100 100 100 100
48 42 31 30 29 26 26 28 31 30 30 34 22 6 13 16 9 7 13 18 21 26 20 88 100 100 100 100 100 100 100 98 82 60 47 55 76 96 100 97 100 100 100
40 32 34 30 25 25 28 31 31 31 31 20 6 10 17 9 7 10 16 17 22 17 88 97 100 100 100 100 97 76 42 30 31 32 30 23 19 20 53 96 97 95 98
36 35 29 25 24 28 31 30 30 29 17 6 9 17 9 8 8 15 17 20 17 82 93 100 100 99 90 52 28 28 32 42 40 37 32 24 19 15 16 26 83 100 99
38 31 28 26 26 28 30 29 27 16 5 7 18 10 10 7 12 16 18 19 89 97 99 100 95 55 23 21 25 32 35 36 35 36 41 25 24 21 18 22 35 43 98
33 30 28 26 27 30 28 27 17 6 8 18 11 11 11 11 16 16 20 84 92 97 93 69 28 22 24 27 33 40 43 45 52 54 57 38 30 28 27 34 35 34 28
33 29 26 28 30 27 26 18 6 9 17 10 12 13 15 15 15 20 77 92 90 65 29 20 22 27 35 46 56 54 45 37 51 76 78 63 36 36 60 56 50 40 26
27 26 28 30 27 26 19 6 12 18 9 13 14 18 15 15 19 65 91 83 39 19 19 25 40 63 84 89 79 56 39 33 45 97 85 58 39 50 58 63 59 52 46
28 29 29 29 27 19 7 14 17 9 13 16 16 17 14 16 52 90 74 26 18 27 48 69 79 73 60 34 20 20 20 23 40 86 85 43 51 67 81 84 76 67 62
28 26 28 29 18 7 14 16 9 12 17 16 17 14 14 33 90 66 23 24 48 61 64 59 37 19 16 17 18 18 23 25 47 74 52 41 48 66 75 76 68 59 52

GFSGL_500_rhum_030.txt.gz
RH
18 23 25 24 19 18 35 64 69 66 72 79 79 72 69 47 53 60 58 47 38 28 22 18 16 13 12 11 9 8 8 8 8 7 7 7 5 3 2 3 5 9 12
33 29 22 18 24 37 66 81 71 72 79 83 87 75 49 68 59 59 44 33 24 20 18 16 13 11 10 9 8 8 9 10 11 9 6 3 3 4 8 10 15 19 18
30 30 27 25 31 52 83 73 72 85 92 94 52 64 64 60 57 42 28 22 19 19 16 12 11 10 9 10 11 12 12 12 7 4 4 8 11 14 13 15 14 12 9
48 40 32 28 39 72 66 73 92 98 85 58 76 54 66 53 37 28 22 21 19 16 13 11 11 12 12 13 13 14 10 5 7 11 13 14 12 9 6 5 4 4 13
46 35 29 35 63 69 87 97 100 86 69 72 55 72 51 34 29 24 23 19 14 12 12 13 13 15 16 16 13 6 7 9 8 7 7 6 6 5 6 10 18 16 12
43 30 34 67 74 88 100 100 84 62 70 64 74 48 33 30 25 23 16 14 13 13 14 15 17 19 17 8 5 9 8 7 8 8 8 14 25 29 25 16 27 36 56
27 54 76 81 96 99 96 76 78 64 76 71 46 35 31 28 23 16 15 15 15 18 18 20 20 15 6 5 8 7 8 12 17 21 26 28 20 17 41 76 86 86 84
70 84 98 96 95 90 63 58 52 82 68 43 36 33 30 23 17 16 16 17 20 20 23 21 12 5 7 8 8 10 14 19 25 26 21 24 62 84 86 89 91 86 92
98 97 93 97 52 50 58 60 82 66 43 38 35 31 23 18 18 19 19 18 19 23 20 10 6 8 7 9 12 14 19 23 23 35 80 95 99 100 100 98 100 100 99
96 98 80 46 58 55 63 84 63 44 41 38 32 24 20 20 20 20 18 17 22 18 8 6 8 6 12 15 14 18 19 29 88 100 100 100 100 100 98 92 91 97 100
86 46 49 59 49 78 80 60 46 43 40 32 26 22 23 22 20 20 24 25 17 7 6 7 6 12 15 14 17 18 50 90 94 99 100 100 100 100 100 100 100 96 99
50 59 52 57 83 74 58 48 47 40 33 26 24 24 22 22 23 23 22 15 6 7 8 6 12 15 14 17 16 60 93 97 100 100 98 100 100 100 100 100 100 100 93
66 50 72 78 73 57 52 50 42 33 26 26 21 18 19 21 22 20 15 5 7 8 6 14 16 16 18 16 71 89 95 97 96 97 100 100 100 100 100 100 100 100 100
55 80 75 74 61 57 51 42 31 27 24 21 19 18 19 22 20 16 5 6 8 6 12 18 20 18 22 81 86 88 92 94 96 99 100 100 100 100 100 100 100 100 100
76 78 76 67 59 51 41 30 30 25 24 21 20 20 20 19 16 5 6 9 6 9 14 21 19 45 94 92 87 92 94 94 98 100 100 100 100 100 100 100 100 100 100
83 80 70 59 52 40 32 34 29 25 22 22 24 23 21 16 5 6 9 7 7 12 17 19 64 90 91 94 100 98 97 99 92 66 46 40 54 80 100 100 100 99 100
83 71 59 54 38 34 35 31 25 21 23 27 26 22 17 5 8 10 9 7 12 15 17 69 87 92 95 98 98 91 72 41 34 40 32 24 18 16 31 91 98 100 100
71 60 52 38 37 36 32 24 19 17 19 25 24 20 6 10 11 9 7 11 15 17 57 90 94 92 95 86 46 28 30 43 47 39 37 27 21 15 14 18 84 100 100
62 50 41 40 38 33 25 20 18 19 22 26 22 7 10 11 10 9 9 13 17 45 92 92 88 79 41 20 23 30 37 39 38 36 35 36 23 17 13 15 26 94 100
50 45 44 41 33 27 20 19 19 21 25 22 8 9 11 9 11 10 14 16 49 89 92 77 39 20 22 25 29 35 40 44 45 47 52 50 26 22 18 23 30 39 98
52 47 44 34 27 20 20 20 21 24 23 9 10 11 8 11 10 12 15 55 94 90 49 23 21 28 34 42 52 64 63 50 40 65 77 52 34 30 34 35 34 33 49
51 45 34 27 22 22 21 22 22 23 11 10 11 9 14 11 12 14 56 91 66 27 20 32 55 67 79 83 77 63 52 44 41 81 74 42 42 53 70 55 43 31 28
43 33 27 23 22 21 22 21 22 11 10 11 9 14 13 12 13 45 92 49 19 29 59 65 59 38 30 21 19 20 24 29 58 85 63 51 66 74 79 75 62 50 39
32 26 23 22 22 22 20 22 12 10 11 11 14 14 13 12 27 91 38 20 46 60 35 21 19 20 23 23 22 24 23 39 82 81 50 62 69 78 78 69 65 66 48
26 25 24 23 22 20 22 12 9 10 12 13 14 13 13 17 90 43 24 55 52 19 17 20 26 27 26 24 22 29 36 67 62 42 51 63 68 76 72 62 51 47 45
28 26 24 22 20 21 11 10 11 12 11 11 13 13 13 82 49 29 60 56 25 19 22 26 26 26 23 22 19 34 63 67 40 42 42 44 69 73 64 63 51 52 56

GFSGL_500_rhum_033.txt.gz
RH
23 21 20 19 23 29 26 22 24 28 33 51 62 65 77 89 88 68 66 58 67 55 36 27 23 23 20 15 13 10 11 14 11 7 7 8 8 6 4 3 4 5 6
25 22 28 32 29 28 30 31 33 30 47 59 67 82 93 86 76 69 60 71 51 34 29 25 24 17 15 11 11 14 12 10 10 10 8 5 4 4 4 4 4 5 6
34 36 33 36 43 43 36 30 31 49 59 75 86 97 83 74 70 66 73 47 35 31 27 23 17 13 12 15 13 10 10 10 9 5 4 5 5 5 5 5 7 8 12
40 45 52 53 49 39 32 32 49 65 77 91 94 82 75 63 73 72 46 36 33 29 22 18 15 16 15 12 11 10 9 5 4 5 5 5 7 12 20 21 21 23 21
53 55 58 58 46 33 28 66 76 85 96 93 78 64 54 79 69 46 38 35 28 22 20 19 17 13 12 12 12 8 4 5 6 6 9 14 18 18 18 33 50 61 78
58 68 74 56 29 46 77 90 89 94 81 54 55 56 82 68 45 40 35 28 23 21 19 14 14 14 13 12 6 4 6 6 12 13 16 16 18 52 80 85 92 90 96
71 81 50 36 66 88 94 92 96 53 53 54 58 86 65 46 43 35 28 23 20 16 15 16 15 14 11 4 4 6 7 14 15 16 15 48 74 85 86 95 100 100 100
58 37 56 89 95 97 97 90 49 53 54 68 87 60 47 43 33 26 22 20 18 16 17 16 14 9 4 6 6 7 12 14 16 24 75 81 82 87 86 88 90 100 100
61 88 95 92 96 97 60 49 55 53 80 80 58 50 43 30 26 23 19 11 11 13 16 14 7 4 6 6 8 12 14 17 44 87 86 86 91 93 86 82 89 93 100
91 85 95 100 69 49 57 55 57 87 72 56 52 40 30 27 24 9 9 10 13 14 12 6 4 7 6 12 13 14 17 65 89 97 99 100 97 96 88 86 85 87 90
94 100 67 50 66 65 54 72 82 70 60 51 38 32 30 26 12 11 13 14 13 11 5 5 7 6 12 16 16 24 76 84 93 96 98 100 99 98 100 96 95 90 92
71 55 74 78 61 58 81 80 73 62 50 38 33 31 24 16 12 12 14 16 13 5 6 8 6 11 16 15 34 84 86 90 96 96 94 93 99 100 100 100 100 100 97
78 79 71 50 75 79 82 76 61 51 37 35 31 22 16 14 14 12 14 12 5 6 8 7 10 15 16 57 85 88 88 91 92 95 99 99 92 93 96 100 100 100 100
71 52 58 84 74 86 78 61 51 38 37 33 26 19 14 14 13 12 10 5 6 7 7 9 14 16 60 78 82 85 87 88 87 82 62 40 25 32 57 89 100 100 100
52 87 71 74 86 77 62 50 42 40 34 27 23 17 14 14 12 10 5 7 8 8 7 14 16 61 87 89 86 82 83 70 43 30 26 28 22 19 15 24 86 100 93
92 60 80 87 78 63 50 46 42 35 28 23 18 16 16 15 12 6 8 8 8 7 13 16 60 85 88 88 90 70 32 23 26 37 36 33 26 19 15 14 24 99 96
60 83 88 76 65 53 50 45 38 30 23 19 18 18 16 15 7 8 9 9 8 11 16 67 86 90 86 59 23 20 22 27 35 40 36 33 30 24 15 14 17 89 98
85 87 74 68 60 56 49 40 31 23 19 19 19 18 16 8 8 9 9 10 11 16 69 88 89 58 24 20 22 25 31 36 43 44 40 38 38 29 19 17 20 53 100
86 75 74 72 63 52 42 31 24 22 20 19 18 16 8 9 10 10 11 10 15 70 93 72 27 20 29 43 54 62 69 71 62 46 49 62 52 30 22 20 24 30 98
81 83 81 65 53 40 30 26 24 21 20 19 16 7 7 10 11 14 11 14 66 87 37 22 41 54 57 60 59 60 60 56 52 48 80 70 42 40 49 40 37 36 62
87 75 62 51 39 31 29 25 22 20 19 17 7 7 9 10 13 12 13 63 84 25 39 49 38 35 30 31 28 26 28 29 35 85 88 51 61 63 63 62 56 37 34
70 60 48 38 34 30 25 23 22 20 16 7 7 10 11 12 11 12 58 72 24 49 37 22 26 28 27 28 29 29 28 30 72 94 59 71 79 80 76 73 62 52 33
57 45 40 35 30 26 25 24 20 16 8 8 9 10 9 12 11 43 70 27 44 19 22 26 28 27 23 23 29 31 48 84 89 54 61 72 82 84 70 57 50 50 42
46 40 34 30 28 26 24 20 16 8 8 10 10 8 11 11 26 75 26 46 19 24 27 29 27 22 19 21 36 60 71 53 45 51 52 63 74 68 63 48 40 40 43
39 33 31 29 28 25 20 15 7 8 10 10 8 11 12 16 82 28 57 22 24 28 30 29 25 23 25 32 41 38 34 39 41 42 47 64 74 69 67 66 62 59 47
33 31 30 29 26 21 14 7 9 11 12 9 11 12 14 84 31 63 34 23 31 30 32 31 29 28 29 32 36 35 38 44 54 67 72 68 73 72 70 73 79 77 61

GFSGL_500_rhum_036.txt.gz
RH
42 52 49 30 22 21 21 26 30 30 34 38 36 33 47 54 64 82 87 82 72 62 76 74 50 40 35 29 24 21 18 14 10 7 6 6 6 4 3 2 3 4 4
42 61 41 22 23 27 33 32 36 44 44 34 38 49 62 76 88 88 72 62 62 78 71 47 41 34 26 22 18 13 8 6 7 7 6 3 2 3 4 4 7 14 17
64 34 26 28 37 37 38 50 53 44 40 40 60 78 90 91 76 57 61 60 80 69 47 41 29 23 17 10 7 7 7 6 5 4 3 3 4 5 7 13 15 24 50
32 32 37 40 42 54 62 63 50 44 40 73 91 93 89 55 57 60 62 81 60 48 37 26 14 8 7 6 6 6 5 4 3 3 4 5 7 11 14 37 54 73 79
40 43 45 54 64 75 78 65 41 54 84 98 94 87 50 60 59 67 82 56 50 34 27 19 10 7 7 7 6 5 4 3 4 5 6 9 12 28 57 67 73 78 99
50 57 66 72 82 91 72 39 72 95 98 93 78 51 61 58 76 78 57 48 31 29 22 9 9 9 7 6 5 4 4 6 6 9 9 14 56 63 70 74 80 87 90
64 66 70 76 87 52 52 93 100 95 92 56 56 61 59 81 70 58 42 32 30 15 10 11 10 8 7 5 4 4 6 9 12 11 27 57 62 70 75 81 84 90 95
64 68 79 65 47 83 99 96 99 74 53 64 61 66 84 69 58 42 34 31 21 17 14 12 9 8 6 4 4 5 9 13 13 39 63 66 71 72 74 72 72 84 92
76 76 54 69 98 96 99 88 53 67 70 59 76 82 72 55 41 36 32 25 21 15 10 9 10 8 4 4 6 7 14 17 56 70 67 74 80 80 76 73 77 81 88
70 63 94 99 98 99 61 68 79 64 63 82 83 71 55 40 38 32 25 19 14 10 9 12 9 4 6 6 6 13 25 69 76 78 87 90 89 90 84 79 77 88 76
93 99 94 95 73 68 82 78 57 76 80 82 69 56 42 40 33 26 20 15 11 10 12 9 4 7 7 7 13 23 73 75 79 81 88 92 93 84 76 72 80 88 81
89 85 66 69 80 80 60 64 80 78 82 69 55 45 44 36 28 23 17 13 11 12 8 5 7 7 7 13 20 72 78 79 82 86 88 80 58 30 22 18 24 70 88
50 55 66 76 63 55 86 71 79 82 69 56 49 47 39 29 23 17 12 12 13 7 5 7 8 8 13 21 73 75 80 82 79 74 39 26 24 24 23 20 14 17 89
60 73 68 55 88 80 66 86 82 68 59 55 51 40 29 24 19 14 13 13 7 4 7 8 9 13 22 72 79 79 71 44 17 17 21 28 28 28 25 21 14 14 92
70 52 77 94 64 72 87 80 69 66 62 53 40 30 25 18 15 14 12 6 4 7 8 9 14 39 83 87 78 41 19 16 19 23 26 31 31 29 26 21 15 14 73
80 95 80 62 76 87 77 73 74 68 53 39 30 25 19 17 16 12 5 5 8 9 10 14 54 85 81 46 24 21 28 31 32 39 49 54 44 34 37 28 16 14 71
91 68 62 80 87 79 79 82 68 54 39 31 24 21 19 18 13 5 5 8 10 9 12 59 81 44 22 28 41 51 57 65 72 74 74 59 53 56 40 26 19 17 56
68 64 82 88 85 85 80 62 48 36 30 25 23 20 18 12 5 5 7 10 10 11 56 62 28 35 43 44 41 43 47 48 41 35 46 56 63 42 35 31 27 27 47
69 83 88 89 85 71 59 42 36 30 25 22 20 19 12 5 5 8 8 8 10 55 49 32 38 31 30 30 29 30 28 27 25 26 48 64 46 51 52 53 48 33 38
85 88 90 85 69 53 43 35 29 25 23 21 19 12 5 5 7 8 9 10 50 39 32 27 27 28 27 26 25 26 27 26 28 63 64 58 69 70 69 71 62 43 35
86 89 85 66 50 42 34 28 25 25 22 19 12 6 5 7 7 8 9 50 36 32 25 27 27 22 20 18 23 32 42 62 71 57 64 74 79 75 64 59 60 49 35
90 82 63 49 41 34 28 27 26 24 19 14 7 6 8 8 8 10 46 35 27 25 28 26 21 20 21 32 43 48 52 50 49 56 60 62 72 72 60 46 45 52 44
78 59 49 40 32 29 29 28 26 21 15 7 6 9 9 8 10 31 40 32 26 28 28 26 24 25 26 30 34 38 42 45 48 48 51 68 82 75 70 62 56 44 42
55 47 39 33 31 31 30 27 21 14 7 7 9 10 9 11 16 57 43 23 30 31 29 25 28 34 38 44 48 52 56 61 68 76 80 79 78 78 70 64 64 63 52
45 40 34 34 33 31 27 20 13 6 7 9 11 11 11 12 73 45 25 31 32 32 27 24 27 33 41 46 50 57 63 69 76 81 85 92 96 92 86 84 82 70 57
40 36 36 34 31 26 19 13 7 8 9 11 12 11 11 79 46 36 31 35 36 30 25 26 30 37 43 46 52 62 74 84 88 90 93 99 100 98 98 100 97 85 60

GFSGL_500_rhum_039.txt.gz
RH
50 63 57 52 56 65 58 30 27 31 38 37 39 47 50 42 43 44 66 80 80 56 64 64 66 72 64 53 38 26 17 12 14 16 14 12 11 7 4 3 2 3 4
49 51 52 52 59 76 47 28 33 41 40 50 58 56 48 44 51 82 85 83 53 66 63 74 75 61 49 32 21 13 16 10 7 9 10 6 4 3 2 3 4 8 11
48 50 52 55 72 69 30 35 41 46 64 68 65 55 45 58 86 87 79 56 65 64 77 73 60 44 32 25 20 16 8 8 7 7 5 4 3 3 4 8 12 34 53
49 54 54 67 70 34 38 44 59 75 85 79 59 49 73 92 92 67 59 64 68 80 70 59 41 33 27 20 13 9 8 7 6 4 3 3 4 7 12 37 51 66 66
54 53 66 52 34 42 54 76 89 99 90 52 61 89 96 92 57 66 64 75 81 71 54 38 34 25 19 14 9 8 6 6 4 3 4 5 9 28 56 64 65 72 84
57 62 34 38 53 77 90 98 100 85 48 85 97 96 71 59 70 64 78 81 70 52 38 35 27 23 16 11 8 7 7 4 4 5 6 9 33 56 60 68 66 71 84
37 40 55 76 90 94 100 99 54 67 98 94 92 58 73 69 67 80 78 67 52 41 38 30 26 17 12 10 8 5 4 6 6 7 11 36 49 56 63 73 79 76 79
63 75 83 92 95 97 76 58 92 98 96 80 66 78 63 74 78 78 67 51 44 42 32 24 18 14 10 8 5 3 5 6 9 14 50 63 59 62 59 64 70 77 84
73 81 87 90 88 68 77 99 96 94 67 79 72 63 79 77 79 66 52 49 44 32 24 18 13 10 8 4 3 5 6 10 16 61 68 64 62 61 59 61 59 42 33
81 87 89 78 69 94 96 92 70 76 79 60 76 78 77 81 64 56 54 47 32 24 17 12 10 8 4 4 6 6 10 20 67 79 80 76 70 69 55 43 26 17 15
91 74 76 97 94 86 66 70 75 65 67 83 74 82 77 65 62 60 46 31 24 18 13 12 8 4 4 6 7 11 28 70 76 82 85 81 49 57 23 21 18 14 15
95 96 89 67 52 56 71 70 62 86 76 74 85 76 70 70 63 44 31 24 18 14 13 7 4 5 7 7 13 42 76 77 78 69 49 21 18 20 26 27 22 19 15
69 40 38 48 68 74 60 75 88 66 77 81 74 76 77 58 40 30 23 19 16 13 7 4 6 8 8 17 59 73 72 46 24 18 18 21 25 26 27 28 25 22 19
42 52 61 69 65 70 90 72 67 81 80 78 81 70 48 34 28 22 20 18 14 9 4 5 8 8 24 65 58 30 21 25 36 45 44 49 57 68 66 52 35 30 19
50 60 67 79 86 81 65 71 84 83 84 78 57 41 34 26 21 20 18 16 12 6 5 7 9 39 66 38 29 35 44 49 48 47 51 57 61 65 58 46 39 28 20
56 75 83 83 71 66 77 85 85 85 68 50 40 31 25 22 21 19 17 11 5 5 7 10 48 41 30 33 37 42 35 37 35 35 32 27 36 50 55 42 32 25 22
77 81 74 72 70 82 86 90 88 66 47 39 31 27 24 23 18 16 10 5 6 6 11 48 31 28 26 26 28 28 26 24 26 29 27 31 63 56 43 47 45 44 31
76 78 71 75 83 86 89 82 64 48 38 33 28 26 24 20 15 8 5 6 7 14 41 28 26 24 23 20 18 18 21 25 27 31 53 67 59 62 64 64 59 55 41
74 71 80 83 88 87 78 61 47 36 29 26 25 24 20 15 7 6 6 6 13 43 28 25 23 20 19 19 24 32 40 53 65 71 64 66 70 75 74 59 53 48 41
79 83 84 85 81 71 57 44 34 30 28 27 23 19 15 7 6 7 7 12 44 27 26 24 22 22 23 25 27 33 39 45 52 56 62 64 64 67 69 58 43 48 42
83 85 82 76 64 52 41 35 30 28 25 22 18 14 6 6 7 7 10 48 29 29 24 24 26 31 35 35 35 34 37 42 46 49 52 56 63 69 66 62 54 42 43
84 80 70 60 49 41 34 29 28 23 20 17 12 6 6 8 7 10 47 29 30 28 24 22 25 29 37 46 53 60 65 71 78 80 81 80 81 81 75 66 60 55 44
75 66 55 46 41 33 29 27 24 20 16 10 6 7 8 8 9 48 35 29 29 23 22 23 28 36 42 51 54 60 74 83 87 91 96 100 100 94 79 70 62 51 52
60 51 46 40 32 30 28 24 20 16 10 5 7 8 9 8 46 37 28 32 26 22 26 24 30 30 34 44 58 68 70 86 97 100 100 100 97 87 77 67 76 63 45
50 45 38 34 30 27 24 21 17 10 5 7 8 9 8 27 40 33 34 33 26 26 30 28 33 26 33 45 42 44 53 67 92 100 100 99 96 99 97 90 72 72 47
45 39 34 29 27 24 22 18 12 6 7 9 10 9 15 50 45 35 37 35 28 28 35 37 33 30 35 44 45 49 57 62 66 89 100 100 100 100 100 95 77 46 31

GFSGL_500_rhum_042.txt.gz
RH
21 25 56 64 51 59 78 82 83 90 82 40 33 37 42 42 51 59 59 57 51 66 83 76 57 60 64 64 63 60 47 37 34 33 29 22 12 10 10 8 5 2 3
24 25 65 65 59 81 72 70 82 97 76 38 44 45 48 62 68 72 62 54 88 90 64 60 64 67 66 65 58 45 39 37 34 21 14 12 12 11 9 4 3 5 7
24 34 76 68 62 76 68 67 76 93 43 50 50 58 70 83 86 58 72 97 90 59 68 65 70 68 65 57 44 43 39 25 18 14 13 14 12 7 3 4 6 12 45
29 64 80 69 64 68 66 71 90 49 50 56 72 85 95 90 55 92 99 79 63 70 68 72 71 67 56 46 46 37 26 18 14 15 15 10 5 3 4 7 19 53 56
50 79 80 69 69 69 68 84 48 50 66 88 97 100 79 69 99 98 69 72 68 72 74 73 67 55 50 50 37 25 18 15 16 12 8 4 4 5 12 26 51 57 81
67 81 80 76 75 75 74 48 53 78 100 100 100 61 96 99 96 68 75 67 76 72 73 67 56 56 50 33 22 19 16 15 10 7 4 5 6 18 54 60 57 63 73
86 93 87 79 78 54 53 70 94 100 100 89 74 100 100 81 75 70 74 77 72 77 64 62 61 42 27 22 19 17 14 8 5 5 5 8 18 59 58 68 68 65 69
81 81 76 59 58 76 94 94 96 96 74 96 100 94 74 78 67 81 75 75 75 67 68 54 32 25 20 20 16 14 10 5 6 6 10 24 57 58 60 57 56 62 44
67 54 58 94 98 91 91 96 79 88 99 96 74 77 67 78 82 72 77 70 71 65 39 31 24 19 17 16 14 10 5 6 8 17 48 60 59 58 49 43 22 19 16
93 98 97 96 95 92 81 88 98 91 68 66 72 66 87 74 74 79 72 71 50 38 30 23 20 16 15 13 8 5 6 11 39 78 73 67 59 32 19 12 12 13 16
96 97 96 86 76 94 94 79 52 62 76 64 74 83 68 74 75 72 62 43 36 27 21 18 14 14 12 5 5 6 17 55 71 60 44 20 17 17 19 25 32 34 35
91 77 85 88 78 51 43 61 76 68 72 86 71 70 76 77 69 52 42 35 25 18 17 15 15 9 4 6 7 29 58 41 27 25 28 34 43 47 48 52 57 61 58
87 68 37 34 47 68 71 66 77 90 76 67 73 81 80 67 50 42 32 24 20 19 15 13 6 5 6 10 45 43 26 28 29 32 36 40 40 38 39 44 59 56 54
28 32 40 50 57 62 78 87 79 71 68 74 78 76 65 51 40 28 20 16 13 12 10 4 5 6 20 44 26 21 22 23 24 25 27 32 33 33 30 28 55 57 43
30 37 45 53 64 79 77 74 71 73 76 75 74 63 50 35 26 18 15 12 10 8 4 5 8 35 39 24 22 20 18 17 17 17 19 26 32 30 34 52 48 40 32
37 43 54 72 76 75 72 72 78 75 72 68 56 43 32 25 19 15 11 10 6 4 5 12 40 27 23 22 20 20 20 25 27 27 26 31 44 62 68 66 63 57 52
46 68 78 76 74 71 79 78 74 71 62 50 38 32 26 20 15 12 9 5 4 5 15 39 25 23 21 22 23 24 26 30 39 53 59 63 67 72 75 73 68 54 54
79 79 75 71 77 79 77 74 69 58 47 38 32 25 21 16 13 10 5 4 6 16 31 25 22 21 22 27 31 31 33 38 44 49 55 63 68 62 60 64 64 46 48
78 74 78 82 81 75 71 63 51 41 36 29 23 20 18 16 11 5 5 6 15 31 26 21 20 19 20 26 34 43 53 57 52 51 52 54 54 56 65 63 60 49 45
78 84 82 79 74 67 57 45 39 33 28 22 18 17 16 13 5 5 6 12 33 28 22 18 16 16 20 27 39 49 57 65 72 78 83 84 82 77 70 64 58 58 47
83 82 77 73 62 51 43 36 31 26 23 21 19 16 12 5 4 6 8 38 29 23 19 16 17 20 23 30 40 46 54 71 89 91 96 100 98 90 76 66 57 53 54
82 77 69 57 48 43 37 32 26 24 21 18 17 11 4 5 7 8 41 30 26 20 18 17 19 22 28 32 39 47 56 68 82 100 100 100 95 88 76 61 57 50 47
76 66 53 50 46 38 30 26 24 23 20 17 11 5 6 8 8 38 31 29 23 24 21 20 21 24 32 37 45 62 73 72 81 100 100 100 100 99 86 71 51 52 44
60 55 55 48 37 31 28 26 23 20 17 11 6 7 9 9 22 39 32 26 24 28 24 24 24 28 36 48 67 97 96 77 90 100 100 100 100 99 93 78 57 55 42
59 59 47 38 34 31 27 24 20 17 11 6 8 9 10 10 51 34 34 27 26 31 33 29 28 32 42 55 75 96 99 85 89 100 100 100 100 100 94 73 50 44 36
55 47 42 36 31 27 24 20 17 11 6 8 9 10 9 52 42 37 36 30 29 29 31 34 30 34 46 58 83 99 100 97 92 85 97 97 100 95 81 53 34 30 41

GFSGL_500_rhum_045.txt.gz
RH
38 30 25 23 23 25 54 70 64 60 78 92 93 90 97 84 44 44 46 54 68 76 76 59 68 76 67 54 56 65 60 53 45 46 47 45 36 28 20 17 12 9 8
41 34 29 24 23 27 50 72 60 80 97 83 74 82 98 60 46 50 70 87 88 77 64 78 81 65 59 64 68 60 54 51 48 43 35 24 16 12 8 6 7 7 5
44 38 32 27 26 40 65 73 72 91 96 76 73 87 81 48 55 84 94 95 72 78 86 81 64 65 71 68 59 56 54 50 37 24 9 6 6 6 6 7 6 4 5
45 39 35 29 35 42 75 79 75 81 78 74 87 88 52 64 97 98 98 72 91 93 73 68 70 75 67 61 57 54 42 31 19 8 7 6 6 7 5 4 4 6 26
53 39 35 35 35 60 85 84 78 78 79 92 87 55 79 100 100 94 80 97 93 71 71 76 74 66 63 59 48 37 32 20 10 7 6 6 7 4 4 5 8 45 67
47 55 43 37 48 82 88 92 83 81 95 72 60 98 100 100 83 96 100 77 74 72 81 70 69 65 56 41 35 20 10 9 7 7 7 5 4 4 6 13 48 58 70
47 46 46 46 80 95 96 89 93 92 61 84 99 100 96 88 100 92 73 74 79 75 69 72 64 49 41 33 14 11 9 7 9 6 4 4 5 14 33 48 62 64 63
48 52 80 91 97 95 97 94 65 75 98 99 98 94 100 96 70 76 72 80 70 72 72 60 47 40 24 10 7 7 6 8 4 4 5 10 37 50 46 46 50 27 19
58 65 98 97 98 86 61 81 99 98 98 96 100 98 69 73 71 78 74 69 73 68 56 48 34 17 11 8 7 6 5 3 4 7 28 50 43 28 20 17 18 22 25
97 94 78 64 60 92 100 98 97 98 100 95 63 71 72 82 79 69 70 74 65 56 45 28 19 11 8 7 6 4 3 4 14 47 47 25 23 24 24 22 18 21 30
72 67 80 100 99 97 96 99 97 75 60 72 72 78 81 72 69 70 68 61 53 37 24 18 12 9 8 6 4 4 9 32 38 25 26 24 23 22 23 26 27 26 24
99 98 97 96 98 95 72 53 61 71 66 73 78 74 71 69 67 63 58 46 31 23 16 12 11 8 5 4 6 25 33 22 22 20 18 17 16 17 19 24 36 38 35
95 100 87 53 41 50 57 58 58 65 72 74 72 70 70 64 58 50 37 28 18 12 12 12 9 5 4 11 31 22 21 20 19 18 18 19 20 21 21 26 37 34 46
36 31 35 38 42 45 51 57 65 73 73 70 70 67 63 57 44 34 25 16 13 13 12 9 5 4 18 28 22 20 19 21 21 22 22 24 28 31 34 40 56 60 60
33 35 36 38 42 49 64 73 73 70 68 66 64 59 48 37 30 23 18 15 13 12 8 4 5 24 25 22 18 16 23 32 33 30 29 38 48 54 61 59 67 69 64
40 35 37 47 67 74 73 70 68 67 66 62 52 41 34 25 20 19 17 14 11 8 4 5 26 24 19 14 14 17 20 27 40 52 44 46 55 61 69 69 58 53 54
36 47 69 75 74 71 69 69 68 64 58 47 39 32 26 21 20 17 14 12 7 4 5 27 24 17 12 13 18 23 28 33 36 45 66 73 67 62 59 59 57 57 60
70 78 78 76 72 68 71 67 62 52 43 39 31 25 22 21 16 13 11 6 4 5 26 26 17 12 15 19 23 28 33 42 51 60 70 82 92 90 87 88 77 63 58
82 80 75 70 72 72 66 59 48 44 39 30 25 23 21 16 14 12 6 4 6 26 27 19 12 14 20 24 29 35 51 65 76 83 92 97 99 99 100 95 80 68 54
78 73 73 77 70 64 55 49 48 37 29 26 22 20 16 14 12 6 5 6 20 30 22 16 14 17 23 30 39 54 89 99 95 98 100 100 100 95 94 86 73 68 57
73 79 76 66 60 54 53 47 35 32 28 24 22 18 14 12 8 6 8 11 31 26 20 16 18 20 26 36 57 76 100 100 98 100 100 100 100 98 89 75 61 57 52
82 74 66 59 56 54 44 37 33 28 25 22 20 17 13 8 7 8 8 35 29 22 20 19 19 23 31 44 64 93 100 100 100 100 100 100 100 100 91 78 62 44 48
72 66 60 59 52 43 38 32 29 26 24 21 17 12 8 7 8 8 34 32 25 25 24 26 23 27 37 54 80 97 100 100 92 96 100 100 100 100 92 71 51 36 44
65 62 57 50 44 39 34 32 26 22 19 15 12 8 8 9 9 21 36 30 25 28 32 34 29 37 52 76 85 98 100 99 87 96 91 100 100 95 66 51 34 35 38
61 54 47 42 39 36 31 26 20 16 14 11 8 8 9 9 11 44 35 28 27 28 35 37 36 47 69 82 86 87 95 99 87 86 72 91 71 50 41 32 33 38 81
60 49 42 42 37 32 27 21 18 15 9 6 7 8 7 9 45 37 35 31 30 34 41 40 44 59 69 78 88 86 74 91 84 69 60 79 84 71 56 63 88 100 94

GFSGL_500_rhum_048.txt.gz
RH
37 31 46 47 40 35 30 27 28 34 46 71 79 76 77 99 99 88 83 95 69 51 53 72 85 80 69 80 80 53 53 66 56 52 47 42 35 23 14 8 6 6 6
33 48 59 53 46 40 33 30 35 40 52 82 80 83 97 100 90 79 91 86 57 59 84 88 82 73 88 74 53 70 69 61 52 45 41 34 13 9 8 7 6 6 4
52 68 60 55 49 42 38 35 42 40 58 84 87 84 100 97 81 90 99 63 73 92 93 81 83 90 64 66 74 64 59 54 49 41 31 10 8 7 7 6 5 4 3
82 69 59 56 52 44 49 42 46 46 76 86 87 89 88 86 89 100 70 92 98 98 84 94 81 67 72 72 64 58 55 47 38 19 11 10 7 6 5 4 3 3 4
77 64 59 59 49 44 44 44 46 62 91 94 98 92 83 96 96 77 98 99 97 98 95 72 70 74 67 61 55 52 46 29 17 12 8 6 5 5 4 3 3 5 24
68 64 65 61 50 50 46 54 49 94 100 97 94 83 100 92 84 99 99 97 100 74 74 76 72 66 58 56 51 34 20 14 9 7 6 5 5 4 3 5 23 41 48
69 67 65 85 85 62 57 55 99 100 99 95 97 98 68 100 98 98 97 81 73 78 79 68 61 58 56 42 24 14 9 7 6 5 5 5 4 8 24 33 34 23 22
71 67 82 90 76 60 65 100 99 92 94 100 73 88 99 99 96 84 69 76 83 72 65 56 55 50 30 19 11 9 8 7 6 5 5 10 23 25 16 12 13 12 22
69 56 55 49 77 91 86 95 99 100 73 92 99 98 96 83 70 74 83 75 70 58 58 56 39 25 19 13 10 8 7 6 4 8 23 22 15 15 14 11 12 12 13
52 53 60 68 99 100 98 89 72 96 99 98 93 75 66 73 77 75 71 62 58 53 45 31 26 20 16 11 8 7 6 5 16 24 20 19 17 18 17 16 14 14 15
88 100 99 98 91 78 96 98 98 96 83 67 67 70 74 76 73 67 59 56 50 35 28 24 19 15 9 7 6 4 7 22 18 16 15 19 22 22 21 21 21 19 20
99 92 82 79 98 100 96 75 56 55 64 62 66 72 75 67 58 58 53 41 31 25 18 14 10 9 7 6 4 11 23 16 11 12 16 26 35 32 31 35 42 40 47
77 86 95 93 60 38 44 51 51 51 59 73 75 68 60 57 55 46 35 30 23 17 13 10 8 8 6 4 17 21 12 12 18 21 26 27 33 45 42 46 60 62 76
78 52 36 36 38 40 44 46 58 74 76 69 61 60 59 50 39 34 28 22 18 16 10 9 8 6 4 21 19 11 17 24 29 35 41 47 45 49 60 54 56 61 59
38 42 42 38 40 49 64 76 76 70 63 61 60 54 45 38 34 24 20 17 15 12 9 9 6 5 24 18 12 18 27 35 46 52 59 67 67 72 88 84 76 61 55
48 42 40 48 68 80 78 74 65 60 62 57 49 40 37 30 24 22 18 15 12 10 11 7 5 24 19 12 20 28 35 42 59 81 90 86 81 85 95 100 100 89 79
52 58 69 79 79 77 70 62 64 61 54 44 42 39 30 27 21 18 17 14 11 11 7 6 24 22 12 18 25 31 41 56 85 96 91 87 85 89 90 96 98 99 90
70 76 79 79 73 64 64 65 59 51 47 45 34 28 23 21 17 13 10 11 10 6 6 25 24 14 14 21 27 36 54 86 100 97 96 94 92 87 87 89 87 88 75
82 80 76 67 65 69 63 57 49 48 42 32 26 22 20 14 11 11 12 10 6 6 22 27 17 15 20 25 32 50 83 96 97 99 99 100 100 99 93 85 73 72 61
82 73 67 72 69 62 56 51 48 40 33 28 23 20 15 13 14 13 9 7 7 19 30 20 17 18 23 31 50 74 90 94 100 97 100 100 100 100 90 77 63 62 56
73 72 77 68 61 55 51 45 39 33 27 24 22 16 12 13 13 8 7 8 13 31 22 20 22 24 32 51 68 72 78 88 95 86 94 100 100 100 86 61 48 46 48
78 76 66 60 55 50 44 37 33 28 25 19 14 11 12 12 10 7 8 10 32 26 24 30 27 35 46 65 68 66 64 82 73 72 98 81 80 64 46 38 34 37 48
77 67 60 57 55 46 38 36 31 24 14 11 10 11 9 8 7 8 9 33 30 29 34 35 38 48 59 65 66 60 62 62 71 99 99 50 40 34 28 27 31 50 89
68 62 60 58 46 41 38 34 25 16 12 9 9 6 5 6 7 8 35 33 27 32 37 42 51 58 61 61 72 63 61 55 96 99 99 98 69 44 42 57 83 93 84
66 66 62 54 47 42 37 27 19 13 9 7 4 3 3 4 8 35 33 29 29 34 42 50 53 55 56 57 72 72 61 53 81 100 100 100 100 100 100 98 91 77 85
70 70 64 56 45 40 33 24 17 10 8 5 3 3 4 8 36 34 32 31 35 43 45 52 51 50 52 52 60 81 67 56 48 84 99 100 100 100 100 94 78 81 95

GFSGL_500_rhum_051.txt.gz
RH
34 27 24 26 53 53 63 64 46 43 43 42 41 45 56 58 82 95 82 86 99 92 81 100 91 64 83 90 87 78 80 57 42 52 48 48 42 39 38 27 13 8 7
30 33 23 26 54 59 71 60 52 49 45 40 43 50 56 53 88 89 81 99 93 78 93 97 68 85 97 94 89 82 56 66 60 52 45 42 36 21 10 9 8 8 7
29 30 19 30 64 66 68 62 55 49 50 49 49 44 50 68 87 84 87 90 81 90 98 71 92 100 99 94 69 69 71 63 54 46 38 23 14 9 9 9 8 6 6
82 40 18 38 65 67 70 63 57 52 60 68 52 49 60 63 83 87 97 87 97 98 73 97 100 99 86 70 75 68 59 53 48 31 19 15 12 10 8 7 6 4 4
94 49 33 64 70 69 71 66 57 60 83 58 50 70 52 99 96 97 90 99 95 85 100 99 96 71 75 73 63 52 49 38 24 19 15 12 9 8 7 5 4 6 19
69 36 54 81 76 78 73 66 71 74 54 48 47 76 81 87 100 90 99 95 98 100 100 82 72 80 68 57 54 44 30 24 19 12 9 9 9 8 4 5 11 16 14
43 50 82 79 76 70 67 99 86 56 52 44 68 98 96 84 96 90 96 100 100 91 72 81 73 62 56 52 37 28 18 12 10 10 10 9 6 5 10 15 13 11 13
84 83 76 64 76 95 96 76 60 59 58 95 97 86 93 95 85 99 100 93 72 76 76 65 56 55 43 31 23 16 13 11 10 9 7 5 10 17 14 13 11 9 12
79 78 75 97 91 74 84 69 97 90 100 100 99 97 88 100 100 92 69 69 76 70 58 59 48 34 28 20 16 14 11 10 8 6 7 17 14 12 11 11 12 15 25
100 99 98 69 75 68 80 90 99 99 97 90 86 99 99 77 62 66 72 70 57 58 55 41 32 25 19 16 13 12 9 8 6 14 16 13 18 24 28 31 30 23 33
86 64 90 98 98 99 98 100 98 91 94 99 88 61 55 57 67 70 61 60 57 46 37 30 22 19 15 12 10 9 7 6 19 12 16 27 36 42 52 52 48 40 45
85 82 100 98 98 93 92 94 94 77 48 49 47 47 68 72 62 60 58 49 40 34 27 22 16 13 12 10 8 6 7 19 12 22 33 45 56 67 74 74 70 62 70
98 99 100 100 100 98 66 48 44 44 44 51 70 73 63 58 60 53 44 38 31 24 18 14 12 10 9 8 5 10 18 13 25 35 44 49 69 90 95 90 86 81 88
100 95 79 70 52 43 39 37 39 56 71 72 68 62 63 56 47 40 34 25 19 16 15 12 11 11 7 5 15 18 14 26 32 37 53 73 95 99 100 98 87 86 87
37 41 47 48 44 41 46 61 74 77 70 65 65 60 50 42 36 28 22 20 17 15 13 12 11 6 5 17 19 13 22 28 35 52 81 99 100 100 100 100 93 87 76
68 64 57 54 58 67 77 79 72 65 66 62 51 43 38 33 27 24 20 16 15 13 11 10 5 6 20 20 13 20 26 37 59 85 99 100 100 99 98 100 95 88 71
75 71 67 71 77 80 74 67 67 65 55 46 41 37 31 26 19 16 13 11 10 11 8 5 6 23 20 14 20 27 44 63 73 82 89 84 87 100 100 92 85 76 64
75 74 79 82 77 70 70 71 60 50 42 38 33 29 23 19 15 10 9 10 11 7 5 7 26 21 16 20 30 49 59 62 65 66 68 84 94 96 98 88 75 57 59
85 88 88 79 72 74 68 54 45 42 39 32 27 24 20 16 12 9 9 10 6 6 7 28 22 18 22 32 49 54 55 57 54 74 81 56 64 81 80 61 49 47 50
98 93 80 75 75 62 51 45 45 39 34 30 26 20 15 11 10 8 7 5 6 8 30 23 20 24 35 51 54 58 54 54 86 92 43 31 33 36 37 36 39 42 44
94 79 76 76 61 51 47 48 43 39 34 29 22 15 10 7 5 4 3 6 9 34 24 23 24 37 52 53 60 57 49 81 93 96 41 25 25 26 29 32 36 51 83
78 79 80 65 55 52 52 50 46 38 32 24 13 9 6 5 3 3 6 9 33 26 29 28 38 52 52 53 67 55 48 88 98 97 98 81 45 37 44 60 75 76 80
81 85 69 60 57 58 59 54 43 34 24 12 10 6 4 2 2 4 10 32 27 29 31 35 46 51 50 48 66 57 49 70 93 97 100 98 86 83 81 76 75 89 100
88 78 67 62 64 67 61 49 36 27 14 11 8 4 2 3 4 17 31 27 28 33 34 40 50 49 50 46 58 68 54 44 80 97 92 92 84 73 65 70 85 100 100
88 74 68 71 72 65 52 37 30 19 15 13 6 4 4 10 28 30 29 28 30 41 36 43 47 44 44 45 45 69 66 56 45 77 97 96 94 78 68 80 99 100 100
86 77 76 74 70 57 46 35 24 20 16 12 8 20 25 27 29 32 35 40 49 55 41 43 45 45 40 41 42 45 72 68 61 47 64 95 100 92 79 90 100 100 99

GFSGL_500_rhum_054.txt.gz
RH
61 50 34 27 15 16 54 41 64 65 65 69 80 81 74 49 45 44 47 100 50 63 69 66 100 93 86 74 92 71 77 86 81 81 62 49 50 50 46 41 33 23 16
60 74 58 45 24 31 54 52 64 80 77 75 82 76 52 51 49 56 43 47 48 59 71 97 96 86 77 90 84 82 90 94 81 52 50 51 47 42 35 24 17 13 13
28 30 46 55 56 53 55 77 66 76 78 77 73 55 51 48 48 49 46 43 53 70 79 99 91 85 92 84 92 92 92 70 64 55 50 44 39 28 21 17 14 12 8
41 34 19 48 62 68 53 69 59 73 78 66 60 54 58 58 57 52 42 54 94 97 98 81 85 93 94 97 99 82 67 66 62 51 43 32 25 19 15 10 6 5 6
85 56 28 68 76 54 32 44 74 83 69 66 61 53 71 65 51 47 46 96 100 97 87 88 92 98 100 88 64 66 64 55 47 35 28 21 16 13 10 7 6 6 5
56 58 49 52 55 28 21 31 81 71 70 68 54 99 97 52 53 57 100 97 86 94 96 84 93 95 62 65 66 60 51 42 32 25 18 14 11 8 7 7 6 6 15
84 88 58 50 32 26 42 70 72 68 69 68 98 73 56 53 100 96 95 95 98 92 92 94 64 64 67 65 55 49 37 29 22 18 13 11 9 8 6 6 13 14 14
93 98 66 37 29 60 74 75 87 88 85 93 58 51 62 100 96 96 100 96 95 91 64 62 67 70 59 54 43 33 25 20 14 14 10 9 7 5 11 14 16 17 19
78 70 46 58 84 83 82 98 91 99 82 83 68 72 96 100 97 99 88 88 62 63 67 70 58 54 48 38 29 20 16 15 12 10 8 5 8 15 15 22 25 31 40
86 88 89 93 100 99 98 97 95 96 100 100 99 99 98 90 80 74 53 55 61 71 58 56 50 39 32 22 18 16 14 12 10 6 5 15 15 22 32 38 46 53 65
100 98 99 98 99 93 91 99 99 93 97 98 98 96 87 50 49 52 60 66 58 61 55 44 35 25 22 19 17 15 12 9 5 8 18 15 29 33 36 47 64 80 89
94 95 99 98 94 93 93 98 98 99 97 83 54 56 51 50 65 65 57 56 51 42 35 27 23 18 15 14 11 9 6 4 13 17 17 26 30 37 52 78 100 100 100
94 98 98 94 95 100 97 83 59 59 64 57 44 54 67 63 57 56 51 42 36 30 24 18 14 12 10 9 8 4 5 17 15 17 24 33 50 74 100 100 100 100 100
94 95 98 93 77 62 55 54 45 42 54 65 69 62 58 57 50 41 36 32 26 21 18 16 13 11 9 6 4 8 21 13 17 28 44 57 64 64 76 86 89 90 91
44 47 54 64 61 52 55 60 63 66 65 62 60 59 49 40 35 31 27 23 20 18 15 12 10 8 4 5 15 19 15 24 37 47 49 45 54 67 75 70 73 88 89
75 75 75 72 66 62 62 64 66 64 64 62 50 41 37 34 30 26 24 21 17 14 13 10 6 4 7 23 16 20 30 42 44 38 52 55 31 27 40 66 70 69 68
80 82 76 71 69 70 72 67 67 67 56 43 41 39 35 32 28 25 16 11 10 11 7 3 4 11 26 16 25 36 45 40 38 64 59 21 21 24 27 33 41 46 52
84 80 77 75 78 74 69 67 58 47 42 43 41 40 35 29 20 12 9 6 5 4 3 6 17 23 18 30 39 44 39 41 64 76 52 22 23 24 28 32 37 43 49
83 83 81 82 78 73 70 57 48 48 49 47 46 38 29 18 12 7 5 4 2 3 7 25 21 22 36 44 44 41 38 61 75 80 83 45 25 28 35 44 55 68 82
84 86 89 80 75 75 60 51 51 54 54 50 41 29 17 8 5 4 4 2 3 8 30 21 24 42 50 46 47 45 40 67 80 87 90 87 73 64 66 69 75 87 99
87 88 77 76 79 70 57 56 59 59 54 42 29 17 7 6 4 5 3 4 13 28 23 24 37 50 45 44 55 54 41 55 84 90 92 82 76 76 69 74 91 99 99
87 76 77 81 81 66 62 64 63 57 47 32 19 13 7 5 7 5 6 21 25 25 25 30 42 47 46 40 50 64 52 44 61 93 94 76 70 73 75 88 97 94 99
73 78 84 87 78 70 70 67 61 54 37 23 16 10 7 9 11 13 23 25 26 26 24 32 37 39 42 40 39 58 64 53 45 64 92 99 76 60 75 96 92 98 100
79 87 90 92 80 76 71 65 61 49 29 20 15 9 8 18 16 20 22 26 32 37 28 30 33 34 34 36 38 40 58 58 46 42 66 83 80 79 84 96 99 100 100
91 90 96 93 85 77 70 66 56 41 25 18 12 8 16 22 18 20 25 31 40 49 45 31 33 35 38 36 36 39 38 54 54 45 40 58 85 90 87 98 100 100 100
91 90 94 96 85 76 70 60 49 32 24 16 11 7 21 21 22 24 30 35 42 52 55 49 41 41 48 47 37 36 38 38 52 56 48 40 56 80 84 91 100 98 100

GFSGL_500_rhum_057.txt.gz
RH
34 31 29 36 41 31 21 17 15 14 31 60 65 56 71 76 83 82 85 96 95 52 45 46 98 78 52 79 79 88 100 92 79 84 76 80 81 71 57 53 52 45 39
41 38 35 37 42 50 43 28 22 25 70 27 74 65 73 75 76 78 89 90 53 48 89 48 44 76 89 99 96 98 90 92 81 75 78 75 54 55 56 50 42 36 27
53 58 54 52 51 54 71 53 42 34 68 81 84 74 70 75 77 76 81 54 53 59 66 52 75 97 87 96 100 98 98 93 89 77 60 58 62 55 47 40 30 23 18
100 100 94 81 68 59 84 84 62 31 64 81 80 81 89 88 81 77 57 62 66 70 69 58 84 100 100 100 98 99 95 91 67 65 64 60 52 43 32 25 18 14 11
100 100 95 66 60 47 82 94 91 61 60 82 86 91 93 84 75 63 66 87 91 99 96 54 100 100 100 100 99 97 69 65 67 64 54 47 37 28 19 14 12 10 9
78 100 100 98 66 60 59 73 97 86 63 56 66 68 92 75 69 71 99 99 59 55 65 100 98 98 99 98 79 64 63 64 56 50 38 27 18 16 14 12 9 7 5
57 62 73 99 90 61 48 62 66 58 36 35 54 76 77 75 95 96 89 96 99 99 99 98 99 99 77 63 62 64 57 52 38 27 21 19 15 12 8 6 4 4 7
88 95 61 59 62 54 40 39 30 32 45 62 89 84 98 99 92 89 98 99 98 100 100 90 75 54 60 63 56 52 38 30 24 23 19 14 10 9 6 4 6 13 15
90 96 97 82 58 58 34 48 56 85 87 93 92 99 99 89 100 99 100 96 100 90 75 55 60 61 55 53 38 31 27 23 19 14 12 10 7 4 6 14 16 20 25
93 97 74 60 45 34 40 99 98 90 99 99 100 98 98 99 98 98 99 92 82 67 67 58 49 45 36 32 29 25 21 18 15 12 7 4 6 15 16 18 24 31 44
67 66 68 57 85 95 97 96 100 99 99 100 100 98 100 99 90 64 56 62 65 58 51 41 33 32 29 25 23 20 17 14 12 6 5 15 16 16 29 44 53 48 48
97 95 96 99 99 99 98 98 95 92 98 95 96 87 85 79 56 57 58 53 44 34 31 30 27 26 24 21 17 14 11 7 4 11 17 16 26 42 45 39 41 38 38
94 94 96 99 97 100 100 96 85 75 68 62 54 55 60 59 55 51 39 31 31 31 29 28 26 20 14 10 8 5 3 8 18 17 26 34 35 42 31 17 18 23 48
82 90 93 85 68 60 60 61 56 53 57 64 64 57 54 48 38 33 34 34 32 28 24 17 11 8 6 4 3 5 17 17 21 31 32 40 49 18 17 16 21 25 34
64 76 78 75 72 71 70 66 63 62 61 59 56 48 38 33 35 36 36 32 23 15 6 4 4 5 4 3 12 19 18 29 32 30 45 59 22 18 18 20 28 36 43
80 81 81 79 78 76 71 66 64 62 58 48 38 34 37 40 40 36 27 15 9 5 4 4 5 3 6 20 19 26 34 35 33 51 58 64 39 28 31 39 49 57 69
81 80 80 79 76 71 69 70 62 54 43 41 43 44 44 39 32 18 9 6 5 4 5 4 3 14 20 27 36 38 39 36 51 62 70 68 64 55 54 59 65 74 89
80 74 78 81 78 76 69 64 60 50 46 46 46 45 40 31 18 9 6 4 4 6 3 7 22 20 32 38 38 43 44 40 61 72 77 73 64 59 60 64 79 92 100
77 78 80 79 77 70 69 70 59 52 50 51 49 43 35 18 10 7 5 6 8 5 13 21 18 29 38 38 40 44 53 43 52 76 80 66 61 61 63 75 96 99 100
79 81 79 77 69 67 69 67 59 58 56 52 48 43 22 14 8 6 6 10 10 15 21 18 22 33 40 38 34 39 54 55 44 58 80 80 65 54 65 84 98 100 100
85 80 76 66 67 68 71 68 65 63 59 53 48 36 22 13 8 6 12 11 13 20 23 17 24 33 38 38 36 33 42 58 53 42 58 83 82 73 82 99 100 100 98
82 74 66 65 67 70 74 74 72 66 60 53 46 33 20 11 8 8 15 12 17 29 24 20 24 25 29 32 34 34 35 48 61 51 43 55 80 82 88 94 98 98 100
71 65 68 72 73 76 80 79 75 68 60 52 42 21 16 11 7 19 19 17 23 32 40 36 25 27 29 31 32 33 34 36 50 60 53 41 54 79 77 87 95 100 100
66 71 77 78 78 80 84 84 77 68 60 48 26 18 14 10 7 24 24 24 27 35 43 46 39 30 30 32 39 35 33 34 37 48 56 47 38 61 74 82 94 100 100
75 83 85 84 81 84 87 87 77 70 60 39 22 17 14 9 9 25 27 29 32 37 44 47 47 48 49 50 50 47 43 36 33 36 45 52 37 37 62 74 91 98 100
87 88 86 84 85 88 90 88 80 71 56 31 22 16 12 7 11 28 31 33 35 39 47 49 46 49 56 57 58 56 54 47 35 33 40 45 44 32 43 66 85 91 100

GFSGL_500_rhum_060.txt.gz
RH
26 30 32 33 34 34 34 36 37 27 18 16 17 25 43 68 86 75 94 90 89 91 85 93 91 98 83 57 68 98 58 93 93 91 96 100 98 90 91 84 66 61 62
18 13 15 17 23 43 43 39 34 37 49 35 23 18 18 53 55 75 91 82 69 77 87 79 100 93 59 91 99 52 60 86 94 95 94 85 87 91 72 68 67 66 56
24 21 20 20 19 19 18 28 32 34 38 59 47 28 18 22 45 44 57 80 83 83 88 96 95 96 72 85 97 67 66 96 99 91 88 86 76 75 70 65 56 47 34
27 32 40 66 67 54 69 92 79 63 53 58 74 43 43 42 73 91 98 81 90 97 98 94 65 96 84 97 98 94 89 100 100 93 81 69 71 65 56 47 34 26 22
33 58 67 71 78 100 100 100 100 89 83 77 88 75 57 47 89 92 82 98 96 100 95 77 93 99 100 99 99 100 99 99 97 76 72 65 54 44 32 27 24 20 16
62 43 68 82 88 100 100 81 91 90 85 100 99 92 52 70 87 68 67 82 96 94 92 99 98 97 100 100 97 97 74 73 74 64 52 40 31 29 25 20 18 16 12
86 54 70 85 98 100 96 90 85 94 99 100 98 94 72 66 69 68 82 91 98 99 99 100 100 99 98 96 93 90 86 69 49 34 30 30 25 21 19 15 11 7 5
77 89 56 76 100 97 96 86 72 100 98 96 93 88 67 100 73 100 99 95 98 99 100 100 98 92 91 87 78 62 44 32 31 28 25 23 18 12 8 6 4 6 14
62 83 49 52 65 83 100 73 70 78 79 85 35 92 81 94 100 96 98 99 99 99 97 96 84 86 70 49 34 28 28 28 27 23 15 10 8 5 4 8 14 14 17
32 35 68 63 61 78 84 86 98 92 91 98 99 96 99 99 99 99 100 99 97 86 67 60 50 36 30 29 29 28 21 10 6 8 8 5 4 9 15 14 18 22 14
64 96 67 50 46 59 67 88 99 100 99 99 99 98 98 99 98 97 91 71 65 60 45 31 28 28 28 23 13 7 5 6 7 6 4 9 17 18 20 32 24 12 14
69 78 87 97 100 99 99 98 98 98 99 97 90 82 72 65 61 62 61 54 40 29 28 28 27 18 10 8 6 5 5 5 4 8 17 20 26 27 42 26 16 26 40
78 83 91 91 89 87 85 77 72 68 64 61 60 63 65 61 57 48 33 28 28 29 26 16 9 7 5 4 5 4 4 11 18 25 32 31 30 48 47 26 35 46 52
64 68 71 73 72 70 67 67 69 70 71 70 65 62 56 44 33 30 32 32 29 20 10 7 6 4 5 5 3 11 19 25 34 34 33 46 54 54 50 41 45 48 57
78 79 81 82 80 78 76 74 72 72 68 64 57 44 36 35 37 37 33 27 16 8 7 5 4 7 5 9 18 24 30 33 34 37 53 57 63 62 53 43 45 58 72
80 80 76 76 77 79 80 80 77 69 63 56 44 41 40 42 40 33 26 17 10 6 4 4 9 8 15 17 25 30 33 35 39 50 59 67 66 54 50 48 55 75 88
81 78 78 79 80 80 81 77 67 64 60 50 48 47 47 43 36 27 18 10 4 4 5 10 11 15 15 22 32 34 36 43 42 42 63 73 68 50 52 58 65 82 91
86 79 76 78 80 79 72 67 65 64 58 55 55 52 45 38 32 20 11 4 5 5 12 14 16 18 21 26 32 31 30 37 45 39 42 65 73 62 53 58 76 86 89
90 85 86 83 78 72 67 66 63 65 64 62 60 52 41 35 25 12 7 6 5 10 13 20 18 20 21 25 30 32 31 29 38 50 43 41 64 69 68 71 81 87 90
96 94 89 82 75 66 65 63 64 69 69 69 62 53 42 36 23 11 8 6 6 13 13 26 18 20 20 19 21 24 28 30 29 38 51 43 42 64 74 79 86 97 98
96 98 87 76 66 65 66 64 67 71 74 70 62 53 42 35 23 12 9 6 9 18 19 31 35 24 23 22 21 22 25 29 30 32 41 49 42 43 66 76 88 92 97
100 93 80 66 67 72 72 71 70 72 75 70 62 53 44 32 22 14 11 6 15 25 25 32 41 44 36 28 28 28 34 33 33 34 36 43 47 38 45 63 72 86 92
90 86 67 69 77 79 77 74 73 77 77 72 65 56 45 27 19 14 12 6 18 30 31 34 43 46 48 47 48 50 49 43 39 36 34 36 43 42 34 50 68 86 93
88 72 71 79 83 81 78 77 76 79 81 77 68 56 46 27 19 14 10 6 19 32 35 38 42 50 48 47 53 54 53 53 47 44 36 32 33 37 33 36 54 73 78
74 75 83 86 87 84 82 81 79 78 80 76 66 56 42 27 18 13 8 6 24 34 36 40 44 54 56 58 54 51 50 48 46 43 41 31 29 33 34 29 38 58 73
82 89 91 87 86 85 83 83 83 82 82 77 68 57 39 26 16 11 7 7 28 37 38 40 52 60 61 53 50 52 55 52 46 41 41 34 27 28 30 27 26 42 67

GFSGL_500_rhum_063.txt.gz
RH
22 22 22 22 25 30 33 34 34 31 32 31 32 34 30 22 21 23 37 55 71 84 89 91 92 99 95 84 79 89 90 98 98 99 100 96 73 69 86 90 94 93 83
30 29 25 20 20 18 18 24 31 48 53 48 42 39 38 48 49 36 23 19 20 50 70 87 99 98 80 82 81 85 92 98 75 70 87 96 99 93 96 99 95 83 69
16 16 19 22 26 25 19 20 24 23 21 20 39 50 43 48 64 66 41 23 19 28 51 61 73 70 98 82 98 99 94 81 95 100 95 99 100 100 100 96 78 69 57
17 22 19 20 38 28 27 38 44 55 51 29 27 43 53 51 54 72 58 34 29 51 66 91 96 90 98 99 98 89 100 97 99 98 96 100 100 96 86 71 54 42 35
14 24 38 40 33 34 45 48 60 71 68 73 82 100 97 77 93 100 65 59 55 92 89 100 99 94 87 72 80 87 98 98 99 96 99 94 90 79 53 34 29 26 25
20 33 35 22 46 58 47 62 94 96 100 100 99 90 87 100 100 98 77 50 89 84 69 87 99 91 97 98 98 99 99 97 96 93 77 54 37 30 29 26 21 14 8
19 18 18 33 49 68 71 96 99 100 100 100 99 100 95 92 96 91 74 72 96 94 100 86 83 80 97 98 100 99 93 85 66 39 30 29 25 18 13 8 8 8 6
19 16 27 46 58 66 89 100 100 100 100 100 99 100 100 100 100 94 89 100 100 76 92 99 98 98 98 97 90 46 36 33 29 25 19 13 9 7 6 6 5 4 10
27 24 26 47 57 74 86 79 76 85 94 71 74 92 94 81 100 100 100 99 92 100 95 99 99 91 67 44 30 28 20 12 8 6 4 4 4 4 4 4 10 13 13
45 32 33 30 35 39 40 61 97 98 58 98 97 74 97 99 100 99 99 99 98 96 97 78 47 33 30 26 17 10 8 5 4 4 5 4 4 7 14 14 11 20 28
54 48 55 67 82 89 92 96 100 98 100 99 100 100 100 100 100 92 76 64 57 48 36 30 30 26 15 10 7 4 4 4 6 5 5 14 16 16 14 18 33 41 32
60 69 69 76 77 84 90 93 97 96 94 84 74 68 65 64 62 58 50 41 35 34 33 29 17 11 9 6 4 4 5 7 9 16 16 18 20 24 39 48 45 46 36
64 66 68 70 71 70 70 68 66 67 66 66 67 63 58 55 47 38 35 36 35 30 25 13 10 8 6 4 5 7 10 14 17 19 24 31 43 48 49 55 46 42 42
71 71 70 71 72 74 72 72 72 70 69 66 62 59 51 41 39 40 39 35 29 22 13 10 8 6 4 7 9 11 12 20 23 27 36 52 56 57 49 44 44 47 56
79 74 72 68 71 77 82 81 78 75 69 66 64 54 47 46 45 43 38 32 21 17 10 8 5 4 9 13 12 14 20 24 27 31 36 45 59 63 52 44 44 50 58
81 77 73 71 73 74 73 73 72 68 66 66 62 53 50 49 48 41 34 25 20 15 8 6 5 8 16 15 12 15 21 26 27 27 34 37 44 62 66 55 52 61 72
90 85 80 74 74 73 72 69 66 64 59 59 59 58 58 56 49 40 33 26 21 10 8 5 6 13 19 17 17 20 21 25 27 25 26 36 37 47 59 60 56 64 79
94 87 87 81 77 74 70 63 61 59 57 60 63 63 65 62 52 40 34 28 21 12 6 6 9 14 22 19 20 19 18 17 18 24 24 27 35 37 46 57 61 71 82
92 94 88 82 80 78 67 62 62 64 62 60 64 69 68 63 52 42 36 27 17 11 8 7 14 18 28 28 22 21 21 21 21 21 23 23 28 33 35 44 56 65 72
97 95 86 88 87 76 64 66 71 70 66 65 68 71 69 62 52 44 38 23 14 12 8 8 22 24 32 38 42 34 26 26 28 28 25 24 24 31 35 34 44 59 74
94 90 91 91 88 69 68 73 77 76 73 70 70 73 74 66 54 47 37 23 15 9 7 9 28 29 33 42 44 42 42 40 41 40 38 35 26 28 34 33 33 45 64
96 95 94 88 78 69 75 80 80 77 76 75 73 73 74 67 56 50 34 24 16 11 8 11 30 34 36 43 47 45 45 50 48 46 45 43 37 29 28 32 33 33 49
98 97 93 85 73 76 84 84 83 80 77 75 76 75 73 68 61 52 35 25 18 13 8 12 31 36 40 43 51 54 56 53 50 46 42 40 41 34 27 29 27 26 33
99 96 89 77 78 88 89 88 86 79 72 72 76 78 76 68 63 54 35 26 18 12 6 14 34 36 41 47 57 56 50 53 53 48 41 38 38 37 23 24 24 24 23
99 94 83 85 92 95 92 87 80 71 67 70 74 77 76 72 67 53 36 24 16 13 7 18 38 38 42 56 59 52 57 64 44 37 40 39 35 32 22 22 22 21 20
98 94 96 98 98 94 88 81 74 67 65 68 71 75 77 72 62 52 34 22 16 12 7 25 40 42 50 65 61 58 65 66 57 43 41 39 34 34 23 22 19 18 18

GFSGL_500_rhum_066.txt.gz
RH
12 14 16 18 20 22 25 30 37 41 43 45 44 38 38 42 47 52 50 38 29 30 31 50 61 82 96 63 74 86 96 95 94 97 99 100 98 97 99 97 99 90 93
16 20 15 15 15 17 19 19 20 22 23 22 23 24 29 34 40 55 55 55 62 53 42 36 23 25 25 36 51 62 64 67 96 100 99 95 100 95 95 99 98 100 96
17 13 12 13 14 16 26 28 29 33 38 34 29 25 26 28 28 38 65 71 64 67 70 54 30 22 25 26 60 88 96 99 99 99 98 95 93 96 99 96 100 99 91
14 13 12 9 11 19 24 20 21 25 28 25 28 39 45 44 44 37 53 98 92 89 91 56 31 26 46 95 100 100 96 100 99 97 88 95 100 100 100 100 96 82 61
15 13 10 6 9 12 16 25 39 36 33 37 53 56 69 83 67 55 46 80 93 100 95 45 49 63 99 100 100 100 97 97 94 96 99 100 100 89 54 37 31 26 19
15 15 10 8 12 18 26 41 53 59 52 52 82 75 86 80 100 100 100 100 100 99 92 62 75 100 96 97 100 99 100 92 100 99 88 55 34 24 20 12 8 6 5
16 15 16 13 12 18 28 51 56 68 89 98 98 96 97 100 100 100 100 100 96 91 82 92 100 100 100 99 99 99 97 85 60 50 28 16 9 6 5 4 4 4 5
21 22 22 23 22 26 30 36 41 55 63 88 95 97 99 100 100 100 99 100 100 100 100 100 100 98 92 99 96 61 34 26 17 11 7 5 4 4 4 5 6 5 5
27 27 27 32 36 34 36 40 55 56 66 95 96 97 100 100 99 100 100 100 99 98 100 99 100 96 68 35 30 23 16 10 7 5 4 4 4 5 6 6 9 12 12
36 36 35 38 45 49 52 60 64 66 68 83 99 98 66 80 86 99 100 100 98 89 71 50 37 31 29 23 16 11 8 4 3 4 5 6 8 8 8 9 10 16 29
47 46 39 49 51 56 65 73 76 80 85 91 90 91 93 92 90 84 72 63 54 41 32 30 30 27 18 13 10 7 5 4 4 7 8 8 7 9 18 29 37 37 34
58 56 59 59 59 62 66 68 68 68 70 70 69 69 68 64 58 50 42 36 33 35 34 30 24 16 11 9 6 6 4 5 9 9 10 12 15 31 41 42 40 35 27
67 65 63 62 61 60 58 56 57 61 62 64 64 62 58 53 44 40 39 41 41 38 32 24 19 11 11 8 6 5 6 12 11 12 16 21 23 32 45 51 48 40 36
63 62 60 63 59 56 54 55 59 63 65 63 58 57 55 49 47 46 46 45 40 33 28 21 20 12 9 7 5 6 13 12 13 16 21 24 25 28 33 51 56 52 50
69 68 67 64 58 56 59 62 64 63 60 56 55 57 56 53 54 54 52 48 40 35 31 26 22 13 8 8 6 13 17 16 17 17 18 22 23 25 29 35 52 57 55
84 83 76 67 64 64 64 64 61 56 54 51 50 54 60 59 58 58 56 50 43 37 32 27 18 10 8 7 7 18 21 19 18 17 16 16 20 23 27 32 34 49 58
85 86 81 75 72 69 68 66 60 54 52 55 56 58 60 61 62 61 57 52 46 40 34 20 14 8 8 7 12 20 26 24 21 20 18 18 20 22 23 29 33 35 46
89 85 82 86 78 74 76 70 58 58 60 61 62 62 62 60 59 60 61 57 49 44 36 21 14 11 8 9 19 25 31 34 35 29 25 27 29 28 26 25 30 30 35
92 90 89 86 79 79 81 73 61 63 68 69 66 64 63 62 64 66 68 65 55 49 34 22 16 12 7 12 27 29 36 37 36 35 36 40 40 38 34 26 26 30 30
99 96 91 92 84 83 81 72 64 69 73 72 71 67 65 67 68 68 73 69 58 51 35 24 18 13 7 16 30 34 38 42 40 40 46 45 42 39 38 32 25 27 28
97 96 96 94 89 87 83 71 68 75 78 76 73 70 66 66 69 73 73 66 61 53 36 25 17 15 8 17 31 38 40 46 47 49 48 47 44 43 38 36 28 25 25
97 99 97 98 95 90 83 73 76 83 82 78 72 64 62 66 71 73 71 68 62 54 38 25 18 15 8 18 32 40 42 52 54 50 58 47 41 42 38 35 32 24 25
97 99 100 99 98 94 81 79 88 90 83 77 68 59 57 61 67 68 69 65 61 55 38 26 21 15 8 24 35 40 46 60 52 58 62 47 40 40 39 35 32 27 24
99 100 100 100 100 92 85 91 96 90 83 75 67 60 60 64 65 67 69 67 63 59 42 29 22 12 9 31 38 41 55 61 55 61 66 59 45 43 44 41 34 24 21
95 99 100 100 99 94 98 100 96 89 81 75 73 72 70 69 68 69 66 65 66 61 41 26 17 9 16 43 44 51 68 62 62 67 74 68 57 46 42 38 29 23 20
100 100 100 100 100 100 98 96 92 89 82 76 79 83 80 72 63 64 67 68 68 53 33 19 10 14 40 50 54 73 77 69 64 66 74 65 59 55 44 35 30 23 19

GFSGL_500_rhum_069.txt.gz
RH
10 8 9 10 12 13 10 9 8 9 10 14 18 22 24 30 46 64 63 55 50 53 62 62 56 46 41 59 85 73 74 74 77 97 43 54 65 64 72 78 95 98 96
8 10 11 15 11 10 10 6 6 6 9 13 28 37 38 41 38 34 31 41 59 69 71 68 63 66 62 48 41 88 60 35 38 45 40 82 100 94 100 99 99 98 91
10 12 16 14 12 8 6 6 8 12 17 24 24 22 26 24 29 38 36 35 36 38 56 72 75 72 73 72 58 49 43 31 26 40 94 97 96 100 99 99 97 95 100
13 15 17 13 10 7 7 7 9 11 19 27 29 32 39 49 50 50 58 67 68 44 40 51 62 78 79 82 74 68 37 28 53 85 99 100 100 98 100 100 98 91 76
16 20 14 11 9 9 10 11 16 14 14 32 42 46 46 38 48 69 87 77 91 79 51 54 60 73 91 98 75 39 49 76 100 100 100 100 98 97 81 48 32 18 7
22 18 15 12 9 9 13 13 14 11 14 25 30 42 46 50 41 42 52 66 68 71 77 100 100 100 100 99 77 69 96 100 100 99 98 92 44 12 6 5 4 4 4
16 18 17 14 12 14 15 18 21 27 34 38 43 47 51 56 68 80 90 94 99 99 100 100 100 100 100 91 100 100 100 98 78 37 16 9 6 5 5 4 4 4 4
24 20 21 20 16 18 26 25 26 31 40 45 49 62 65 54 58 71 97 100 99 100 100 100 99 100 100 100 98 88 39 22 12 11 7 5 5 4 4 5 6 6 6
24 25 25 24 23 24 27 30 34 41 39 47 57 53 54 65 76 87 95 98 100 100 100 100 99 96 73 39 32 25 15 12 9 7 6 6 5 5 8 7 6 9 19
32 34 30 31 31 34 36 47 52 58 56 58 62 62 68 74 84 91 97 100 98 91 82 63 42 35 33 28 21 14 11 11 9 7 7 5 6 8 8 8 12 30 33
39 42 42 38 42 51 50 52 54 55 59 59 58 59 60 62 62 62 61 53 42 36 37 38 36 32 27 22 18 11 11 11 10 8 5 7 10 8 8 14 18 34 38
39 42 51 56 58 53 52 52 50 47 46 51 55 57 57 54 53 48 42 37 37 40 41 38 33 31 26 23 21 15 10 12 9 5 6 11 10 11 12 18 21 25 38
49 56 64 64 61 56 52 49 45 44 48 52 51 45 41 43 44 42 44 45 47 46 43 38 35 33 31 28 23 14 10 8 5 6 13 16 16 15 14 15 18 22 27
59 64 67 62 58 56 50 46 47 49 48 42 40 37 38 40 41 42 43 44 44 44 42 41 39 36 34 29 18 11 9 6 7 12 20 20 18 18 18 16 16 20 26
65 69 64 61 63 58 54 52 51 48 44 43 41 42 45 46 47 46 46 46 46 47 49 49 44 41 37 26 20 14 9 7 9 21 26 26 24 22 20 18 17 22 23
67 70 75 74 73 63 62 58 57 55 45 45 47 49 51 53 52 50 49 50 52 54 54 54 48 44 39 25 19 13 10 8 16 28 33 37 37 32 31 30 25 24 23
73 80 76 80 75 77 73 64 64 62 50 51 54 55 56 55 54 54 56 56 58 59 61 59 54 49 38 27 21 15 9 11 24 29 36 38 37 38 38 40 37 32 29
78 79 87 88 90 83 77 71 69 67 57 56 60 62 62 60 59 58 57 57 58 60 63 60 58 52 38 27 19 16 9 12 28 33 37 42 40 44 46 43 39 34 31
82 86 94 92 92 92 88 82 78 74 64 61 66 68 68 67 63 57 53 54 58 61 61 62 60 56 41 28 21 20 10 13 29 36 38 46 51 49 47 43 40 38 32
96 97 96 95 97 96 95 92 88 82 71 67 72 73 71 68 60 54 50 50 53 56 62 63 59 59 46 35 26 20 10 14 31 38 42 54 53 57 48 36 35 34 33
100 100 100 92 93 97 99 98 94 89 74 74 80 78 74 67 60 54 49 53 56 59 63 63 62 64 55 40 27 16 10 18 34 40 48 58 59 61 56 42 39 36 32
100 100 98 97 84 86 98 98 98 90 78 82 85 82 76 69 65 61 58 57 56 58 61 63 64 66 51 33 18 11 12 35 37 43 62 62 60 67 66 55 44 40 38
100 100 100 100 88 87 97 97 99 92 88 86 84 82 76 71 71 72 73 68 58 56 62 66 66 60 39 18 12 15 27 45 41 48 73 72 76 75 72 64 51 42 41
100 100 100 100 91 89 96 99 98 93 90 84 81 80 77 72 75 85 88 82 75 73 77 73 66 46 20 14 21 24 47 49 55 76 78 79 76 76 70 66 61 52 40
100 100 100 99 96 91 93 100 97 92 86 81 79 80 79 77 81 88 87 86 86 81 74 70 55 22 13 24 29 37 56 58 74 86 83 81 79 81 69 62 60 54 43
100 100 100 100 95 95 100 100 96 88 84 82 84 84 84 84 82 84 90 93 90 83 71 69 34 13 20 29 31 51 61 72 88 87 82 77 74 78 65 58 58 55 41

GFSGL_500_rhum_072.txt.gz
RH
12 12 12 11 10 9 9 11 14 8 6 5 5 8 10 14 17 19 21 19 21 27 43 41 81 86 79 85 86 86 81 64 60 53 98 98 99 98 98 87 41 41 62
13 12 11 10 8 10 12 13 8 6 5 7 9 8 8 14 16 23 25 41 42 36 33 44 64 100 100 100 91 81 80 77 71 62 59 100 99 96 52 31 33 94 99
12 10 8 9 10 11 14 9 7 5 5 6 7 7 8 14 24 23 22 25 45 64 65 64 65 66 82 90 99 99 93 91 82 100 90 68 67 54 29 49 87 100 100
9 9 9 10 11 14 13 8 8 6 8 7 6 8 15 18 19 21 34 35 29 46 83 78 96 79 59 40 36 51 59 76 85 95 94 76 47 38 70 96 100 97 90
10 10 11 12 15 16 12 8 8 9 10 12 15 18 21 24 25 25 31 47 50 47 41 54 84 83 63 47 99 92 92 100 100 100 92 80 91 100 97 70 28 6 5
14 15 14 15 19 15 12 10 11 9 14 20 18 17 27 27 32 32 32 45 47 58 76 56 57 71 96 100 80 85 100 100 100 100 100 99 92 47 15 6 6 7 6
20 18 20 23 20 17 15 12 12 15 19 24 27 24 24 28 34 38 46 47 52 58 66 86 94 95 100 100 98 100 100 100 98 68 21 14 9 7 8 9 8 7 5
26 24 24 21 20 20 19 17 18 16 26 29 29 33 40 46 47 48 49 53 57 60 68 80 95 100 100 100 97 91 74 42 21 14 11 10 11 11 10 8 7 6 7
32 29 26 22 24 25 24 24 25 28 35 41 44 48 50 50 47 52 55 62 72 80 83 84 79 74 64 48 40 30 23 18 12 10 10 10 12 10 8 7 7 8 9
36 32 29 32 35 29 32 33 35 38 40 44 44 42 41 44 47 46 45 44 42 38 37 38 41 41 39 35 31 27 23 23 18 16 10 10 11 8 6 8 11 12 11
39 34 37 41 42 41 39 44 45 44 47 40 36 35 40 40 33 30 33 37 38 38 40 42 43 40 36 33 32 31 30 29 22 11 9 10 10 7 8 13 16 14 14
40 39 39 41 45 52 52 51 50 48 42 37 37 36 34 32 30 32 35 37 38 37 38 39 39 39 41 41 40 38 35 27 20 16 13 11 8 7 13 20 20 19 18
45 44 50 54 57 59 56 54 52 45 40 40 37 32 33 33 36 38 38 38 39 39 40 40 42 43 46 48 45 42 40 30 21 17 13 11 8 10 19 26 27 26 22
47 54 65 67 65 63 58 56 50 47 46 44 37 35 36 40 44 46 44 44 44 43 43 44 46 50 53 55 51 47 40 28 24 20 12 9 10 15 23 27 28 28 31
57 60 66 71 71 66 67 61 55 53 52 52 43 41 46 47 47 48 47 47 46 46 45 47 50 52 54 54 54 52 43 32 23 18 13 10 12 23 29 32 29 32 37
56 58 71 74 71 73 80 74 72 61 58 57 54 48 50 54 54 52 51 51 50 47 44 44 45 48 52 54 56 55 43 34 24 24 20 12 18 30 35 39 35 39 44
53 64 76 79 80 88 95 90 77 72 69 66 63 58 56 57 58 59 58 55 51 47 44 41 41 47 53 57 57 57 53 46 33 27 17 12 20 33 39 46 51 48 45
75 72 74 79 85 96 94 88 84 83 80 78 73 66 62 63 65 64 62 57 53 48 44 42 44 50 55 55 55 58 62 55 35 22 12 12 26 34 45 54 57 56 45
91 90 87 84 95 95 90 90 89 89 88 82 76 72 70 72 72 69 65 61 57 54 49 45 44 45 47 51 53 57 61 48 27 13 12 14 33 37 48 58 65 64 52
85 86 90 93 96 95 86 80 77 81 84 84 84 79 78 79 77 73 69 65 63 63 61 60 54 53 59 65 63 65 50 22 13 15 18 30 40 43 58 64 67 70 61
97 92 91 97 93 93 96 92 78 72 80 84 87 84 84 84 79 75 73 68 67 67 67 68 72 72 70 63 63 47 15 11 16 27 27 47 43 54 67 67 76 71 61
97 99 99 99 99 100 97 99 86 73 79 84 90 88 87 82 77 74 73 70 70 69 71 79 80 75 66 61 50 19 10 18 24 29 51 51 54 73 78 83 76 70 66
99 97 100 100 100 100 99 98 93 85 86 90 95 92 88 81 77 75 75 76 73 71 69 79 76 76 61 55 30 14 15 21 27 41 56 57 81 86 84 80 82 72 64
100 100 98 100 100 100 93 98 98 92 88 91 98 95 86 77 74 77 79 75 67 61 59 68 78 74 64 45 22 13 19 21 34 53 55 77 94 88 85 81 80 80 69
99 100 100 100 100 100 100 100 100 97 91 100 100 96 82 76 77 78 77 71 66 61 60 63 78 72 64 34 18 16 22 23 42 51 58 77 87 84 83 82 82 77 70
100 100 100 100 100 100 100 100 100 95 99 100 100 94 86 81 81 82 79 75 75 70 68 76 85 73 60 27 14 20 26 25 37 43 47 67 76 75 70 71 74 66 61

GFSGL_500_rhum_075.txt.gz
RH
13 12 12 11 11 12 12 11 10 9 9 10 10 5 4 4 5 7 9 9 12 13 18 28 26 32 39 69 44 65 100 98 98 97 99 100 94 94 79 96 100 100 78
14 13 12 13 13 13 11 10 9 10 12 11 6 5 4 5 6 6 10 14 13 15 16 25 33 38 48 98 96 65 100 100 100 99 100 98 97 96 88 82 74 74 76
14 14 15 14 13 11 10 9 10 12 13 7 7 6 6 7 11 14 18 19 17 18 21 20 27 33 40 55 90 84 75 94 84 72 59 66 76 80 78 100 99 83 64
16 16 14 13 11 9 9 10 12 14 10 8 8 9 10 12 13 16 17 19 23 25 26 26 28 36 44 45 55 68 52 59 62 76 100 63 82 97 98 100 100 100 96
16 14 12 10 9 10 11 13 16 14 9 9 10 12 14 14 14 17 20 26 31 31 33 37 31 30 42 50 70 73 48 63 94 100 87 99 99 99 100 96 74 45 24
12 11 11 11 12 14 15 16 17 13 11 11 14 13 15 15 18 23 32 33 36 39 40 43 41 41 45 59 72 79 99 100 100 100 100 100 98 36 10 8 8 11 11
15 17 18 18 16 16 21 23 18 16 15 15 16 16 19 24 30 36 35 32 36 47 55 53 54 54 58 66 72 80 92 91 92 88 47 25 10 8 8 10 12 13 15
26 25 23 21 22 22 21 20 22 22 20 24 22 25 32 34 35 32 31 32 36 36 33 34 33 32 31 32 36 34 32 29 26 23 20 17 11 10 12 11 11 16 15
32 28 27 29 28 28 25 26 28 28 33 30 31 35 37 32 28 30 31 27 25 24 26 25 25 27 29 31 32 33 33 32 28 25 25 27 25 18 10 9 12 11 7
32 32 37 34 33 32 32 36 35 38 38 38 41 40 33 31 30 28 26 25 26 26 27 28 28 29 32 33 35 37 38 39 38 36 35 28 17 13 13 12 13 10 8
40 47 45 36 34 38 42 43 43 45 46 46 43 37 32 34 30 28 28 32 32 32 34 34 34 35 37 39 42 45 48 49 45 42 41 31 22 18 15 12 12 11 10
44 47 43 40 40 44 47 55 56 54 49 48 42 37 36 30 30 31 34 38 38 38 38 38 38 38 38 38 40 44 47 51 52 49 42 29 25 22 15 12 12 12 14
52 52 48 49 51 56 65 64 56 54 53 47 43 42 41 34 34 37 38 40 41 41 39 39 38 37 37 36 37 40 47 51 52 52 44 37 26 22 20 17 14 14 19
56 54 54 57 64 72 68 65 61 60 55 52 48 47 48 42 40 42 44 46 46 46 44 42 40 39 37 35 34 38 43 46 50 51 52 43 40 29 27 17 12 16 28
54 58 63 67 67 68 71 72 73 70 66 64 56 54 54 53 49 49 51 53 54 50 46 44 42 40 38 37 36 39 43 42 44 48 54 59 55 39 26 17 12 20 32
68 67 64 64 66 71 76 78 81 84 80 71 65 65 65 60 58 56 57 59 57 54 51 48 45 45 44 42 39 39 38 45 54 57 62 64 52 33 18 13 15 28 38
81 68 58 63 68 75 82 82 97 90 80 77 77 75 71 66 65 64 63 64 62 58 56 52 50 49 50 50 52 54 60 62 61 63 60 39 18 13 14 18 29 38 46
96 86 68 65 72 80 86 89 94 84 78 77 75 75 73 73 72 70 70 70 67 62 60 55 54 53 53 53 59 64 66 58 56 55 36 14 13 21 28 28 41 43 56
98 95 99 97 92 90 88 94 91 80 76 71 66 70 73 76 77 76 77 73 70 66 60 57 56 51 46 51 59 59 56 50 49 35 18 14 21 32 34 44 52 53 68
98 99 96 92 90 91 97 98 94 93 88 84 74 70 74 77 81 82 80 76 70 65 60 60 54 45 41 48 48 57 52 46 39 19 12 18 26 35 51 58 56 78 77
100 100 100 100 99 95 97 100 94 94 91 91 88 77 81 84 86 85 82 75 68 63 62 61 50 42 43 48 53 64 54 46 27 11 18 20 30 52 56 61 84 85 88
99 99 100 100 100 98 97 97 96 97 92 94 98 90 87 87 89 91 86 73 67 66 65 65 55 48 57 59 61 68 56 46 15 13 20 21 45 51 55 78 87 87 73
96 96 96 100 100 95 96 100 100 99 100 99 98 97 92 88 90 95 87 76 69 64 68 70 64 63 56 62 71 67 59 37 13 17 20 29 42 44 49 74 79 75 73
75 100 100 100 100 100 100 100 100 100 100 100 100 100 99 92 95 96 90 87 80 72 76 78 73 71 63 66 74 71 55 31 14 22 23 28 35 38 43 64 72 69 64
100 100 100 100 100 100 100 100 100 100 100 100 100 100 100 94 99 98 98 95 83 78 81 84 71 72 76 71 82 78 56 33 16 23 31 28 33 37 44 55 62 65 64
82 100 100 100 100 100 100 100 100 100 100 100 100 100 96 98 99 99 99 94 84 82 86 86 78 73 75 76 87 83 51 28 17 19 31 36 35 40 45 51 57 59 60

GFSGL_500_rhum_078.txt.gz
RH
21 19 21 26 27 24 18 13 11 10 11 12 12 10 9 12 8 6 5 4 6 8 9 11 14 18 17 19 14 15 18 22 44 82 71 53 73 82 99 96 100 99 94
19 18 17 16 15 13 12 12 11 13 12 11 10 9 13 10 6 6 5 6 8 8 11 16 19 22 23 22 15 17 24 28 35 52 50 90 77 99 85 80 77 79 78
18 16 15 14 14 13 13 14 14 13 11 10 9 12 13 8 7 7 7 7 10 11 14 22 27 29 28 29 21 21 29 37 42 36 41 54 66 68 52 89 73 57 63
18 18 16 15 14 16 15 14 13 12 9 10 11 16 10 8 8 9 11 13 14 16 26 28 26 32 35 32 35 34 31 38 46 60 42 40 74 92 85 81 79 74 88
20 18 17 17 16 15 13 12 10 10 11 12 16 15 9 9 11 12 15 15 19 28 27 22 22 36 42 42 44 45 45 47 51 52 64 72 82 88 90 97 92 48 19
20 18 17 15 13 12 11 11 12 13 15 20 17 13 11 11 15 17 20 29 30 27 20 20 22 25 27 31 28 26 40 36 48 53 44 54 68 61 36 16 14 10 9
19 17 15 13 14 14 15 16 18 19 23 22 18 17 15 19 22 24 30 31 26 20 20 19 19 21 21 20 19 18 19 20 21 22 24 24 23 22 21 15 11 11 16
16 16 17 16 20 23 20 20 24 27 26 23 23 22 22 28 31 31 32 27 22 21 20 20 21 22 21 21 24 26 26 28 30 34 35 35 34 30 28 29 24 16 10
19 20 25 29 27 25 25 27 28 26 26 28 28 28 34 36 37 36 28 25 21 22 24 26 25 25 26 28 30 30 30 30 32 35 41 45 45 42 37 32 19 17 15
31 32 34 31 28 33 34 34 32 33 35 33 35 41 44 42 39 31 28 24 24 27 29 29 28 29 31 32 30 31 31 31 31 34 37 42 49 49 43 32 22 22 21
33 37 39 40 42 43 36 37 40 42 43 42 46 50 47 43 35 32 28 27 28 30 32 33 34 35 34 32 32 32 31 30 29 31 35 41 48 51 50 41 36 26 27
46 46 44 47 47 41 42 48 45 48 54 55 54 51 48 41 38 38 32 32 34 37 38 39 40 39 36 35 34 32 30 30 31 32 36 38 43 44 48 51 44 46 40
54 50 54 54 51 48 48 50 53 58 60 56 57 53 47 44 42 42 41 39 40 43 45 46 45 43 42 40 36 34 34 34 35 35 36 37 47 50 52 57 60 59 48
59 64 63 60 55 55 57 62 66 65 62 62 60 56 55 49 49 49 48 47 47 48 49 51 51 48 46 42 39 37 38 38 42 49 55 58 55 53 58 60 58 45 30
64 65 62 60 60 63 70 73 72 70 70 72 72 69 64 58 57 58 56 54 54 54 57 59 56 53 47 42 42 40 38 34 40 49 53 45 42 47 51 40 20 15 16
72 68 65 65 71 74 76 80 80 76 76 78 85 77 67 66 64 64 64 61 60 61 64 65 62 55 46 46 43 37 33 31 35 39 44 43 43 44 36 20 16 24 33
84 82 79 74 74 80 86 87 82 80 81 90 82 76 70 67 66 63 65 68 67 67 68 68 64 56 50 51 45 40 38 36 40 50 52 45 41 34 14 15 22 33 44
98 97 91 84 78 82 86 85 84 86 88 91 78 70 68 64 60 63 63 63 68 69 71 70 62 54 52 54 52 42 45 49 54 59 56 49 41 17 13 17 24 40 46
99 97 99 100 99 96 93 90 91 90 95 95 84 79 77 77 70 64 62 66 74 75 73 72 62 53 54 59 57 50 49 45 60 65 55 49 29 10 14 15 30 45 56
100 100 98 98 98 97 99 99 94 93 98 97 89 86 84 83 84 79 71 72 78 78 78 76 63 58 60 65 65 62 63 50 57 63 59 44 24 14 14 18 36 44 45
100 100 100 99 99 97 99 98 96 98 96 97 88 85 84 84 82 82 83 81 81 80 81 80 72 67 67 71 75 68 65 63 63 70 68 47 23 16 17 23 35 39 52
94 100 100 100 100 100 100 100 100 100 100 97 93 90 92 97 93 92 95 95 91 91 89 85 78 74 74 78 75 71 66 68 63 82 73 44 20 18 22 24 32 36 45
69 68 79 100 100 100 100 100 100 100 100 100 97 94 98 98 97 100 100 100 100 96 93 88 82 80 78 80 82 81 60 49 73 82 73 37 18 16 25 27 31 36 41
94 74 69 67 76 100 100 100 100 100 100 100 100 100 100 100 100 100 100 100 100 97 95 89 85 90 90 84 88 73 49 59 81 86 79 38 17 17 19 30 32 35 40
88 86 68 76 83 93 100 100 100 100 100 100 100 100 100 100 100 100 100 100 99 98 94 92 90 95 92 91 86 60 47 62 80 83 83 48 19 16 17 19 29 37 38
98 98 84 69 93 100 100 100 100 100 100 100 100 100 100 100 100 100 100 100 100 100 97 92 96 100 97 96 89 70 58 72 80 80 81 56 20 17 16 17 18 22 37

GFSGL_500_rhum_081.txt.gz
RH
93 88 88 53 54 46 40 30 20 17 18 20 17 13 12 12 13 11 9 12 8 7 7 6 6 8 9 13 23 24 27 29 21 26 25 17 16 18 31 48 48 82 70
86 90 93 79 40 26 21 20 24 27 22 17 12 12 13 13 11 10 14 12 7 8 8 7 9 11 12 24 23 20 31 31 28 34 34 27 24 27 26 31 36 49 47
38 30 28 35 34 22 20 22 18 15 13 12 13 14 12 11 10 11 15 9 8 9 10 10 10 13 24 22 16 21 36 36 36 35 34 33 38 40 41 48 54 60 64
24 46 48 27 20 18 17 16 14 14 13 15 14 12 11 10 11 17 14 9 9 10 12 14 21 26 22 15 15 19 19 18 18 24 19 24 26 24 33 44 58 60 59
28 25 31 20 19 19 17 15 15 15 15 14 12 11 11 12 18 17 12 10 12 15 16 22 26 23 15 16 15 15 15 14 14 17 18 18 18 19 21 21 21 21 20
40 30 22 21 21 19 17 17 16 15 13 12 12 12 14 21 20 15 13 14 19 20 25 29 25 17 16 18 18 17 16 19 21 19 19 21 23 24 27 29 30 29 25
28 25 23 21 20 19 17 15 14 14 16 13 16 22 27 22 19 18 18 22 26 28 32 27 19 18 20 21 21 21 22 23 22 23 25 26 26 29 30 36 41 42 40
24 24 22 20 19 16 16 16 19 18 19 22 27 30 27 23 23 25 26 32 34 36 28 22 21 22 23 24 24 23 24 24 25 25 26 26 26 27 29 32 39 46 47
22 20 19 18 17 19 23 26 26 25 29 32 32 32 28 29 30 31 37 38 39 31 26 23 23 26 27 26 28 29 29 28 28 26 25 26 26 26 27 29 35 43 50
21 21 21 22 24 31 35 34 33 33 33 36 34 34 34 36 40 41 43 42 35 32 26 27 29 29 31 33 36 34 33 32 30 26 25 26 26 27 31 32 33 36 36
27 28 31 36 39 41 39 37 41 38 36 38 42 43 44 44 47 48 46 40 37 34 31 33 34 36 39 40 39 38 38 35 31 29 29 28 26 29 41 47 51 51 50
42 44 42 43 43 43 50 50 44 38 43 49 48 50 51 51 51 50 46 42 38 38 38 38 39 42 43 44 44 44 43 35 31 28 28 28 26 26 36 44 43 44 47
45 48 48 52 54 53 52 48 44 50 52 49 52 56 54 53 54 52 50 46 46 43 43 43 45 45 45 48 49 49 42 35 32 31 31 30 29 34 44 45 43 40 44
60 63 63 58 56 60 55 52 52 52 58 62 62 58 58 65 65 64 58 55 56 54 51 48 47 48 50 54 56 53 41 36 36 36 35 36 38 40 49 50 47 43 37
80 71 64 66 70 64 60 58 60 68 70 66 63 68 72 75 77 72 64 62 57 54 53 53 52 52 54 58 60 50 40 40 43 43 42 44 43 48 55 49 43 33 18
78 71 68 70 67 63 63 68 75 75 72 70 72 75 77 87 79 72 65 60 58 56 53 56 58 58 59 63 61 51 45 44 48 50 52 56 43 41 47 47 39 30 13
82 76 74 71 71 70 75 80 80 81 81 80 81 83 96 93 75 66 62 59 57 57 57 56 57 62 65 69 63 54 48 47 56 63 61 56 39 40 45 49 36 12 12
97 92 88 87 86 82 79 79 82 85 86 87 89 92 100 94 81 77 71 74 74 69 66 64 65 68 72 75 70 63 58 53 60 68 62 61 34 32 55 52 29 12 14
100 100 99 91 89 90 87 85 90 92 92 96 98 96 100 100 96 86 80 77 78 80 80 80 79 76 77 81 78 73 65 61 64 70 73 61 29 38 66 59 26 14 18
100 98 98 100 95 95 97 98 98 97 98 100 100 96 100 100 98 93 92 93 91 90 94 93 95 90 89 90 86 80 76 67 68 72 76 39 31 57 72 64 31 15 20
100 100 100 100 100 100 100 100 98 98 99 98 96 97 99 100 100 100 98 97 96 95 100 100 98 99 100 99 97 90 82 80 73 77 70 30 35 58 74 76 38 16 20
100 100 100 100 100 100 100 100 100 100 100 100 100 100 100 100 100 100 100 97 96 100 100 100 98 99 100 97 98 95 90 85 78 85 63 35 44 70 79 82 61 20 17
78 85 85 90 93 95 100 100 100 100 100 100 100 100 100 100 100 100 97 100 100 100 100 100 100 100 97 96 98 98 98 95 91 86 71 54 55 72 82 85 79 39 18
82 70 66 74 89 90 81 77 85 98 100 100 100 100 100 100 100 100 100 100 100 100 100 100 100 100 100 99 99 95 97 90 98 79 54 63 71 76 81 86 86 62 26
97 90 87 90 96 100 100 82 77 76 85 100 100 100 100 100 100 100 100 100 100 100 100 100 100 100 100 100 100 98 95 92 72 41 45 52 69 89 91 91 91 62 25
65 82 93 97 100 100 100 100 83 80 96 100 100 100 100 100 100 100 100 100 100 100 100 100 100 99 100 100 100 100 100 82 43 28 32 47 61 87 91 96 78 34 25

GFSGL_500_rhum_084.txt.gz
RH
81 87 88 86 74 66 70 75 72 47 38 36 28 20 18 16 19 17 13 12 14 11 10 14 8 8 7 7 9 9 12 19 16 12 16 26 26 25 25 25 26 32 38
84 86 90 94 96 95 94 90 55 54 48 38 26 20 22 23 19 13 13 14 12 10 14 12 8 9 9 11 15 20 22 17 12 13 14 12 14 14 13 13 12 14 20
94 93 91 89 91 92 85 87 78 60 27 23 21 23 24 15 13 14 14 12 10 12 17 10 10 11 14 16 19 24 18 13 13 14 13 11 13 15 14 13 14 14 16
75 86 88 81 76 80 62 45 53 60 42 26 27 16 15 14 15 14 12 11 12 20 15 12 13 17 18 23 27 21 14 15 15 15 14 16 18 17 17 16 17 17 18
38 29 29 27 26 30 38 47 44 22 21 17 16 15 15 15 13 11 12 15 22 17 14 15 21 24 27 28 24 17 16 17 18 19 20 20 18 18 18 18 18 18 18
70 72 61 38 29 29 35 54 46 20 18 17 15 16 15 13 12 16 21 25 20 18 18 24 27 29 30 26 19 18 20 19 20 21 21 21 20 19 17 18 17 15 15
85 82 84 73 62 44 40 36 26 20 18 17 16 14 13 19 21 28 28 22 22 23 27 30 31 33 29 22 20 22 23 24 26 25 24 24 25 22 18 17 18 18 19
75 56 73 81 72 37 32 23 21 20 18 16 16 21 23 24 30 30 26 25 28 31 34 36 37 31 26 22 23 25 28 30 32 30 30 29 26 22 20 20 22 21 21
80 57 45 64 30 26 24 21 20 17 18 17 22 28 28 34 34 30 29 33 37 40 41 40 35 30 27 27 30 33 36 37 37 36 35 32 26 23 21 22 24 25 24
53 68 75 39 24 23 21 19 18 21 27 31 32 35 35 36 34 33 38 44 45 45 43 39 35 32 32 34 37 39 40 42 41 41 40 32 28 25 24 27 31 31 29
46 54 53 25 23 22 22 23 27 34 41 42 41 41 42 39 41 45 49 49 47 47 44 39 37 37 39 40 41 42 43 44 46 47 42 33 28 29 31 35 39 39 32
35 38 46 42 32 28 34 41 44 46 48 48 45 47 48 48 51 54 51 50 51 48 47 47 47 44 43 43 43 42 44 48 50 50 40 35 33 35 38 46 48 38 30
42 41 38 46 48 46 48 53 56 62 58 52 51 52 54 58 59 55 53 56 57 61 56 57 56 52 51 51 50 50 50 52 54 50 43 39 37 41 46 53 50 28 29
61 51 53 53 53 56 64 60 60 60 57 58 58 62 65 64 60 58 64 68 72 68 64 60 54 55 56 54 50 49 51 53 58 53 48 44 43 45 51 54 54 26 23
86 81 74 74 75 71 66 68 69 66 68 64 66 72 70 65 65 70 74 83 79 70 64 57 56 56 53 49 51 54 54 53 60 60 58 53 50 48 52 53 40 23 29
89 92 88 81 74 73 82 78 72 71 76 79 78 75 72 72 77 81 94 88 75 63 59 58 60 60 60 62 62 60 61 62 68 69 66 61 59 59 56 43 27 23 46
98 90 87 82 80 84 85 79 78 82 88 86 81 82 80 83 85 89 98 85 76 73 71 76 76 76 75 73 69 69 75 73 76 79 75 71 67 66 58 46 22 24 43
100 100 95 87 83 81 79 79 80 86 88 85 87 88 92 92 91 93 99 92 88 88 85 80 79 82 85 84 79 79 85 88 89 90 84 79 73 72 62 38 24 29 52
100 98 98 100 100 98 91 86 84 83 85 87 92 95 98 98 98 97 96 97 99 98 97 98 97 93 93 91 87 86 88 98 96 94 89 84 81 80 66 40 34 32 50
100 100 100 100 100 100 100 99 94 89 88 91 95 95 98 100 98 96 90 91 95 100 100 100 98 96 91 89 94 96 98 95 93 95 94 93 86 72 60 53 43 39 50
100 100 100 100 100 100 100 100 100 100 100 100 100 98 100 100 98 96 92 94 99 100 100 100 98 97 99 100 100 100 100 96 94 95 94 94 83 70 66 42 44 46 49
99 100 100 100 100 100 100 100 100 100 100 100 100 100 100 100 100 99 100 100 100 100 96 100 100 96 100 100 100 100 100 99 97 97 100 98 92 75 41 34 38 43 52
99 91 100 100 100 99 100 100 99 99 100 100 100 100 100 100 100 97 98 100 100 100 99 100 100 100 100 100 100 100 100 98 97 98 100 100 95 70 38 36 39 46 53
68 96 94 86 88 87 88 83 79 82 82 84 83 85 90 96 100 100 100 100 100 100 100 100 100 100 100 100 100 100 99 94 94 93 86 80 60 37 31 33 41 46 56
35 45 77 100 100 96 86 80 89 100 100 100 100 94 79 78 86 99 100 100 100 100 100 100 100 100 100 100 96 88 70 54 42 33 30 31 28 28 27 26 32 54 78
32 31 37 49 73 97 100 98 98 100 99 98 100 100 100 92 97 100 100 100 100 100 100 100 100 100 100 92 64 31 20 18 20 24 28 29 28 26 22 23 51 65 27

GFSGL_500_rhum_087.txt.gz
RH
72 77 79 87 86 82 79 81 85 87 83 76 67 68 69 45 33 32 23 19 20 39 24 13 14 11 12 14 9 10 11 14 15 18 17 13 12 13 12 12 13 14 12
85 84 80 78 79 88 92 87 82 82 74 67 69 80 57 51 43 25 20 23 22 15 13 15 12 11 18 10 11 13 16 17 19 20 16 13 14 14 12 15 16 14 14
66 96 98 83 77 87 94 95 93 93 89 92 86 86 61 35 20 20 20 19 15 15 15 12 11 18 16 11 15 18 20 20 23 18 15 15 15 16 18 18 16 15 15
72 94 98 96 90 86 89 91 85 91 91 83 77 80 81 70 49 29 20 16 16 15 13 13 18 18 13 17 19 22 22 23 20 16 17 16 17 19 18 18 18 18 16
58 76 96 88 92 95 98 96 94 86 72 50 35 34 26 22 21 17 17 16 15 13 15 18 20 17 19 23 26 26 27 22 19 19 19 21 23 22 22 22 23 20 17
47 62 78 83 52 42 43 32 34 34 34 45 51 54 41 21 20 26 19 15 16 16 23 23 20 22 27 30 29 28 25 21 21 22 24 27 27 26 27 28 25 22 18
54 67 82 72 81 77 56 52 37 32 29 29 32 47 25 24 28 17 17 21 22 31 25 24 27 31 35 32 32 29 25 24 25 27 30 30 31 33 33 30 26 23 21
49 66 74 81 82 87 84 76 72 58 56 49 44 25 21 18 18 22 26 30 34 28 28 32 36 39 36 36 33 29 28 28 30 32 31 33 36 39 39 32 27 25 25
49 42 47 63 74 70 62 74 71 66 52 37 24 21 19 21 32 47 34 37 29 29 36 40 43 41 39 36 33 32 32 33 33 32 33 37 41 43 40 34 31 30 30
69 56 50 54 54 74 47 60 56 30 26 24 22 21 24 33 36 42 42 36 32 38 47 48 46 44 40 38 35 35 37 35 36 37 40 41 43 43 41 38 35 36 35
68 66 56 72 66 65 66 81 28 25 24 24 22 31 41 40 43 46 41 35 43 53 53 50 48 46 46 45 46 43 43 43 44 44 40 40 41 44 45 44 42 42 40
40 36 38 60 50 56 70 39 29 34 38 41 41 45 50 49 50 48 44 53 59 57 54 53 54 57 53 55 54 51 50 48 45 42 41 42 45 50 50 51 50 48 46
58 53 49 47 57 65 71 73 77 59 47 47 53 55 57 56 58 55 60 65 61 59 60 64 67 62 61 60 57 55 49 46 48 49 50 51 53 59 61 61 59 54 49
86 86 71 55 50 51 52 55 57 57 60 59 59 64 62 63 62 68 69 65 64 68 71 75 72 67 67 61 55 53 52 56 58 58 61 66 67 67 70 72 69 60 57
99 97 89 83 70 65 64 67 70 76 71 68 69 69 70 71 74 73 71 70 73 76 84 81 76 67 61 61 62 64 68 65 64 65 72 79 82 82 83 81 75 68 64
100 96 90 94 92 87 83 82 76 73 75 74 76 79 80 79 78 77 77 78 79 89 93 80 76 74 74 76 77 78 76 77 77 80 78 78 80 84 88 83 77 73 70
100 100 99 98 99 94 88 85 87 93 88 84 85 90 87 85 83 87 89 87 86 97 100 89 89 87 84 85 88 88 88 88 87 89 86 84 86 94 93 85 78 76 58
98 100 100 100 96 96 95 96 99 98 90 92 96 98 94 90 98 100 98 95 99 99 100 100 100 100 98 94 90 93 94 94 91 90 89 89 94 97 88 87 84 81 60
100 100 100 99 100 100 100 99 99 96 94 97 100 100 99 100 100 100 99 100 100 100 99 98 100 100 100 96 96 100 98 93 94 92 90 95 99 96 92 93 93 92 89
100 100 100 100 100 100 100 100 99 100 100 100 100 98 100 100 100 100 100 100 100 100 100 100 100 100 100 98 97 99 94 99 96 92 98 99 95 90 92 90 90 100 92
100 100 100 100 100 100 100 100 100 100 100 100 99 98 100 100 99 100 100 100 100 100 100 100 100 98 93 99 100 100 100 99 93 97 98 96 88 78 68 57 37 33 34
86 100 100 100 100 100 100 100 100 100 100 100 100 99 100 100 99 98 100 100 100 100 100 100 100 98 98 100 100 100 100 99 96 97 92 80 42 21 21 26 28 29 28
41 52 85 100 100 100 100 100 100 100 100 100 100 99 100 100 100 98 100 100 100 100 100 100 100 100 99 100 100 100 100 98 96 87 68 19 14 17 19 22 25 27 26
21 31 34 45 65 100 100 100 100 100 100 100 100 100 100 94 92 91 88 85 85 89 89 94 100 100 100 100 100 100 100 97 87 50 15 15 16 17 18 20 23 24 23
20 16 20 29 32 40 64 99 100 100 96 88 94 89 85 96 100 100 100 100 100 100 100 100 100 100 100 100 100 100 98 84 36 13 14 17 18 19 19 21 22 24 23
23 21 16 17 27 34 34 40 59 91 100 100 100 97 100 100 100 100 100 100 100 100 100 100 100 100 100 100 100 100 83 25 13 20 20 20 20 20 20 20 20 22 22

GFSGL_500_rhum_090.txt.gz
RH
86 84 89 86 88 86 80 80 84 88 90 88 86 77 62 58 61 74 75 66 59 38 28 19 20 22 16 15 14 12 17 11 10 14 17 19 19 17 14 14 14 14 15
93 96 100 96 86 82 78 77 81 81 82 83 83 84 85 84 78 71 66 72 54 43 28 21 22 16 15 15 12 14 17 13 14 19 21 20 19 15 15 15 17 17 17
98 97 100 96 97 95 86 87 76 77 76 80 86 87 86 86 83 87 84 82 52 47 35 30 19 17 16 13 14 21 16 15 21 24 23 22 17 17 17 19 20 19 19
59 85 95 96 87 73 80 81 79 87 84 86 93 86 85 90 86 82 82 81 82 70 25 18 19 16 14 17 25 20 15 23 26 27 24 20 18 19 22 24 23 23 25
35 44 69 64 57 56 62 88 90 84 84 85 87 85 90 86 75 36 31 24 22 22 19 18 18 18 21 36 18 18 25 29 29 27 24 21 21 24 27 27 28 30 31
51 57 67 54 50 74 76 73 90 83 86 86 86 87 84 67 36 44 50 49 26 22 58 27 18 27 29 23 22 27 32 32 30 27 24 23 27 30 30 31 33 36 36
71 62 56 50 46 48 55 83 76 61 59 66 38 34 33 30 43 42 45 68 44 59 22 24 35 34 24 26 30 37 36 34 31 28 27 30 34 34 34 33 32 32 33
76 54 52 50 54 56 68 78 74 79 72 58 53 53 49 40 36 62 58 28 22 26 36 41 44 27 30 36 41 41 38 35 31 31 35 38 36 37 35 33 31 30 33
66 58 52 52 58 70 87 88 86 79 76 70 80 72 65 70 57 28 23 25 36 44 80 43 29 34 45 46 45 42 38 34 33 36 39 40 40 38 33 31 31 35 40
88 79 68 61 54 46 43 49 67 76 76 61 71 81 89 56 58 35 33 49 77 66 39 31 37 50 50 49 46 42 42 42 43 44 46 45 41 38 37 35 36 42 48
100 98 94 87 79 73 66 60 62 59 70 46 53 32 29 28 29 47 49 48 52 46 37 37 51 55 53 50 48 49 50 54 53 53 47 43 44 44 43 44 49 50 52
74 59 51 50 58 52 55 48 65 64 66 71 67 36 41 43 52 53 53 49 51 41 40 56 60 57 55 56 58 57 59 56 57 50 46 50 49 47 46 52 58 61 63
92 82 82 83 66 50 42 76 72 56 61 74 54 58 66 77 60 63 56 64 55 47 65 66 62 60 63 66 66 65 62 58 54 52 56 57 55 56 64 65 66 67 72
51 54 64 78 80 80 68 66 68 81 93 88 86 84 69 69 75 74 75 70 61 71 71 66 67 71 74 77 74 67 59 62 63 65 67 67 68 68 68 70 75 80 81
63 76 95 95 94 95 89 80 74 73 72 78 84 90 92 93 91 86 79 72 78 74 72 72 75 80 85 80 70 70 72 74 73 73 76 79 75 71 68 71 80 83 83
93 90 100 100 100 100 98 92 85 79 84 86 88 88 88 88 87 85 83 88 83 79 78 79 84 90 90 82 83 84 83 84 84 80 83 82 81 77 74 76 82 85 88
100 100 99 96 100 100 100 100 100 98 97 97 98 99 98 97 96 98 97 93 86 88 87 88 88 92 99 96 94 96 98 92 86 89 90 88 85 86 82 81 84 88 88
100 100 100 99 95 96 100 97 100 99 99 100 100 100 100 100 100 100 99 95 98 98 97 96 96 96 98 100 98 97 98 91 87 89 91 98 97 97 90 87 89 89 64
100 100 100 100 99 100 99 100 98 97 99 100 100 100 99 100 100 100 100 99 100 100 98 100 100 99 98 97 96 96 87 80 93 95 99 98 98 100 93 90 89 46 17
82 100 100 100 100 100 100 99 100 100 100 100 100 98 99 100 100 99 100 100 100 100 100 99 99 99 100 100 100 96 92 93 99 100 100 97 100 99 92 87 44 15 17
50 60 98 100 100 100 100 100 98 100 100 100 100 99 100 100 98 97 99 100 96 96 100 100 100 96 97 100 96 94 99 98 96 94 94 97 99 95 86 55 13 16 20
32 44 51 64 96 100 100 100 100 98 100 100 98 97 96 100 100 99 100 100 100 100 99 98 100 100 100 100 99 100 100 99 94 97 96 98 96 88 56 13 15 20 20
17 18 29 38 45 58 93 100 100 100 100 100 100 100 100 100 100 100 100 100 100 100 100 100 100 100 94 92 93 98 100 99 97 96 98 98 92 50 13 19 25 24 24
31 30 21 16 17 29 38 46 74 100 100 100 100 100 100 100 100 100 100 100 100 100 100 100 100 100 99 96 100 100 100 100 99 98 100 100 61 14 23 28 33 32 28
34 31 29 28 24 20 17 17 31 42 49 94 100 100 100 100 100 100 100 100 97 99 100 100 100 100 99 98 100 100 100 100 100 100 100 83 18 21 30 34 33 31 29
39 34 31 29 27 27 25 22 18 19 31 42 47 84 100 100 100 100 100 99 100 100 100 100 100 100 100 100 100 100 100 100 100 100 98 35 18 27 28 25 26 29 27

GFSGL_500_rhum_093.txt.gz
RH
98 95 94 86 74 89 87 92 91 91 85 90 81 80 86 95 94 84 82 73 59 59 67 79 68 60 44 31 20 20 17 17 14 14 17 14 16 20 22 20 17 15 15
98 98 98 98 97 96 94 95 96 94 93 88 83 82 80 79 83 88 90 86 84 83 80 84 85 70 31 36 31 24 23 15 14 20 15 13 20 24 23 20 17 17 20
80 89 95 100 98 93 89 100 100 98 95 90 85 82 85 83 82 81 78 76 79 85 86 86 81 74 62 68 28 18 16 16 20 21 16 20 26 26 23 20 20 22 23
31 33 42 61 91 96 98 100 93 95 96 94 87 83 75 72 77 76 80 80 82 84 82 77 73 71 49 22 18 17 17 23 40 19 22 29 29 27 23 22 24 26 25
37 39 34 30 30 55 79 98 100 98 94 85 73 70 71 73 75 81 84 81 83 82 60 32 26 24 29 24 23 19 33 41 22 24 34 33 30 27 24 26 28 27 27
53 49 48 45 39 44 58 77 82 82 83 72 64 62 66 68 70 80 88 90 86 60 33 45 57 48 30 51 24 53 66 29 28 35 36 34 30 28 28 30 28 29 29
63 69 58 57 54 50 48 67 71 82 86 71 72 67 68 67 77 87 85 75 50 30 40 38 46 48 71 32 38 57 29 32 37 40 37 35 31 32 31 30 31 30 29
70 70 66 71 78 64 59 61 49 51 56 64 69 65 57 54 49 38 36 34 31 31 58 73 58 44 37 45 83 40 36 42 43 41 38 35 34 35 35 36 34 32 32
86 76 77 76 81 64 59 55 52 52 59 74 76 83 84 81 81 77 75 66 71 77 58 26 31 47 67 74 34 38 45 48 46 42 39 38 41 41 42 37 37 40 39
92 100 96 88 72 65 58 56 55 62 83 88 83 84 83 82 78 85 93 91 86 83 45 42 61 83 48 34 42 53 54 51 47 45 48 50 49 49 43 42 45 43 44
85 92 100 95 88 81 73 71 67 61 52 46 49 71 81 88 56 80 84 88 48 55 58 63 81 51 35 47 61 60 55 52 51 54 55 57 54 48 46 51 49 49 54
89 78 84 83 70 71 86 82 75 75 75 74 67 65 65 81 91 91 48 45 57 74 68 71 55 45 50 68 66 59 57 58 63 61 63 60 54 52 59 60 59 61 58
96 82 84 82 82 80 81 84 92 65 65 79 63 62 70 96 94 61 71 70 78 88 94 65 78 58 73 71 63 62 65 69 70 70 63 58 61 68 69 68 70 66 59
77 75 68 59 60 58 72 79 80 75 75 74 89 87 81 91 82 88 96 99 94 87 73 97 77 82 78 69 68 70 75 78 76 67 70 73 75 74 76 74 72 70 65
67 54 60 63 68 96 100 100 98 92 87 78 82 87 96 96 96 100 98 96 97 97 99 93 96 91 78 74 74 77 84 80 78 82 83 84 86 82 82 76 77 78 77
62 71 77 82 83 91 100 99 99 98 93 87 84 86 87 95 99 98 100 100 99 100 100 100 97 92 87 82 84 90 94 92 95 97 99 98 92 85 77 75 80 81 88
72 82 90 93 98 99 100 100 100 97 100 100 98 97 99 99 100 100 100 100 100 100 100 100 100 100 98 94 93 92 99 100 100 99 92 90 83 85 85 78 84 86 92
74 88 95 94 93 97 97 100 100 100 98 100 100 100 100 100 100 100 100 100 100 100 100 100 100 100 100 99 98 100 100 98 93 92 90 96 89 86 83 83 88 88 93
64 79 77 93 94 95 98 98 93 99 100 100 100 100 99 99 99 100 100 100 99 100 100 100 100 100 100 100 100 100 100 100 99 98 99 94 87 86 85 87 90 93 94
39 53 56 66 90 98 99 100 100 100 100 100 100 100 100 100 100 100 100 100 100 100 99 100 100 100 100 100 100 100 100 95 97 100 98 94 91 93 91 94 94 97 89
19 21 27 48 53 69 99 100 97 97 100 100 100 100 100 100 100 100 100 100 100 100 100 97 96 100 100 100 99 100 100 100 100 100 100 97 92 99 100 100 100 93 49
25 19 18 23 30 43 52 67 95 100 100 100 100 100 100 100 100 100 100 100 100 98 97 98 100 100 100 99 97 100 100 100 98 94 94 95 100 100 100 100 99 83 16
34 30 22 22 20 17 21 33 45 58 90 100 100 100 96 98 100 100 99 100 100 100 100 100 100 100 100 99 100 100 100 100 98 100 99 99 100 100 100 100 100 30 20
42 41 37 34 32 30 28 23 16 19 32 44 62 93 99 98 100 100 100 99 97 99 98 100 100 100 100 100 100 100 100 100 100 100 100 100 100 100 100 100 89 19 24
34 42 39 36 35 36 34 31 29 26 23 20 19 27 41 52 82 100 100 100 100 100 100 100 100 100 100 100 100 100 100 100 100 100 100 100 100 100 100 100 57 19 25
50 43 42 42 40 40 40 38 34 31 29 28 27 24 21 22 37 44 60 94 100 100 100 100 100 100 100 100 100 100 100 100 100 100 100 100 100 100 100 100 43 19 25

GFSGL_500_rhum_096.txt.gz
RH
79 81 67 85 88 88 87 79 73 77 78 85 90 99 91 90 93 93 76 73 86 94 90 78 77 74 79 84 79 82 76 35 53 54 24 21 14 18 15 15 22 24 22
91 81 79 72 70 90 92 90 74 68 62 71 86 83 81 74 75 75 77 81 88 90 95 88 81 78 82 80 82 78 79 64 70 29 18 15 20 20 16 24 28 26 22
74 84 93 100 95 98 100 100 96 100 98 96 94 75 75 80 79 82 83 78 83 86 83 79 81 79 81 81 76 78 81 62 24 19 18 20 28 25 24 30 29 26 22
40 36 35 46 65 74 75 77 76 83 87 98 89 84 86 85 85 90 86 78 79 72 70 71 82 81 80 80 64 31 23 27 23 23 23 37 48 27 33 33 30 26 24
39 38 37 37 34 34 31 29 34 41 76 87 89 90 96 100 97 90 81 74 69 65 64 72 72 73 84 64 31 41 38 26 48 28 32 63 30 35 37 34 30 28 28
36 37 42 49 44 47 42 40 36 29 34 53 75 94 100 96 97 88 78 68 63 65 68 75 82 85 77 36 39 47 61 73 54 62 81 44 37 41 38 34 31 32 31
35 42 52 56 59 60 60 46 46 48 42 34 54 73 83 92 85 80 73 66 59 61 83 98 98 79 46 33 40 44 46 52 42 69 55 42 44 42 38 35 33 34 35
40 47 51 50 54 74 71 56 50 56 61 52 57 66 85 83 73 74 74 62 56 58 56 44 36 34 33 58 64 43 49 48 84 58 45 49 46 41 38 38 40 40 39
48 53 59 61 68 84 77 75 73 75 63 62 62 54 57 60 86 89 96 81 74 75 81 73 70 68 49 33 37 45 51 88 48 45 54 50 46 43 44 48 48 45 41
61 67 66 59 66 87 92 91 78 72 64 60 60 56 55 69 90 91 98 96 98 97 91 97 94 92 95 72 60 85 90 46 54 61 56 51 49 51 55 56 53 47 48
59 61 66 69 74 81 87 90 95 88 74 66 64 77 65 70 80 89 93 98 98 89 89 100 97 90 77 76 70 79 48 59 65 61 56 54 57 60 62 58 52 51 57
65 60 64 83 78 79 81 74 71 71 83 86 74 75 72 76 75 64 65 75 66 55 63 53 57 55 76 80 94 58 70 72 68 61 60 65 69 68 65 56 58 65 64
72 73 78 80 84 86 87 80 79 76 76 86 90 65 60 63 60 59 65 70 83 93 75 72 82 84 94 97 72 81 78 80 69 68 74 77 77 70 62 68 72 72 73
71 70 73 74 77 67 60 61 62 57 86 88 81 78 84 86 93 76 64 76 98 86 88 95 100 98 99 91 99 87 93 90 84 86 87 86 76 76 81 83 84 79 76
81 82 79 75 67 59 62 63 63 87 93 94 98 97 94 91 96 99 96 94 96 99 98 100 100 99 91 100 100 100 99 98 99 100 94 88 87 89 92 92 90 87 83
71 65 62 62 69 71 85 93 92 90 95 97 97 99 97 92 96 98 98 99 99 100 100 98 100 99 100 100 100 98 99 100 100 100 100 100 98 94 98 94 94 88 85
82 73 72 70 75 89 100 98 96 97 98 96 100 97 100 99 98 98 98 99 100 100 100 100 100 100 100 100 99 99 100 100 100 100 100 100 100 100 96 92 94 91 91
88 87 85 74 72 84 97 96 98 100 100 97 95 97 99 100 100 100 100 100 100 100 100 100 100 100 100 99 99 100 100 100 100 100 100 100 100 98 95 93 94 94 92
89 85 76 71 67 75 76 85 98 100 100 100 92 93 90 96 100 100 100 100 99 100 100 100 99 98 98 100 100 100 100 100 100 100 100 100 100 98 98 98 99 100 99
33 23 20 22 28 47 55 64 77 94 100 100 99 96 96 100 100 100 100 100 100 100 100 100 100 100 100 100 100 100 100 100 100 100 100 100 99 100 99 99 100 99 95
34 35 31 24 20 18 20 34 49 56 74 98 100 94 88 100 98 100 100 100 100 100 100 100 99 100 100 100 100 100 100 100 100 100 100 96 100 100 100 100 100 98 95
47 44 35 32 30 26 20 18 20 28 42 54 71 94 96 100 100 100 100 100 100 100 100 100 100 100 100 100 100 100 100 100 100 100 100 100 100 100 100 100 100 99 97
42 37 33 32 34 33 31 26 24 23 20 18 29 46 67 91 100 100 100 100 100 100 100 100 100 100 100 100 100 100 100 100 100 100 100 100 100 100 100 100 100 97 96
45 43 40 35 33 34 39 39 38 36 34 30 28 20 19 30 48 66 89 100 100 100 100 100 100 100 100 98 100 100 100 100 100 100 100 100 100 100 100 100 100 97 99
32 29 26 25 25 26 32 39 41 37 35 35 35 32 30 27 23 20 20 35 56 84 99 100 100 100 100 100 100 100 100 100 100 100 100 100 100 100 100 100 100 99 100
57 51 49 51 56 60 59 51 44 42 41 40 41 41 39 34 31 30 28 27 24 24 39 54 79 98 100 100 100 100 100 100 100 100 100 100 100 100 100 100 100 100 100

GFSGL_500_rhum_099.txt.gz
RH
16 16 20 33 54 86 93 87 94 97 98 98 94 88 94 93 82 76 82 87 84 83 87 94 90 74 84 86 84 85 83 81 73 69 76 74 73 43 19 17 22 17 19
32 56 70 60 62 75 82 79 73 75 84 84 79 74 77 76 80 75 94 80 85 87 88 78 74 78 82 83 84 82 83 81 80 75 71 66 29 26 18 23 23 32 26
53 74 80 78 87 85 93 100 98 88 68 75 92 94 97 83 87 93 89 89 77 80 78 82 84 87 84 78 82 83 78 75 79 60 33 25 25 26 26 29 49 30 32
52 64 72 68 61 53 49 50 49 68 84 97 90 91 88 83 88 97 94 81 79 79 82 86 86 77 71 66 72 81 76 72 73 35 34 29 44 37 30 58 44 44 35
28 34 38 40 40 36 32 32 30 28 28 31 42 43 48 55 63 72 77 88 87 91 87 88 80 72 67 63 66 73 87 88 50 40 52 60 61 38 50 78 42 38 36
34 37 35 29 30 34 42 42 40 35 35 36 33 31 30 27 32 70 84 85 92 87 89 88 83 75 68 71 65 73 87 83 34 39 47 61 51 75 78 42 42 41 37
34 33 33 33 33 36 42 48 46 46 52 52 52 37 38 41 37 36 60 73 85 93 86 81 76 70 67 81 82 83 91 53 35 47 48 57 42 70 48 48 45 41 37
33 31 33 34 36 39 41 45 48 47 55 61 52 43 38 41 48 43 56 73 91 92 86 85 72 64 55 52 52 46 39 38 51 65 50 49 88 62 54 50 46 41 42
32 33 31 28 38 47 52 56 52 55 70 64 63 57 55 61 62 62 63 71 87 81 93 98 93 69 65 60 45 39 41 50 53 54 52 93 70 61 56 50 46 48 54
31 31 31 38 54 60 62 56 56 62 80 81 74 70 67 62 61 60 58 54 61 82 88 96 98 95 94 96 97 96 95 90 88 53 98 93 77 63 56 52 53 58 62
35 40 47 61 64 57 55 49 56 61 70 75 76 81 82 72 64 66 76 73 73 86 98 98 92 99 96 98 100 99 99 100 80 98 90 80 73 62 59 58 65 67 67
57 67 67 72 68 61 53 58 71 68 70 72 78 80 81 88 86 73 74 80 87 88 85 96 93 84 89 92 96 99 100 90 96 100 97 93 74 70 65 70 74 73 64
78 83 80 73 69 65 70 73 73 71 73 79 80 76 73 76 93 83 67 63 70 71 75 69 78 83 98 98 96 100 100 100 100 100 100 96 92 82 80 84 80 71 77
69 69 71 68 73 71 70 70 70 60 51 52 53 62 93 85 88 89 91 98 99 98 78 79 91 100 100 100 100 100 100 100 100 100 100 100 99 94 94 90 81 85 86
77 80 80 81 79 80 77 73 67 57 59 64 61 86 88 86 94 98 100 100 100 100 95 91 98 100 100 100 100 100 100 100 100 100 100 100 100 99 95 95 97 99 96
69 68 68 68 76 71 66 64 62 69 82 87 86 84 89 96 93 94 97 99 100 100 100 100 100 100 100 100 100 99 100 100 99 100 100 100 100 100 100 100 100 100 100
79 78 81 86 85 77 70 74 77 79 98 96 94 94 97 92 95 96 100 100 100 100 100 100 100 100 100 100 100 100 100 100 100 100 100 100 99 100 100 98 98 98 100
89 89 93 95 92 88 84 81 80 78 90 95 94 93 89 87 93 99 98 100 100 100 100 100 100 100 100 100 100 100 100 100 100 100 100 100 99 96 98 99 99 100 100
100 99 100 92 90 86 66 61 65 65 74 84 94 91 90 94 90 95 98 100 99 100 100 100 100 100 100 100 100 100 100 100 100 100 100 100 100 100 100 99 100 99 97
98 86 74 46 26 21 20 20 21 27 43 56 68 85 89 93 95 94 99 100 100 100 99 100 100 100 100 100 100 100 100 100 100 100 100 100 100 100 100 100 100 100 100
50 34 28 28 37 40 35 31 26 20 19 23 35 49 57 80 97 97 96 100 100 100 100 93 93 100 100 100 100 100 100 100 100 100 100 100 100 100 100 100 100 100 100
51 38 42 44 47 46 39 34 31 29 26 21 18 19 25 38 54 81 99 100 100 100 100 100 100 100 100 100 100 100 100 100 100 100 100 100 100 100 100 100 100 100 100
56 49 50 52 48 44 41 36 34 34 35 34 31 28 26 24 21 26 46 80 100 100 100 100 100 100 100 100 100 100 100 100 100 100 100 100 100 100 100 100 100 100 100
78 75 63 48 44 44 44 42 38 34 31 34 40 41 39 36 33 31 27 22 33 57 84 99 100 100 100 98 97 100 100 100 100 100 100 100 100 100 100 100 100 100 100
69 61 53 47 42 37 35 34 33 32 29 26 27 32 41 40 36 36 36 34 31 29 26 26 38 64 90 99 100 100 100 100 100 100 100 100 100 100 100 100 100 100 100
77 71 63 55 44 40 35 32 28 28 27 34 49 60 55 48 44 41 40 40 40 38 34 31 30 29 29 31 45 68 93 100 100 100 100 100 100 100 100 100 100 100 100

GFSGL_500_rhum_102.txt.gz
RH
22 25 27 27 23 16 14 12 14 27 56 70 67 68 83 80 75 83 87 99 95 95 94 85 87 92 89 89 97 100 95 89 77 75 75 82 87 82 73 61 35 32 21
24 28 28 27 16 12 14 19 29 38 64 70 71 76 75 75 81 83 91 95 94 89 84 78 84 94 83 91 93 94 85 81 81 79 78 81 88 76 40 28 29 23 27
29 29 15 11 18 24 36 58 72 91 94 86 91 77 65 78 71 72 79 72 76 91 78 73 94 98 95 90 87 82 86 82 79 85 78 81 92 51 30 30 34 40 27
18 12 19 30 33 47 58 64 60 54 49 38 39 40 50 68 94 88 75 78 87 83 89 95 97 100 96 95 89 82 77 76 70 82 84 80 85 42 40 54 57 39 40
14 14 16 19 27 34 42 41 37 35 30 31 30 29 31 33 33 35 55 66 65 71 76 79 88 88 83 90 96 94 86 74 73 82 84 94 81 43 43 61 61 30 72
20 18 16 15 17 21 26 28 26 30 35 36 39 41 39 33 32 34 34 34 35 33 64 86 90 91 91 99 94 85 82 79 82 86 85 94 90 43 41 59 56 89 60
22 19 18 20 24 25 25 26 25 23 28 30 39 41 40 39 40 44 40 32 34 37 37 61 88 98 100 100 95 86 83 80 97 100 98 75 78 49 60 88 45 70 63
24 24 25 29 30 29 28 24 25 32 38 43 45 44 39 50 58 50 44 39 38 41 47 53 85 99 100 100 99 80 67 64 57 67 85 77 54 81 93 50 86 94 79
32 33 36 34 29 26 27 26 29 44 47 50 52 46 44 56 60 58 58 55 53 57 58 61 70 96 99 93 98 96 72 70 64 56 54 58 76 85 54 72 99 97 91
36 38 39 36 30 27 26 29 36 42 50 50 42 50 52 55 68 66 69 64 62 62 61 59 59 83 96 88 84 100 92 96 96 93 89 94 88 73 78 100 99 98 90
48 46 43 37 33 31 32 40 49 53 53 45 51 66 62 61 63 66 69 72 72 65 71 79 68 74 80 99 100 100 100 100 100 100 100 100 99 81 100 100 100 97 94
42 39 36 33 32 38 51 69 71 61 53 44 62 72 71 70 69 69 71 74 75 86 77 78 85 87 92 92 100 100 98 99 100 100 100 100 100 100 99 100 97 99 95
51 52 55 61 67 74 78 73 69 58 58 62 68 67 64 66 68 60 72 88 77 82 82 67 69 81 91 84 90 97 98 100 96 100 100 100 100 99 100 100 99 100 100
76 77 76 72 65 63 63 60 62 62 63 69 70 65 52 51 48 53 77 78 82 94 90 96 97 92 82 81 79 93 100 100 96 100 100 100 100 100 100 100 100 100 100
68 66 66 66 68 71 71 68 68 66 64 63 63 62 57 60 59 59 77 85 87 90 96 100 100 100 95 90 93 100 100 100 100 100 100 100 100 100 100 100 100 100 100
77 77 76 74 72 69 69 69 69 69 68 67 65 64 66 77 80 72 74 86 95 96 98 100 97 100 100 98 100 100 100 100 100 100 100 100 100 100 100 100 100 100 100
88 87 86 82 78 76 76 78 80 79 77 71 74 85 92 88 91 92 91 89 92 98 100 100 100 98 100 100 100 100 100 100 100 100 100 100 100 100 100 100 100 99 94
96 92 93 94 91 86 84 92 95 94 90 83 84 82 86 93 92 94 94 93 93 98 100 98 99 100 100 100 100 100 100 100 100 100 100 100 100 100 100 100 99 97 93
96 99 100 100 100 99 100 93 92 87 67 58 64 63 66 75 97 94 96 100 100 98 98 100 100 99 100 100 100 100 100 100 100 100 100 100 100 100 100 100 100 97 94
95 96 100 100 100 92 90 71 30 23 23 22 21 21 22 39 56 75 93 93 93 100 100 98 98 100 100 100 100 100 100 100 100 99 100 100 100 100 100 99 100 100 100
99 98 96 100 93 70 61 34 33 42 40 35 31 28 23 19 22 35 51 66 90 97 100 100 100 100 100 100 100 100 100 100 100 100 100 100 100 100 100 100 98 100 100
100 98 97 100 91 52 40 42 45 47 47 41 37 34 31 29 25 21 20 24 39 66 96 100 100 100 100 100 100 100 100 100 100 100 99 100 100 100 100 100 100 100 98
100 100 100 99 88 80 60 48 50 52 48 44 40 37 36 35 36 37 34 30 30 29 28 49 90 100 100 100 100 100 100 100 98 94 99 100 100 100 100 100 100 100 100
100 99 99 99 98 91 82 77 66 58 48 44 42 38 35 32 30 30 33 40 42 39 36 33 26 30 54 88 100 100 100 100 100 99 99 100 100 100 100 100 100 100 100
94 93 93 97 96 92 85 76 62 46 41 38 37 36 36 34 34 33 27 26 32 38 38 37 38 37 34 31 30 34 60 95 100 100 98 99 100 100 100 100 100 100 100
100 100 100 100 89 77 69 60 48 42 38 35 32 30 27 24 22 22 30 44 55 55 52 48 44 43 42 40 38 36 36 35 34 41 65 89 99 100 100 100 100 100 100

GFSGL_500_rhum_105.txt.gz
RH
43 52 67 61 62 48 32 26 26 27 26 22 17 13 10 10 13 23 51 63 65 74 82 88 89 81 94 98 94 96 97 94 96 94 96 97 95 93 96 96 95 73 64
49 68 42 54 40 24 24 28 28 28 26 14 10 10 14 21 24 33 42 55 61 82 82 79 77 96 97 97 95 95 96 96 94 97 94 89 92 97 95 97 94 79 48
25 23 23 25 20 24 29 28 27 19 11 18 44 65 66 55 50 63 76 80 87 82 88 100 90 80 92 97 95 98 98 98 97 96 90 90 95 92 95 92 90 83 35
53 36 22 18 24 30 30 28 12 11 15 29 39 51 42 30 22 22 23 26 35 43 68 92 83 93 99 95 100 98 97 100 99 99 97 94 96 99 97 94 93 78 40
26 20 19 25 29 29 22 9 10 12 15 16 16 19 23 25 27 29 33 34 30 26 28 34 49 78 83 89 100 100 98 100 98 99 95 98 97 96 100 97 98 94 60
21 23 25 28 38 15 10 10 10 11 12 15 19 22 24 30 33 34 38 37 39 43 45 44 38 38 38 47 98 100 100 100 100 100 99 100 98 100 97 97 97 95 88
43 36 34 33 15 15 15 12 13 13 15 18 19 18 20 23 22 30 39 36 38 48 50 43 32 34 37 41 46 78 100 100 100 99 100 98 93 96 100 99 97 89 78
23 25 26 16 20 20 17 16 17 17 19 23 20 16 19 22 26 34 40 35 39 52 50 46 48 43 38 48 54 81 100 100 100 98 92 92 89 92 92 97 99 100 99
32 31 25 27 25 23 24 22 23 22 23 22 20 16 21 24 34 36 37 40 43 58 63 60 61 52 52 57 63 69 84 100 96 90 100 90 96 89 94 97 99 100 99
50 40 36 35 30 29 29 32 29 28 28 24 19 18 29 37 36 30 46 47 50 57 61 66 66 63 61 62 62 65 68 99 100 100 99 98 100 89 98 99 100 100 100
76 52 44 39 36 35 36 37 36 33 30 28 25 27 39 44 41 32 44 52 55 62 62 67 67 76 73 76 85 80 84 94 100 100 100 96 100 100 100 100 100 99 99
79 65 58 54 51 54 50 47 42 36 31 28 38 52 54 45 42 34 40 55 59 64 62 77 72 79 82 78 76 88 99 97 96 100 100 97 98 100 100 100 100 100 100
89 90 92 73 63 55 48 39 36 37 42 51 55 52 48 42 45 43 48 50 50 53 59 74 76 85 86 72 71 77 93 99 95 97 99 98 100 100 100 100 100 100 100
77 69 62 57 54 51 47 50 56 57 56 54 49 45 48 51 52 52 58 53 55 56 60 76 84 90 88 95 97 100 100 99 97 93 91 100 100 100 100 100 100 100 100
78 76 74 70 66 65 65 62 61 57 57 61 60 60 60 62 60 61 60 57 62 69 67 70 90 92 92 91 100 92 100 100 100 96 100 100 100 100 100 99 100 100 100
75 74 73 73 73 72 70 68 69 68 67 66 66 68 68 69 66 66 66 76 88 88 90 82 87 95 97 100 86 99 100 100 99 99 100 100 100 100 100 100 100 100 100
84 84 84 83 80 78 78 79 79 76 74 76 77 77 79 82 76 73 74 87 91 91 94 96 98 100 99 99 100 92 93 100 100 100 100 100 100 100 100 100 100 100 100
88 84 83 87 90 89 88 90 89 87 83 82 79 80 79 86 83 80 81 84 88 91 94 95 96 100 100 100 97 99 100 100 100 100 100 100 100 100 100 100 100 100 100
89 84 85 87 87 91 92 92 93 89 91 95 89 83 77 58 44 40 45 61 74 88 94 96 93 98 100 100 100 100 100 100 100 100 100 100 100 100 100 100 100 100 100
78 84 84 87 90 96 98 97 96 94 94 96 66 28 26 28 27 22 20 21 30 49 64 86 96 99 100 100 100 100 100 100 100 100 97 98 100 100 100 100 100 100 100
95 93 92 94 96 97 100 100 94 95 94 93 54 34 44 44 40 36 33 29 22 19 23 40 56 80 97 100 100 100 100 100 100 100 100 100 100 100 100 100 100 100 100
99 98 95 94 98 100 100 98 96 99 84 55 42 46 45 46 45 44 42 37 35 33 29 26 24 25 46 86 100 100 100 100 100 100 100 100 100 99 100 100 100 100 100
99 96 96 98 99 100 100 100 99 95 94 87 66 50 50 50 49 44 42 39 39 37 35 36 38 35 31 29 29 56 97 100 100 100 100 100 100 100 100 100 100 100 100
69 78 96 100 100 100 100 100 99 100 100 95 91 83 76 72 61 46 36 30 27 25 24 24 27 35 42 41 37 33 30 39 68 98 100 100 100 100 100 100 100 100 100
100 100 100 100 100 100 100 100 100 100 100 95 86 75 59 46 40 38 36 32 31 31 36 42 45 41 38 41 43 42 41 40 35 34 38 48 80 99 100 100 100 100 100
100 100 100 100 100 100 100 100 100 92 81 74 67 54 44 39 36 35 39 41 40 34 27 24 23 24 32 46 59 58 50 47 46 44 42 39 36 40 48 60 86 97 100

GFSGL_500_rhum_108.txt.gz
RH
84 75 60 53 54 56 70 75 67 64 53 39 25 25 26 25 24 18 14 9 8 12 15 22 33 48 74 89 85 78 73 93 87 92 97 95 100 98 98 98 100 95 96
82 80 58 49 50 50 59 73 73 62 47 24 26 27 26 27 18 10 7 16 29 27 26 31 47 62 78 96 100 100 100 100 100 91 91 99 96 97 98 100 100 100 96
61 56 57 44 43 46 51 61 58 46 24 24 29 27 26 10 6 8 10 13 15 17 18 18 20 33 52 64 88 95 99 100 100 100 100 99 99 98 100 100 99 99 99
55 56 56 53 54 49 44 41 34 24 22 30 29 24 8 6 7 9 11 11 16 18 20 23 25 27 26 24 26 54 86 94 99 100 100 99 100 100 100 99 99 98 98
48 45 44 47 38 23 26 23 21 21 28 30 24 11 7 8 10 9 9 10 14 18 23 27 28 28 30 34 37 37 34 42 52 76 99 98 99 98 99 99 99 98 99
34 32 31 44 42 34 50 50 31 24 29 34 16 8 8 9 10 11 10 8 12 16 19 24 29 29 32 40 45 41 32 36 44 44 56 100 98 96 99 99 96 96 97
33 29 31 37 34 27 29 21 22 29 42 13 9 10 11 11 13 12 11 10 12 14 15 21 27 32 38 45 44 44 45 41 37 48 64 91 100 96 100 96 94 95 87
39 28 28 26 23 22 27 35 30 41 20 14 12 12 13 14 14 13 12 12 13 12 15 20 30 38 40 50 60 60 51 46 52 61 70 93 100 100 96 95 100 100 100
24 24 24 24 28 35 36 26 26 22 19 19 15 16 18 18 18 17 17 16 14 16 25 26 35 37 43 50 58 65 65 58 61 65 72 95 100 100 100 89 98 94 98
43 48 55 62 54 44 54 76 58 25 24 22 23 25 25 24 24 23 22 20 22 29 33 30 34 42 47 54 61 61 70 66 71 70 82 100 100 94 100 100 100 100 100
55 60 52 56 55 45 41 44 32 34 32 30 33 32 31 32 30 25 23 24 31 36 33 27 30 37 48 57 65 66 74 77 78 85 85 92 100 100 100 100 100 100 100
90 94 76 68 75 82 70 59 48 45 41 42 45 44 41 34 29 26 31 32 35 37 35 32 37 39 45 53 60 68 80 75 78 77 78 89 100 100 100 99 100 100 100
100 100 100 98 97 98 94 80 68 61 61 54 50 44 39 35 36 40 40 35 32 33 34 36 42 49 50 51 58 77 91 86 94 95 83 82 95 100 99 98 100 100 100
100 100 100 100 98 98 88 77 79 80 71 59 55 51 46 46 44 40 38 40 43 45 53 54 54 53 53 52 64 87 93 95 95 98 99 100 96 95 92 100 100 98 100
100 100 100 100 100 100 96 90 82 72 65 58 53 53 53 52 48 46 50 53 54 55 62 61 58 73 76 67 71 86 93 88 96 89 100 99 100 96 96 100 100 100 100
87 90 91 89 87 85 81 74 70 67 62 62 63 66 65 61 58 58 60 62 68 67 67 65 76 86 89 90 90 94 97 96 89 96 93 100 100 99 100 100 100 100 100
80 82 82 80 79 78 78 78 79 76 76 73 68 67 71 71 66 71 71 77 77 77 81 78 82 86 93 96 96 97 100 100 100 98 82 92 97 100 100 100 100 100 100
70 74 80 85 88 88 85 81 78 78 77 80 76 75 78 76 76 78 83 83 78 74 71 71 77 87 95 96 92 93 98 100 100 100 100 100 96 96 100 99 100 100 100
76 72 76 86 92 92 89 82 79 78 81 86 84 84 79 74 82 88 62 40 40 27 23 22 37 53 70 89 92 95 98 100 100 100 100 100 100 100 100 100 99 100 100
94 82 74 74 76 80 84 81 80 82 82 85 92 92 88 85 92 63 30 30 32 32 30 28 25 20 24 43 61 84 94 100 100 100 100 100 100 100 100 100 97 98 100
100 100 98 96 90 84 85 86 86 86 89 93 96 97 97 96 94 72 39 40 45 46 43 43 39 34 29 23 20 25 54 90 100 100 100 99 100 100 100 100 100 100 100
100 100 100 99 98 97 96 94 93 95 97 98 100 99 100 100 88 67 49 43 44 44 45 43 41 39 37 35 35 34 28 27 41 83 99 100 100 100 100 100 100 100 100
100 100 100 99 100 100 100 100 100 100 100 100 100 100 98 99 98 83 67 55 54 54 54 53 47 39 34 32 31 32 36 40 38 34 31 55 94 100 100 100 100 100 100
100 100 100 98 95 93 98 100 100 100 100 100 99 100 100 100 99 99 98 92 79 69 56 42 34 31 29 29 29 27 27 31 33 38 40 37 33 43 82 99 100 100 100
100 100 100 100 100 99 92 91 96 100 100 100 100 100 100 100 100 98 84 67 51 42 37 33 30 27 25 24 24 29 41 50 48 44 43 43 44 42 37 41 62 94 100
100 100 100 100 100 100 100 100 100 100 100 100 100 100 99 92 78 65 58 48 46 45 43 46 47 47 46 43 43 40 35 27 24 24 37 53 54 50 48 48 47 46 55

GFSGL_500_rhum_111.txt.gz
RH
66 67 74 74 82 89 93 95 89 63 60 66 69 63 58 49 30 25 23 23 26 14 7 5 5 6 7 8 10 14 26 50 63 83 94 100 96 99 100 99 96 100 100
69 64 56 64 77 96 82 69 60 55 50 64 70 68 59 42 24 24 22 25 16 7 4 4 4 5 6 9 12 14 16 19 27 47 61 64 98 99 91 94 99 100 98
94 95 90 85 84 89 82 75 59 49 45 51 64 64 50 31 23 26 24 22 6 4 5 5 5 6 8 12 17 20 21 21 22 24 21 42 76 75 91 100 100 100 99
82 78 74 76 77 75 72 66 48 45 46 53 58 56 35 22 26 30 21 7 5 6 6 7 7 7 7 8 11 16 19 24 25 30 33 34 32 37 47 77 94 99 99
76 69 68 67 64 65 60 56 49 52 52 40 30 25 24 22 28 22 9 7 7 8 10 11 10 9 10 10 10 12 17 25 29 33 34 29 30 33 36 39 62 81 98
89 70 54 48 43 44 44 47 46 43 31 27 34 42 24 24 33 17 10 8 10 10 12 12 12 12 11 11 12 12 18 28 27 39 40 43 41 38 38 46 61 96 95
69 64 54 46 37 39 40 43 44 38 30 35 39 32 20 33 32 15 11 10 12 13 13 13 14 14 13 14 14 16 22 29 34 39 51 53 47 50 58 70 84 100 96
64 50 45 43 41 35 32 32 35 35 31 27 24 22 23 34 34 17 12 12 14 15 15 15 17 18 18 18 20 24 24 31 40 46 52 60 56 59 65 74 89 100 100
48 48 49 52 52 46 33 30 28 26 24 26 37 40 33 21 23 19 16 14 16 18 19 20 19 19 20 20 22 23 22 24 46 49 55 62 64 63 67 76 72 87 100
44 46 47 45 42 45 37 28 26 25 26 30 28 32 37 30 25 23 21 20 22 23 24 26 23 22 21 21 23 30 30 28 44 52 60 67 70 80 87 80 99 98 100
48 48 56 60 43 31 33 37 42 49 49 45 53 63 49 35 34 31 28 26 28 31 31 27 25 24 22 23 24 22 25 40 46 51 66 70 70 78 94 91 90 92 97
82 61 64 69 58 63 63 64 65 66 64 56 56 64 62 45 40 39 38 39 40 36 32 29 28 25 25 25 23 23 30 45 50 54 72 75 80 76 79 82 99 100 100
93 85 82 82 87 96 89 72 72 80 92 90 95 85 63 58 57 65 70 60 52 41 36 33 28 26 27 24 25 36 44 47 52 63 77 86 95 97 92 84 92 98 100
100 100 100 100 100 100 100 100 100 100 100 99 100 98 98 91 83 72 60 51 42 39 39 36 29 32 34 34 40 50 59 66 57 66 83 87 84 94 99 100 100 100 94
100 100 100 99 99 100 100 100 100 100 100 100 96 97 91 87 81 69 56 53 45 44 44 39 40 43 44 51 56 63 75 82 84 83 88 94 99 78 100 98 100 100 100
92 97 98 99 100 100 100 100 100 100 100 100 100 99 93 80 68 60 61 59 56 52 54 53 50 55 57 64 71 73 78 87 94 89 89 93 98 90 72 91 99 100 100
75 81 84 91 99 98 99 99 99 97 95 91 87 81 78 76 72 69 68 70 66 62 60 56 57 62 65 70 73 79 85 88 89 89 94 96 99 100 92 88 89 93 91
93 79 77 82 86 90 94 96 97 96 94 92 88 84 82 81 80 82 80 78 74 63 64 72 67 64 53 38 44 54 68 87 91 89 86 90 94 100 100 100 99 96 99
100 100 98 92 85 82 82 86 93 98 98 96 89 83 79 79 82 87 87 80 83 76 80 58 35 26 24 24 23 20 23 40 66 83 89 89 91 99 100 100 100 100 100
100 100 100 100 100 99 89 82 86 94 97 98 95 83 76 74 77 82 92 88 95 92 79 33 38 41 36 38 38 33 28 22 20 33 62 81 86 90 96 100 100 100 100
100 100 100 100 100 100 100 100 89 79 77 78 80 82 82 80 82 81 89 96 93 96 84 45 44 49 47 45 42 40 39 35 32 30 23 28 71 92 93 95 97 100 100
100 100 100 100 100 100 100 100 100 100 96 92 88 85 84 82 85 87 88 96 100 97 93 76 59 54 50 48 47 46 44 40 36 33 32 32 30 29 52 88 96 97 99
100 100 100 99 99 99 100 100 100 100 100 100 98 93 91 91 93 98 100 99 98 99 98 90 80 60 58 62 62 57 48 36 30 27 26 28 33 37 37 35 42 82 97
100 100 100 100 100 100 100 100 100 100 100 100 100 100 100 100 100 100 100 100 100 100 99 100 100 98 84 66 51 39 33 30 28 27 28 30 30 28 32 42 44 39 48
96 100 100 100 100 100 100 100 100 100 100 100 100 100 100 100 100 100 100 100 100 100 100 97 79 57 44 38 35 32 30 27 25 24 24 24 27 35 43 46 48 49 49
93 100 100 100 100 100 100 100 100 100 100 100 100 100 100 100 100 100 100 100 100 97 86 75 63 54 53 51 50 52 52 54 53 52 46 45 43 39 30 26 26 42 62

GFSGL_500_rhum_114.txt.gz
RH
96 92 93 93 91 91 96 96 96 95 96 97 94 94 94 90 72 61 59 49 27 23 22 24 19 7 4 4 4 4 4 4 5 7 13 16 17 19 19 41 57 65 85
90 80 84 95 90 96 94 99 95 96 93 86 79 78 74 80 75 69 60 44 23 26 26 27 9 5 5 5 6 7 7 6 6 6 6 11 13 16 20 25 22 24 47
90 87 92 95 94 93 92 91 92 96 93 90 84 62 56 64 74 71 51 43 25 25 29 20 6 5 6 9 9 9 9 9 10 8 7 8 13 16 20 23 26 27 31
89 88 96 94 93 93 94 94 96 97 98 91 80 58 47 50 55 60 55 34 22 29 29 13 7 7 9 12 12 11 11 13 14 12 11 10 15 16 21 26 24 31 33
98 97 95 92 91 94 99 97 96 92 86 76 69 50 52 53 48 46 28 28 28 27 31 10 8 9 10 12 13 14 16 18 16 13 10 13 16 20 26 33 37 35 35
99 100 96 90 87 89 83 86 80 68 67 63 56 50 50 40 28 28 35 39 24 30 27 10 10 11 13 14 14 15 18 20 18 13 13 17 19 22 29 37 47 45 44
99 98 95 92 90 78 56 50 50 46 46 45 42 40 38 31 28 35 40 29 22 37 24 14 12 13 14 15 16 17 19 20 20 15 14 18 21 22 31 44 54 55 51
67 74 79 76 79 75 59 53 47 43 41 41 40 41 40 36 34 31 24 21 23 31 27 18 15 14 16 18 19 21 23 22 21 17 13 22 25 22 36 49 58 57 60
52 51 50 54 56 58 56 52 48 51 47 37 32 30 30 30 27 25 33 34 25 24 26 22 22 20 21 22 25 27 26 24 21 15 16 20 20 27 40 57 61 63 69
42 47 52 53 55 56 58 65 73 70 58 52 37 29 28 27 28 30 32 37 40 41 32 27 27 27 26 26 33 32 31 26 18 14 18 20 22 27 43 64 63 62 76
39 39 39 41 46 52 49 44 38 33 28 28 29 30 39 39 40 42 52 57 56 45 36 33 36 34 35 39 38 34 28 20 17 16 15 18 24 35 53 72 65 59 71
51 59 60 60 56 52 48 52 58 58 46 36 39 56 65 64 60 55 50 58 76 76 57 44 44 50 55 47 37 28 23 20 17 14 19 24 31 41 64 79 80 85 81
66 70 70 72 77 68 62 68 73 70 64 65 67 69 71 70 73 75 76 86 83 75 65 59 67 62 51 36 30 28 26 22 20 24 33 34 43 48 75 86 94 91 90
89 88 84 82 84 89 86 81 77 78 80 85 89 96 88 87 90 82 83 81 97 91 77 67 60 48 42 38 35 34 33 32 35 42 47 54 64 61 80 90 88 93 88
94 98 98 97 98 100 100 100 100 100 100 100 100 98 100 100 96 87 79 82 81 78 77 71 54 48 46 42 42 45 46 42 46 51 56 68 78 84 95 98 100 86 87
85 87 95 99 100 100 100 100 99 100 99 100 100 99 100 99 94 93 98 97 89 78 66 57 54 53 54 53 55 53 52 54 54 58 64 70 74 88 98 100 100 93 76
85 83 82 84 88 94 97 96 100 100 100 100 100 100 100 100 96 94 90 83 76 72 63 59 58 56 61 62 57 60 59 60 57 61 66 77 80 83 89 93 99 100 95
100 100 96 90 82 75 78 90 97 100 100 100 100 100 99 99 98 97 95 86 78 77 74 69 73 70 68 66 70 64 54 33 21 25 33 52 76 80 86 88 91 94 99
99 99 100 100 100 99 95 84 79 85 92 98 100 100 100 100 100 99 88 80 76 77 77 74 80 81 76 78 61 30 27 26 27 26 24 21 26 55 76 82 86 86 92
100 100 100 100 100 100 100 100 100 99 96 95 96 98 98 100 100 99 92 85 83 81 85 88 88 93 93 88 43 38 42 39 40 39 36 32 27 22 29 61 81 86 93
89 100 100 100 100 100 100 100 100 100 100 100 100 98 99 100 100 100 99 89 85 88 88 87 90 92 92 89 72 43 50 49 45 42 40 40 38 33 31 27 26 61 90
37 62 100 100 100 100 100 100 100 100 100 100 100 100 100 100 99 94 90 89 90 89 86 87 89 93 95 92 93 89 67 64 62 60 50 52 45 38 34 33 33 32 31
18 16 58 98 100 100 100 100 100 98 100 100 100 100 100 100 100 100 100 99 99 99 99 100 100 100 100 100 97 93 91 82 63 70 67 58 46 36 30 28 28 30 34
23 19 18 18 75 100 100 100 100 100 100 100 100 100 100 100 100 100 100 100 100 100 100 100 100 100 100 100 100 100 100 98 92 74 52 39 32 29 27 29 31 32 31
27 23 20 22 35 44 89 100 100 100 100 100 100 100 100 100 100 100 100 100 100 100 100 100 100 100 100 100 100 99 83 64 44 37 34 30 28 26 24 24 25 26 31
30 27 30 27 66 100 84 96 100 100 100 100 100 100 100 100 100 100 100 100 100 100 100 100 100 100 100 100 99 91 78 64 57 53 51 50 49 51 49 49 56 56 51

GFSGL_500_rhum_117.txt.gz
RH
96 97 96 96 97 96 97 96 96 97 97 97 96 96 97 97 97 96 92 93 87 66 57 43 32 35 28 21 12 6 5 6 6 6 6 7 6 6 8 8 7 7 10
97 98 95 94 97 96 93 98 96 96 96 97 98 96 96 96 92 90 92 90 82 71 54 42 30 30 32 27 14 7 6 8 6 6 9 9 8 9 7 5 6 7 11
97 95 95 94 94 90 90 93 97 95 97 96 97 96 94 97 95 92 84 81 78 70 52 47 24 30 32 28 14 8 7 10 9 10 13 15 13 10 8 6 6 8 13
96 95 98 96 92 93 95 96 92 91 93 94 85 83 88 88 87 69 54 57 68 68 62 34 25 33 32 32 20 10 8 10 12 12 14 18 18 17 11 8 7 9 17
97 94 88 90 87 86 94 97 97 96 95 92 84 79 74 73 70 53 48 50 53 50 40 28 43 35 28 30 25 12 9 12 14 14 16 18 22 22 17 11 10 15 21
95 90 88 89 89 77 79 88 94 95 92 83 73 67 62 70 70 58 53 51 46 32 30 36 42 34 26 32 27 13 10 12 14 16 17 21 26 23 15 10 16 21 21
96 97 94 95 100 97 85 92 95 87 79 74 70 66 65 63 55 49 43 40 36 30 31 37 38 26 26 34 35 21 14 14 17 18 22 26 30 21 16 13 16 19 20
99 100 100 99 99 100 99 97 94 82 66 62 52 48 45 42 41 39 36 35 36 35 34 35 27 22 26 34 36 25 19 18 22 23 27 34 32 20 14 13 18 19 24
60 62 74 78 71 76 82 88 92 87 71 62 54 47 42 39 36 34 33 30 29 30 28 24 27 40 39 35 37 30 25 24 26 29 37 39 27 16 14 13 14 17 26
46 46 45 42 42 46 49 46 45 46 54 59 59 53 46 44 43 41 36 32 30 28 26 26 31 37 49 52 39 32 35 36 38 45 41 35 19 15 12 10 13 21 37
27 30 38 47 51 52 53 51 48 46 51 52 50 55 60 59 53 45 36 30 30 31 33 38 50 52 53 63 56 48 46 54 56 45 32 22 18 15 13 14 19 32 49
27 25 22 24 29 40 42 44 45 44 46 47 48 43 40 39 33 30 33 46 58 62 61 61 57 60 78 75 69 66 68 61 48 34 28 21 18 14 19 24 33 49 58
68 60 67 78 76 81 76 72 71 63 55 52 52 54 61 62 56 58 62 65 70 72 72 79 87 83 78 89 90 81 66 50 40 38 31 23 20 24 31 39 59 69 68
75 91 92 82 85 94 94 98 100 100 94 78 80 90 94 94 92 93 92 88 83 85 88 100 99 88 87 91 76 71 58 42 40 40 38 32 31 33 40 51 63 80 85
84 90 94 100 100 100 99 100 99 99 100 100 100 100 100 100 100 99 100 100 100 97 100 100 100 98 94 87 80 63 54 46 41 45 47 42 41 45 50 57 62 80 91
85 96 100 100 100 100 100 100 100 100 100 100 100 100 100 100 100 100 100 100 100 93 92 99 100 93 88 76 67 64 59 50 48 50 47 47 49 53 56 62 65 73 87
76 95 100 100 100 100 99 98 100 100 100 100 100 100 100 100 100 100 100 100 100 98 100 100 91 80 76 74 72 70 63 59 60 55 54 53 55 48 52 56 70 72 80
34 65 88 98 100 100 100 100 99 100 100 100 100 100 100 100 100 100 100 97 100 100 97 95 90 86 78 72 74 74 69 68 66 62 60 50 24 20 21 26 42 63 78
16 13 35 80 98 100 100 100 100 100 100 100 100 100 100 100 100 100 100 100 100 99 95 96 96 86 74 72 72 74 76 78 75 72 47 33 27 28 26 24 22 28 53
25 20 15 16 50 92 100 100 100 100 100 100 100 100 100 100 100 100 100 100 100 99 100 100 99 93 80 76 72 70 77 87 89 75 39 38 37 39 39 38 36 31 25
31 24 18 18 16 28 53 99 100 100 100 100 100 100 100 100 100 100 100 100 100 100 100 100 100 100 90 82 83 81 80 89 94 92 58 46 48 46 42 42 41 41 37
53 32 23 19 21 18 18 45 66 94 100 100 100 100 100 100 100 100 100 100 100 100 100 100 100 93 86 85 83 80 83 91 99 96 95 79 64 58 64 69 59 53 47
86 73 53 28 24 27 26 20 19 83 97 95 100 100 100 100 100 100 100 100 100 100 100 100 100 99 97 93 92 93 95 100 100 100 100 97 97 89 70 64 74 68 49
93 84 75 64 63 59 44 27 21 19 26 96 100 100 100 88 83 94 100 100 100 100 100 100 100 100 100 100 100 100 100 100 100 99 98 98 100 100 97 94 78 46 35
76 64 58 55 49 41 31 25 25 22 24 41 64 100 100 100 100 99 100 100 100 100 100 100 100 100 100 100 100 100 100 100 100 100 100 100 99 85 58 40 34 31 30
60 56 50 50 50 40 32 29 28 25 47 94 95 75 100 100 100 98 100 100 100 100 100 100 100 100 100 100 100 100 100 100 100 100 100 93 82 71 67 62 64 63 64

GFSGL_500_rhum_120.txt.gz
RH
96 96 97 96 96 97 95 97 96 97 97 97 98 96 94 94 98 97 96 98 97 95 86 77 69 54 43 38 37 29 21 16 14 13 8 8 7 8 9 9 8 9 8
96 96 96 97 96 96 97 97 96 97 96 98 96 96 96 96 97 93 97 97 96 92 76 67 66 59 50 41 34 31 21 18 16 14 8 10 10 10 10 12 13 15 14
97 98 97 96 97 96 96 97 95 96 97 97 96 96 97 97 97 97 96 96 84 76 74 72 72 65 51 47 30 32 24 20 19 14 9 9 11 12 12 13 18 22 21
97 97 94 96 96 95 96 97 89 96 96 97 95 97 97 97 96 93 90 90 81 71 65 63 68 68 54 42 32 35 29 25 24 21 16 11 11 13 14 15 19 24 25
95 94 89 93 92 86 85 88 90 93 79 84 81 87 92 96 97 92 94 94 94 84 58 53 55 53 52 33 33 41 32 25 24 25 26 16 11 12 14 16 19 26 27
91 84 76 80 75 68 83 100 89 85 82 76 92 95 93 82 78 74 82 78 72 57 48 50 53 50 35 30 32 36 32 23 24 27 36 31 20 15 16 19 24 31 28
90 84 90 82 70 72 84 84 95 95 91 98 99 97 87 77 81 74 65 68 69 62 53 52 44 35 31 30 31 30 28 21 24 37 37 33 25 20 21 25 33 36 25
96 95 99 99 97 93 93 99 98 100 96 97 98 96 94 89 78 66 59 60 52 48 44 38 37 34 34 32 31 30 25 27 39 37 40 37 31 25 30 36 40 32 15
97 96 98 100 96 94 100 98 99 100 100 98 97 100 87 65 61 54 48 45 41 39 36 34 34 32 30 29 26 25 27 36 37 46 47 38 34 37 45 47 39 21 14
20 28 29 34 77 89 82 92 91 75 74 79 87 94 94 86 70 60 57 51 48 46 43 38 34 33 31 29 28 28 29 44 52 54 57 57 47 55 54 42 24 18 14
37 38 35 41 48 49 49 55 62 58 53 53 58 56 57 70 69 67 64 58 57 59 62 57 48 40 35 33 34 38 46 53 60 69 74 63 65 62 49 30 22 18 18
24 22 24 26 28 32 43 53 59 62 71 75 81 70 65 56 53 51 48 48 46 40 38 32 30 33 40 52 60 62 60 60 77 73 75 75 75 54 35 27 24 21 24
32 39 38 36 38 30 29 30 30 33 44 54 53 52 50 48 48 48 47 44 48 52 49 40 46 57 63 66 71 72 79 75 73 75 80 75 62 44 36 30 28 30 32
45 53 60 60 61 65 69 74 71 68 76 84 85 87 80 70 62 63 68 64 67 72 72 74 79 83 84 80 74 81 80 78 78 83 79 73 51 46 38 37 35 35 39
9 20 46 68 87 92 96 96 96 89 88 91 99 99 96 92 94 87 79 82 89 95 89 88 84 90 100 94 86 90 86 91 90 95 77 58 54 46 39 43 42 42 48
19 14 10 14 43 81 90 96 100 99 92 100 100 98 100 100 100 100 100 100 100 100 99 98 97 100 100 94 92 96 98 94 91 81 70 60 55 48 48 47 46 50 52
32 35 30 19 13 23 61 90 96 100 100 98 100 100 100 100 100 100 100 100 100 100 99 89 92 90 93 94 94 100 100 98 91 77 70 65 61 56 54 51 51 47 32
38 43 41 34 25 17 16 34 59 85 100 100 100 100 100 100 100 100 100 100 100 100 100 100 98 94 99 98 99 100 100 99 84 75 67 63 66 65 62 58 47 28 22
47 47 49 52 42 31 21 16 16 42 82 100 100 100 100 100 100 100 100 100 100 100 100 100 100 99 96 99 100 100 100 96 81 70 63 65 70 72 73 55 39 31 28
57 61 61 58 61 52 36 23 18 16 28 60 98 100 100 100 100 100 100 100 100 100 100 100 100 99 100 100 98 100 99 92 86 78 74 72 73 78 84 64 42 42 39
61 67 72 68 79 85 70 43 22 19 18 18 44 92 100 100 100 100 100 100 100 100 100 98 99 100 100 100 100 100 100 100 97 86 81 78 75 78 89 89 57 51 50
69 74 81 85 97 96 94 87 60 28 22 22 20 29 94 100 100 100 100 100 100 100 100 100 100 100 100 100 100 100 100 100 100 88 84 82 76 75 86 97 99 78 62
76 77 84 91 97 96 92 82 77 54 32 33 38 34 23 73 100 100 100 100 100 100 100 100 100 100 100 100 100 100 100 100 100 97 86 80 80 84 94 100 100 98 96
72 85 85 85 86 80 68 59 59 64 62 55 48 32 28 22 26 94 100 100 100 100 100 100 100 100 100 100 100 100 100 100 100 100 99 96 97 100 100 100 100 100 100
76 83 76 70 68 62 58 52 51 51 48 42 35 28 28 27 22 27 77 100 100 100 100 100 100 100 100 100 100 100 100 100 100 100 100 100 100 100 100 100 100 100 100
63 63 62 62 66 70 61 47 42 49 48 39 31 28 29 35 83 100 100 87 100 100 100 100 100 100 100 100 100 100 100 100 100 100 100 100 100 100 100 100 100 100 97